     2.11           OBSERVATION DATA    G (GPS)             RINEX VERSION / TYPE
teqc 2010Oct21 OPUS Account 20111028 15:00:09UTC            PGM / RUN BY / DATE
P 1526                                                      MARKER NAME
3050                                                        MARKER NUMBER
CSMIDDLETON NGS                                             OBSERVER / AGENCY
0220284361 TRIMBLE 5700 NP 1.22 / SP 1.22                   REC # / TYPE / VERS
12234991 TRM41249.00 NONE                                   ANT # / TYPE
  -751845.7395 -5572231.3235  3000866.1141                  APPROX POSITION XYZ
        2.0000        0.0000        0.0000                  ANTENNA: DELTA H/E/N
     1     1                                                WAVELENGTH FACT L1/2
     5    L1    L2    C1    P1    P2                        # / TYPES OF OBSERV
    15                                                      LEAP SECONDS
  2011     8    22     0     0   30.0000000     GPS         TIME OF FIRST OBS
                                                            END OF HEADER
 11  8 22  0  0 30.0000000  0  8G10G12G17G09G05G04G25G02
 -28729463.16058 -22374584.89356  20789135.8834                   20789134.2464
 -21008091.10958 -16354709.84656  21621838.0944                   21621835.6844
 -33566694.12557 -26140025.23755  22828003.2034                   22828001.9774
 -16025148.16857 -12471378.61154  23179334.3754                   23179334.6914
 -16072464.03957 -12508212.69155  22254425.4454                   22254425.2624
 -33885261.12558 -26387068.06756  21243703.9924                   21243702.9304
   -337398.80956   -247287.77954  24484447.6334                   24484449.5354
 -32701069.12558 -25465419.43456  20514310.5944                   20514306.6174
 11  8 22  0  1  0.0000000  0  8G10G12G17G09G05G04G25G02
 -28775947.02048 -22410806.07246  20780290.1174                   20780288.9264
 -21110634.00048 -16434613.36646  21602324.7114                   21602322.3164
 -33550663.56247 -26127533.92845  22831053.4064                   22831052.5124
 -15984884.32447 -12440004.23244  23186996.4384                   23186997.3554
 -16201008.77047 -12608377.32345  22229963.8754                   22229963.8524
 -33844824.93748 -26355559.39046  21251398.5474                   21251397.8714
   -472958.61346   -352918.75644  24458651.5314                   24458653.4614
 -32740768.22748 -25496353.77446  20506756.0944                   20506751.8204
 11  8 22  0  1 30.0000000  0  9G10G12G17G09G05G04G25G02G30
 -28821826.25848 -22446556.10046  20771559.7974                   20771557.8874
 -21212820.84448 -16514239.43646  21582879.3524                   21582876.6994
 -33534504.30147 -26114942.32045  22834128.4064                   22834128.0124
 -15944386.28947 -12408447.39744  23194703.2114                   23194703.3164
 -16329328.73047 -12708366.81246  22205545.4144                   22205545.0554
 -33804218.23448 -26323917.81846  21259125.3834                   21259124.9494
   -608420.32447   -458473.29444  24432873.9224                   24432875.7544
 -32780167.66048 -25527054.61446  20499258.6954                   20499254.5084
   -199200.66056   -142649.57653  24192294.1024                   24192293.8364
 11  8 22  0  2  0.0000000  0  9G10G12G17G09G05G04G25G02G30
 -28867099.09048 -22481833.60646  20762944.5554                   20762943.0434
 -21314647.94148 -16593585.18346  21563502.0474                   21563499.6764
 -33518214.49247 -26102248.99645  22837228.2894                   22837227.4694
 -15903656.31247 -12376709.82744  23202453.5234                   23202453.8364
 -16457419.81247 -12808177.94746  22181170.9774                   22181170.3834
 -33763442.22348 -26292144.32746  21266885.1724                   21266884.4774
   -743780.39147   -563948.65544  24407116.1804                   24407117.3524
 -32819267.19948 -25557521.77847  20491818.5704                   20491814.3164
   -336438.46146   -249588.01744  24166177.9144                   24166177.5044
 11  8 22  0  2 30.0000000  0  9G10G12G17G09G05G04G25G02G30
 -27336353.15648 -21289044.55246  21054236.0164                   21054234.3874
 -19840699.68048 -15445054.02746  21843984.6724                   21843982.9224
 -31926384.20347 -24861861.76745  23140143.7344                   23140142.5314
 -14287289.23847 -11117203.10844  23510038.2274                   23510039.0784
 -15009864.62547 -11680212.75746  22456631.1884                   22456630.5354
 -32147090.42648 -25032649.42046  21574466.9924                   21574465.6844
    696378.29346    558253.01244  24681168.8674                   24681170.4384
 -31282656.46548 -24360162.74546  20784225.5394                   20784221.6414
   1101910.67246    871203.54444  24439886.6954                   24439886.8954
 11  8 22  0  3  0.0000000  0  9G10G12G17G09G05G04G25G02G30
 -27380419.46148 -21323381.91846  21045850.1644                   21045848.5824
 -19941808.83648 -15523840.34846  21824744.5234                   21824742.3014
 -31909840.23447 -24848970.39045  23143291.4924                   23143291.3874
 -14246114.15647 -11085118.66644  23517873.5784                   23517874.3134
 -15137497.46147 -11779666.82046  22432343.0864                   22432342.9804
 -32105990.84448 -25000623.78446  21582287.7584                   21582286.7344
    561220.51646    452935.25144  24655449.7194                   24655450.9734
 -31321168.25048 -24390171.91047  20776896.9384                   20776892.8874
    965011.77746    764529.09743  24413835.4844                   24413835.6174
 11  8 22  0  3 30.0000000  0  9G10G12G17G09G05G04G25G02G30
 -27423871.23048 -21357240.42646  21037581.8284                   21037580.2274
 -20042544.96148 -15602335.99646  21805575.1254                   21805572.9694
 -31893158.47347 -24835971.64845  23146465.9844                   23146466.1254
 -14204711.80947 -11052857.15744  23525751.8134                   23525751.8834
 -15264886.63347 -11878931.01246  22408101.6884                   22408101.6724
 -32064722.87948 -24968466.94046  21590140.8754                   21590139.7934
    426177.52746    347707.03244  24629751.1094                   24629752.5944
 -31359377.64848 -24419945.44446  20769626.0864                   20769622.0984
    828296.41046    657997.73343  24387819.1094                   24387819.0984
 11  8 22  0  4  0.0000000  0  9G10G12G17G09G05G04G25G02G30
 -27466705.77348 -21390617.96546  21029430.6724                   21029429.2114
 -20142904.39148 -15680538.11446  21786477.5164                   21786475.2274
 -31876336.50447 -24822863.61845  23149667.4614                   23149666.5744
 -14163084.07847 -11020420.03844  23533673.8134                   23533673.4614
 -15392028.04347 -11978002.16446  22383907.5944                   22383907.4184
 -32023286.82048 -24936179.09646  21598025.8134                   21598024.7504
    291253.48446    242571.46743  24604075.8984                   24604077.3404
 -31397284.01648 -24449482.85646  20762412.6334                   20762408.5904
    691769.01647    551612.76644  24361839.8834                   24361839.1214
 11  8 22  0  4 30.0000000  0  9G10G12G17G09G05G04G25G02G30
 -27508921.52048 -21423513.34846  21021396.9774                   21021395.6134
 -20242883.37548 -15758443.79246  21767451.9224                   21767449.5044
 -31859372.62147 -24809645.04245  23152895.7274                   23152895.1454
 -14121233.22347 -10987809.02944  23541637.6644                   23541638.0044
 -15518917.32047 -12076876.82946  22359761.1954                   22359760.7274
 -31981683.89548 -24903761.23446  21605942.5164                   21605941.7154
    156451.88746    137531.34043  24578423.8594                   24578425.2194
 -31434887.77348 -24478784.46046  20755256.6564                   20755252.8954
    555433.39846    445377.33343  24335894.8834                   24335894.5704
 11  8 22  0  5  0.0000000  0  9G10G12G17G09G05G04G25G02G30
 -27550510.27348 -21455920.14646  21013482.9064                   21013481.3554
 -20342471.69947 -15836045.04946  21748500.7344                   21748498.8984
 -31842258.61347 -24796309.47445  23156152.1564                   23156151.6294
 -14079154.82047 -10955020.75144  23549644.1954                   23549645.4574
 -15645544.11747 -12175546.96446  22335664.9454                   22335664.1684
 -31939908.67248 -24871209.11146  21613892.1804                   21613890.9734
     21782.93846     32594.52543  24552797.0944                   24552797.9344
 -31472181.83648 -24507844.75146  20748160.0234                   20748155.9144
    419299.97346    339299.36443  24309989.3284                   24309989.5784
 11  8 22  0  5 30.0000000  0  9G10G12G17G09G05G04G25G02G30
 -27591475.32848 -21487840.95846  21005687.5234                   21005686.2734
 -20441671.13747 -15913343.30046  21729623.9384                   21729621.4224
 -31824997.91447 -24782859.59545  23159437.3834                   23159435.9694
 -14036856.67647 -10922061.24144  23557694.1024                   23557694.8164
 -15771909.32447 -12274013.27546  22311618.2114                   22311617.4964
 -31897967.30148 -24838527.51846  21621873.2974                   21621872.4884
   -112754.92646    -72239.99643  24527195.0474                   24527196.3634
 -31509171.42648 -24536667.80447  20741121.0554                   20741117.2034
    283367.39846    233377.98243  24284122.3674                   24284121.6134
 11  8 22  0  6  0.0000000  0  9G10G12G17G09G05G04G25G02G30
 -27631821.64547 -21519279.62346  20998010.1024                   20998008.5004
 -20540484.57447 -15990340.76146  21710820.1954                   21710817.5704
 -31807595.34447 -24769299.17145  23162748.5394                   23162747.2854
 -13994347.27347 -10888937.07044  23565782.6484                   23565783.5944
 -15898015.62947 -12372277.83246  22287620.8134                   22287620.3554
 -31855867.34448 -24805722.34246  21629884.6724                   21629883.7384
   -247164.50446   -176974.68343  24501618.0234                   24501618.8404
 -31545863.12948 -24565258.72246  20734138.7814                   20734134.6134
    147633.13346    127611.06043  24258293.5704                   24258292.5514
 11  8 22  0  6 30.0000000  0  9G10G12G17G09G05G04G25G02G30
 -27671540.06648 -21550229.01646  20990452.1414                   20990450.3404
 -20638901.25447 -16067029.06246  21692091.6644                   21692089.8674
 -31790042.20747 -24755621.42444  23166088.7194                   23166087.3754
 -13951622.03947 -10855644.77944  23573913.9454                   23573913.9574
 -16023851.66847 -12470331.80946  22263675.4304                   22263674.7734
 -31813602.47748 -24772788.68246  21637927.4454                   21637926.2344
   -381435.10547   -281601.15243  24476067.1174                   24476068.0744
 -31582249.79347 -24593611.94747  20727214.7584                   20727210.5944
     12108.25446     22007.36243  24232504.1644                   24232501.8594
 11  8 22  0  7  0.0000000  0  9G10G12G17G09G05G04G25G02G30
 -27710626.60247 -21580686.03246  20983014.0944                   20983012.4924
 -20736915.18047 -16143403.52946  21673440.5634                   21673438.8164
 -31772334.21547 -24741822.97744  23169458.2814                   23169457.8164
 -13908680.60247 -10822183.97144  23582085.0234                   23582086.4654
 -16149411.16047 -12568170.28746  22239782.0084                   22239781.3634
 -31771171.32848 -24739725.43445  21646001.8054                   21646001.0274
   -515560.63747   -386114.43144  24450544.3674                   24450545.5744
 -31618329.23447 -24621725.78546  20720348.7974                   20720344.9964
   -123200.98446    -83428.33843  24206754.7274                   24206753.6604
 11  8 22  0  7 30.0000000  0  9G10G12G17G09G05G04G25G02G30
 -27749088.53948 -21610656.35446  20975694.5474                   20975693.0744
 -20834532.12147 -16219468.65446  21654864.7194                   21654862.5204
 -31754478.44547 -24727909.39444  23172856.4774                   23172854.8914
 -13865534.24647 -10788563.49044  23590295.9844                   23590296.2304
 -16274698.76247 -12665796.89046  22215940.4614                   22215939.5784
 -31728583.98448 -24706540.49045  21654105.8984                   21654104.7274
   -649546.44147   -490518.90344  24425046.7344                   24425048.9264
 -31654110.10548 -24649606.97446  20713539.9454                   20713535.9614
   -258299.73846   -188700.03643  24181047.0234                   24181044.8984
 11  8 22  0  8  0.0000000  0  9G10G12G17G09G05G04G25G02G30
 -27786919.85948 -21640135.26146  20968495.5394                   20968494.1414
 -20931743.87548 -16295218.06546  21636365.9064                   21636363.8554
 -31736469.00847 -24713876.09944  23176283.2274                   23176282.5434
 -13822180.92247 -10754781.76644  23598545.7814                   23598545.9964
 -16399706.14547 -12763205.17146  22192152.2894                   22192151.8954
 -31685836.84848 -24673231.03245  21662240.4454                   21662239.7154
   -783384.34047   -594808.09044  24399578.6564                   24399580.6724
 -31689588.01648 -24677252.08346  20706788.8364                   20706784.6604
   -393179.44946   -293801.07543  24155379.9694                   24155378.5744
 11  8 22  0  8 30.0000000  0  9G10G12G17G09G05G04G25G02G30
 -27824125.89148 -21669126.96046  20961415.8054                   20961414.1414
 -21028553.83647 -16370654.38846  21617943.9384                   21617941.8634
 -31718311.03147 -24699727.02144  23179738.8984                   23179738.0044
 -13778630.07846 -10720846.12044  23606833.2734                   23606833.9454
 -16524436.27747 -12860397.40146  22168416.9144                   22168415.9104
 -31642937.94548 -24639803.32445  21670403.5704                   21670402.6914
   -917077.77347   -698984.75544  24374137.3524                   24374140.1454
 -31724769.72748 -24704666.40247  20700093.9924                   20700089.9884
   -527843.27046   -398733.89643  24129753.9384                   24129753.1254
 11  8 22  0  9  0.0000000  0  9G10G12G17G09G05G04G25G02G30
 -27860703.34448 -21697628.84446  20954455.0634                   20954453.7464
 -21124957.09447 -16445773.78746  21599598.6804                   21599596.5044
 -31700001.29347 -24685459.72444  23183223.1644                   23183221.9144
 -13734882.52046 -10686757.16644  23615158.6024                   23615158.8284
 -16648883.78947 -12957369.41846  22144735.0234                   22144734.1334
 -31599886.94148 -24606257.09345  21678596.3524                   21678595.0664
  -1050621.66047   -803044.79844  24348724.8054                   24348726.9064
 -31759654.10547 -24731849.02846  20693455.8284                   20693451.5434
   -662285.88347   -503494.25043  24104170.4924                   24104169.9454
 11  8 22  0  9 30.0000000  0  9G10G12G17G09G05G04G25G02G30
 -27896649.33648 -21725638.68546  20947614.7894                   20947613.6094
 -21220948.85547 -16520572.54946  21581332.2504                   21581330.1174
 -31681536.78547 -24671071.80844  23186736.5234                   23186735.8014
 -13690939.00447 -10652515.54444  23623520.7344                   23623521.5514
 -16773043.22747 -13054116.94046  22121108.6254                   22121107.5354
 -31556683.15248 -24572591.81345  21686817.9384                   21686816.9064
  -1184010.79747   -906984.31844  24323341.3284                   24323343.6914
 -31794239.48447 -24758798.66346  20686874.4064                   20686870.2704
   -796501.87547   -608078.08844  24078630.1094                   24078629.9414
 11  8 22  0 10  0.0000000  0  9G10G12G17G09G05G04G25G02G30
 -27931969.89848 -21753161.17046  20940893.5164                   20940891.6454
 -21316532.57847 -16595053.34446  21563143.2034                   21563141.0904
 -31662923.18747 -24656567.75244  23190278.5704                   23190277.8204
 -13646808.86347 -10618128.48144  23631918.5474                   23631918.5634
 -16896917.76647 -13150642.47746  22097535.8284                   22097534.9264
 -31513334.70748 -24538813.82745  21695066.7114                   21695065.3554
  -1317248.77046  -1010806.03744  24297987.4304                   24297989.0044
 -31828532.87947 -24785520.77647  20680348.5864                   20680344.3324
   -930494.71147   -712488.00944  24053131.8984                   24053132.0864
 11  8 22  0 10 30.0000000  0  9G10G12G17G09G05G04G25G02G30
 -27966659.91047 -21780192.31646  20934292.4064                   20934290.5594
 -21411701.23847 -16669210.72546  21545033.1254                   21545031.4494
 -31644155.12947 -24641943.30444  23193850.2584                   23193849.4264
 -13602491.08646 -10583595.22644  23640351.7504                   23640352.3674
 -17020499.67247 -13246939.98846  22074019.0704                   22074018.0824
 -31469838.96547 -24504921.06745  21703343.6644                   21703342.5594
  -1450328.25846  -1114504.21944  24272663.0474                   24272664.5474
 -31862531.34847 -24812013.09246  20673878.9454                   20673874.4774
  -1064256.71146   -816718.00943  24027678.0314                   24027677.9774
 11  8 22  0 11  0.0000000  0  9G10G12G17G09G05G04G25G02G30
 -28000722.58247 -21806734.63746  20927810.0944                   20927808.2344
 -21506455.93047 -16743045.53246  21527002.0944                   21526999.7274
 -31625235.46147 -24627200.75844  23197450.6334                   23197449.4884
 -13557992.70346 -10548921.24244  23648819.8834                   23648820.1484
 -17143789.84047 -13343010.16546  22050557.7814                   22050556.8204
 -31426201.84047 -24470918.13645  21711647.2664                   21711646.1524
  -1583250.32046  -1218079.74944  24247368.8204                   24247369.9964
 -31896239.27347 -24838279.00347  20667464.4614                   20667460.3634
  -1197788.64147   -920768.79244  24002267.4304                   24002267.5514
 11  8 22  0 11 30.0000000  0  9G10G12G17G09G05G04G25G02G30
 -28034157.17247 -21832787.53946  20921447.9534                   20921446.1414
 -21600794.35947 -16816555.96946  21509050.2194                   21509047.7304
 -31606163.61747 -24612339.60645  23201080.3134                   23201079.1524
 -13513316.95747 -10514109.02944  23657321.3754                   23657322.0634
 -17266785.12547 -13438850.57246  22027152.0084                   22027151.4534
 -31382424.93448 -24436806.29345  21719978.1484                   21719977.0634
  -1716012.31247  -1321530.55944  24222105.5084                   24222106.2854
 -31929657.69547 -24864319.32346  20661105.1724                   20661101.2664
  -1331087.57847  -1024638.02244  23976901.5704                   23976900.7194
 11  8 22  0 12  0.0000000  0  9G10G12G17G09G05G04G25G02G30
 -28066960.09848 -21858348.23346  20915206.0164                   20915203.9344
 -21694710.68047 -16889737.49446  21491178.3284                   21491176.0274
 -31586935.53547 -24597356.72044  23204738.7814                   23204738.4144
 -13468463.76247 -10479158.59244  23665856.5474                   23665857.8524
 -17389479.25847 -13534456.31146  22003804.1484                   22003803.5904
 -31338507.15648 -24402584.68145  21728335.6804                   21728334.1764
  -1848608.16446  -1424851.92044  24196872.0784                   24196873.6644
 -31962784.31248 -24890132.26946  20654801.1024                   20654797.6334
  -1464147.42246  -1128320.90944  23951581.3134                   23951580.3164
 11  8 22  0 12 30.0000000  0  9G10G12G17G09G05G04G25G02G30
 -28099131.11347 -21883416.52746  20909083.8754                   20909081.8634
 -21788202.48847 -16962588.23746  21473387.4224                   21473385.1454
 -31567550.31647 -24582251.41445  23208428.3914                   23208426.8634
 -13423436.41046 -10444072.41544  23674425.1724                   23674425.6844
 -17511868.89547 -13629824.77346  21980514.2274                   21980513.3674
 -31294449.96947 -24368254.42845  21736719.1254                   21736718.0514
  -1981035.15247  -1528041.69244  24171672.6254                   24171673.8134
 -31995620.09448 -24915718.59747  20648552.6884                   20648548.8324
  -1596965.06646  -1231815.09243  23926306.1564                   23926306.0354
 11  8 22  0 13  0.0000000  0  9G10G12G17G09G05G04G25G02G30
 -28130671.20347 -21907993.19246  20903081.8594                   20903080.0864
 -21881268.92247 -17035107.50346  21455677.5314                   21455674.9494
 -31548008.91847 -24567024.35645  23212146.7034                   23212146.0274
 -13378239.99647 -10408854.50844  23683025.7274                   23683026.3554
 -17633952.93747 -13724955.11846  21957282.4694                   21957281.5704
 -31250256.98448 -24333818.37246  21745128.7344                   21745127.6954
  -2113292.05947  -1631098.92844  24146504.9774                   24146506.1334
 -32028167.68748 -24941080.35646  20642359.4534                   20642355.1564
  -1729539.19946  -1335119.51343  23901078.5314                   23901076.9184
 11  8 22  0 13 30.0000000  0  9G10G12G17G09G05G04G25G02G30
 -28161589.71547 -21932085.51546  20897198.0164                   20897196.4964
 -21973916.53147 -17107300.40146  21438046.8594                   21438044.6844
 -31528319.97347 -24551682.35345  23215892.7194                   23215893.0824
 -13332886.77347 -10373514.44044  23691656.3984                   23691656.5594
 -17755737.93447 -13819852.43046  21934107.6414                   21934106.3874
 -31205939.42648 -24299285.24245  21753562.4144                   21753561.5944
  -2245385.44547  -1734028.73344  24121368.4534                   24121369.9494
 -32060437.22748 -24966225.43546  20636218.6884                   20636214.7504
  -1861876.00046  -1438238.96643  23875895.6024                   23875894.1094
 11  8 22  0 14  0.0000000  0  9G10G12G17G09G05G04G25G02G30
 -28191882.16848 -21955690.01646  20891433.7664                   20891431.8484
 -22066139.20347 -17179162.21246  21420497.6254                   21420495.3794
 -31508479.07447 -24536221.95045  23219668.6024                   23219668.5594
 -13287376.21947 -10338051.74544  23700316.2424                   23700316.4184
 -17877216.73847 -13914511.16946  21910990.5554                   21910989.4344
 -31161495.50448 -24264653.63945  21762019.5314                   21762018.6484
  -2377308.74247  -1836826.05144  24096264.6334                   24096264.9024
 -32092425.93447 -24991151.69947  20630131.2114                   20630127.0514
  -1993968.74246  -1541168.27143  23850759.1024                   23850757.0824
 11  8 22  0 14 30.0000000  0  9G10G12G17G09G05G04G25G02G30
 -28221539.35948 -21978799.48846  20885790.1564                   20885788.5394
 -22157925.83247 -17250684.24046  21403031.3674                   21403028.9024
 -31488476.66847 -24520635.71645  23223475.4224                   23223474.7194
 -13241702.88747 -10302462.21044  23709007.9534                   23709008.8954
 -17998377.89847 -14008922.37946  21887934.5944                   21887933.6254
 -31116918.01248 -24229917.97145  21770502.5784                   21770500.9414
  -2509050.71147  -1939482.03644  24071194.6414                   24071195.4344
 -32124126.25447 -25015853.24246  20624098.9304                   20624094.9804
  -2125805.88746  -1643898.46243  23825671.2734                   23825668.9654
 11  8 22  0 15  0.0000000  0  9G10G12G17G09G05G04G25G02G30
 -28250566.06247 -22001417.67546  20880266.4454                   20880264.9964
 -22249278.35947 -17321867.99846  21385647.4454                   21385645.4614
 -31468316.77047 -24504926.76345  23227311.5394                   23227310.8444
 -13195874.46947 -10266751.84344  23717729.2274                   23717730.2624
 -18119222.39847 -14103086.84346  21864938.5084                   21864937.2304
 -31072213.48048 -24195083.30945  21779009.6254                   21779007.9104
  -2640612.94947  -2041998.00644  24046159.0704                   24046159.7734
 -32155543.70748 -25040334.36647  20618120.3134                   20618116.5864
  -2257388.98846  -1746430.61943  23800631.6564                   23800630.1294
 11  8 22  0 15 30.0000000  0  9G10G12G17G09G05G04G25G02G30
 -28278965.35948 -22023546.99046  20874862.6954                   20874860.9024
 -22340197.91847 -17392714.38246  21368346.0554                   21368343.5594
 -31448001.77347 -24489096.93345  23231177.2584                   23231176.3914
 -13149897.71546 -10230925.88044  23726477.3754                   23726478.8554
 -18239751.33247 -14197005.42646  21842002.4694                   21842001.4414
 -31027387.10548 -24160153.68845  21787539.6414                   21787538.6994
  -2771996.11747  -2144374.42144  24021157.8984                   24021158.7384
 -32186682.57448 -25064598.40946  20612194.8364                   20612190.8914
  -2388718.34847  -1848765.14043  23775640.6804                   23775638.9414
 11  8 22  0 16  0.0000000  0  9G10G12G17G09G05G04G25G02G30
 -28306733.35948 -22045184.38346  20869578.1484                   20869576.4024
 -22430678.67647 -17463218.86146  21351128.0554                   21351125.0944
 -31427527.80147 -24473143.22145  23235072.9774                   23235072.9574
 -13103772.32047 -10194984.12644  23735255.4144                   23735255.3754
 -18359958.08247 -14290672.95546  21819127.6414                   21819126.7854
 -30982437.18448 -24125127.79645  21796093.2814                   21796092.2344
  -2903194.12547  -2246606.57244  23996191.3674                   23996192.4494
 -32217540.61347 -25088643.63446  20606322.9774                   20606318.6054
  -2519787.68047  -1950897.01143  23750699.0004                   23750697.7154
 11  8 22  0 16 30.0000000  0  9G10G12G17G09G05G04G25G02G30
 -28333868.00048 -22066328.24346  20864414.7584                   20864412.8834
 -22520715.82447 -17533377.66146  21333994.2344                   21333991.7544
 -31406891.74647 -24457063.20645  23239000.2584                   23238999.7274
 -13057499.48447 -10158927.46244  23744060.8984                   23744061.9924
 -18479837.35547 -14384085.30046  21796315.5634                   21796314.6214
 -30937363.50848 -24090005.46045  21804670.5084                   21804669.5124
  -3034201.94947  -2348690.49444  23971261.4614                   23971261.9654
 -32248116.63347 -25112469.09146  20600504.2584                   20600500.1804
  -2650591.77747  -2052822.21543  23725807.7814                   23725806.6024
 11  8 22  0 17  0.0000000  0  9G10G12G17G09G05G04G25G02G30
 -28360375.91448 -22086983.75346  20859370.1724                   20859368.6094
 -22610314.07448 -17603194.47646  21316944.6254                   21316942.1294
 -31386099.96947 -24440861.83245  23242956.7504                   23242956.0314
 -13011089.27047 -10122763.74344  23752891.8134                   23752893.7974
 -18599393.10947 -14477245.56146  21773564.5944                   21773563.4734
 -30892174.45348 -24054793.22445  21813269.6884                   21813268.6414
  -3165023.62147  -2450629.36944  23946366.9064                   23946367.6254
 -32278418.33648 -25136080.80246  20594737.8054                   20594733.9694
  -2781134.52746  -2154543.74843  23700966.0864                   23700965.0354
 11  8 22  0 17 30.0000000  0  9G10G12G17G09G05G04G25G02G30
 -28386252.57448 -22107147.36146  20854446.2894                   20854444.6024
 -22699466.53947 -17672663.91346  21299979.2894                   21299977.0784
 -31365147.57847 -24424535.32945  23246943.9224                   23246943.4694
 -12964540.71147 -10086492.22243  23761750.2734                   23761751.0394
 -18718617.84047 -14570147.88546  21750877.2344                   21750875.6414
 -30846867.66448 -24019489.25145  21821891.6724                   21821890.0594
  -3295652.04747  -2552417.68844  23921508.6334                   23921509.8794
 -32308442.58647 -25159476.31746  20589024.8134                   20589020.9454
  -2911408.56247  -2256055.93543  23676175.4384                   23676174.6334
 11  8 22  0 18  0.0000000  0  9G10G12G17G09G05G04G25G02G30
 -28411495.91448 -22126817.47046  20849642.4614                   20849640.7774
 -22788168.95747 -17741782.67846  21283099.9224                   21283097.6564
 -31344031.69547 -24408081.44144  23250962.2344                   23250962.0824
 -12917854.66847 -10050113.57144  23770634.5704                   23770635.7074
 -18837506.93747 -14662788.66946  21728253.1804                   21728252.2664
 -30801442.84848 -23984093.31245  21830535.5234                   21830534.5984
  -3426082.50047  -2654051.69044  23896688.6254                   23896690.1414
 -32338188.28948 -25182654.77346  20583364.1884                   20583360.0044
  -3041408.93746  -2357354.82844  23651437.4224                   23651436.4574
 11  8 22  0 18 30.0000000  0  9G10G12G17G09G05G04G25G02G30
 -28436110.97748 -22145998.02946  20844958.4694                   20844956.7624
 -22876424.33647 -17810553.08946  21266305.3134                   21266303.0354
 -31322756.34447 -24391503.31245  23255010.5234                   23255010.3754
 -12871039.73446 -10013634.48944  23779543.4614                   23779543.8984
 -18956062.16447 -14755169.30246  21705692.5944                   21705691.7424
 -30755906.75447 -23948610.66845  21839200.8674                   21839199.5394
  -3556317.19547  -2755533.21544  23871906.0704                   23871907.2344
 -32367661.63747 -25205621.00047  20577755.6724                   20577751.4454
  -3171137.62947  -2458442.04944  23626751.5004                   23626749.9224
 11  8 22  0 19  0.0000000  0  9G10G12G17G09G05G04G25G02G30
 -28460097.59048 -22164688.89146  20840393.8444                   20840392.1454
 -22964229.62947 -17878972.80246  21249596.6724                   21249593.9964
 -31301321.12947 -24374800.58644  23259090.0394                   23259089.7504
 -12824099.13747  -9977057.51044  23788475.8364                   23788477.0084
 -19074280.95347 -14847287.78146  21683196.1644                   21683195.4774
 -30710261.29348 -23913042.78945  21847886.7034                   21847885.6294
  -3686353.35247  -2856860.03944  23847160.7734                   23847161.8094
 -32396863.53947 -25228375.72546  20572198.9304                   20572194.6564
  -3300591.81647  -2559315.39244  23602116.9144                   23602115.6844
 11  8 22  0 19 30.0000000  0  9G10G12G17G09G05G04G25G02G30
 -28483457.11748 -22182891.09646  20835948.8594                   20835947.2194
 -23051583.69947 -17947040.89546  21232973.6884                   21232971.1724
 -31279726.52747 -24357973.68144  23263199.4224                   23263198.4344
 -12777037.30547  -9940386.03644  23797431.8524                   23797431.7034
 -19192161.35247 -14939142.56846  21660764.3284                   21660763.3594
 -30664509.30548 -23877391.89445  21856592.8524                   21856592.0044
  -3816189.37546  -2958030.83844  23822453.5474                   23822455.0474
 -32425796.23447 -25250920.67646  20566692.9614                   20566689.1684
  -3429769.57446  -2659973.30744  23577535.3914                   23577534.0744
 11  8 22  0 20  0.0000000  0  9G10G12G17G09G05G04G25G02G30
 -28506188.34448 -22200603.73446  20831623.1254                   20831621.5984
 -23138483.25848 -18014754.82146  21216437.0474                   21216434.8834
 -31257970.78547 -24341021.21144  23267339.1804                   23267338.7544
 -12729855.95346  -9903621.42144  23806410.1094                   23806410.7034
 -19309699.41047 -15030730.60246  21638397.5554                   21638396.8014
 -30618651.14148 -23841658.28145  21865319.8364                   21865318.9964
  -3945821.21547  -3059042.60244  23797784.7894                   23797786.9024
 -32454459.75047 -25273255.87946  20561238.4304                   20561234.3634
  -3558666.80946  -2760412.61644  23553006.3754                   23553005.7114
 11  8 22  0 20 30.0000000  0  9G10G12G17G09G05G04G25G02G30
 -28528287.22748 -22217823.62146  20827418.0084                   20827416.4804
 -23224922.07447 -18082109.73646  21199988.3524                   21199986.2234
 -31236049.34447 -24323939.60044  23271510.7194                   23271510.4534
 -12682554.35947  -9866763.13644  23815411.4384                   23815411.7504
 -19426887.87947 -15122046.22746  21616097.4064                   21616096.1804
 -30572684.76248 -23805840.33645  21874066.8914                   21874065.7894
  -4075242.25847  -3159890.08844  23773157.1484                   23773158.2274
 -32482850.95747 -25295378.89446  20555835.7344                   20555831.6254
  -3687276.46546  -2860627.87343  23528532.5554                   23528531.6294
 11  8 22  0 21  0.0000000  0  9G10G12G17G09G05G04G25G02G30
 -28549759.81648 -22234555.51146  20823331.7034                   20823330.1214
 -23310903.31247 -18149108.08946  21183626.6174                   21183624.5434
 -31213966.87146 -24306732.51544  23275712.6804                   23275712.2814
 -12635141.55947  -9829818.20744  23824433.8444                   23824434.5984
 -19543729.62947 -15213091.68146  21593862.7274                   21593862.1644
 -30526617.64847 -23769943.89745  21882832.7194                   21882832.2304
  -4204455.27047  -3260575.48044  23748568.9384                   23748570.3284
 -32510976.72747 -25317295.07446  20550483.7344                   20550479.8204
  -3815601.46946  -2960621.28244  23504112.9534                   23504112.7114
 11  8 22  0 21 30.0000000  0  9G10G12G17G09G05G04G25G02G30
 -28570603.60248 -22250797.41246  20819365.4534                   20819363.3954
 -23396422.23847 -18215746.20246  21167352.8754                   21167350.6994
 -31191720.15647 -24289397.47744  23279946.5944                   23279945.7814
 -12587617.99647  -9792786.97044  23833477.3364                   23833477.1294
 -19660219.24647 -15303862.76046  21571695.5704                   21571694.8674
 -30480448.73447 -23733968.13845  21891618.7734                   21891617.8404
  -4333454.78947  -3361094.53944  23724020.7584                   23724022.3594
 -32538835.21148 -25339002.98846  20545182.6024                   20545178.3094
  -3943635.99647  -3060388.34744  23479748.7734                   23479748.4024
 11  8 22  0 22  0.0000000  0  9G10G12G17G09G05G04G25G02G30
 -28590818.38748 -22266549.17646  20815518.6174                   20815516.9064
 -23481476.31648 -18282022.09146  21151167.8134                   21151165.1884
 -31169308.65647 -24271933.99244  23284211.3524                   23284210.0044
 -12539986.84447  -9755671.85644  23842541.0864                   23842542.1954
 -19776353.71947 -15394357.08446  21549595.9534                   21549595.2234
 -30434179.59447 -23697914.27545  21900423.2664                   21900422.6174
  -4462238.00447  -3461445.01244  23699514.4144                   23699516.1604
 -32566427.57048 -25360503.52846  20539931.7344                   20539928.0784
  -4071377.02746  -3159926.78243  23455440.3054                   23455439.4924
 11  8 22  0 22 30.0000000  0  9G10G12G17G09G05G04G25G02G30
 -28610406.73448 -22281812.81846  20811791.0394                   20811789.4104
 -23566066.00447 -18347936.11446  21135070.6564                   21135068.5864
 -31146733.95747 -24254343.32444  23288507.0004                   23288506.3594
 -12492253.63347  -9718477.25844  23851624.8364                   23851625.7154
 -19892132.50447 -15484574.26546  21527564.2504                   21527562.7074
 -30387814.33648 -23661785.52645  21909246.4924                   21909245.5704
  -4590804.54347  -3561626.69844  23675049.2344                   23675050.3594
 -32593757.39548 -25381799.50047  20534731.3914                   20534727.0704
  -4198824.05946  -3259236.08843  23431187.3594                   23431186.7934
 11  8 22  0 23  0.0000000  0  9G10G12G17G09G05G04G25G02G30
 -28629367.91048 -22296587.76046  20808182.9144                   20808181.3244
 -23650187.47347 -18413485.29146  21119062.8834                   21119060.9384
 -31123994.32447 -24236624.18044  23292834.4924                   23292833.5434
 -12444420.49646  -9681204.77843  23860726.4064                   23860727.8364
 -20007551.81647 -15574511.31646  21505600.4304                   21505599.3364
 -30341353.41447 -23625582.25345  21918087.5864                   21918086.7384
  -4719150.34447  -3661636.35844  23650626.1644                   23650627.1024
 -32620824.40248 -25402890.67646  20529580.5164                   20529576.2894
  -4325972.88347  -3358313.01244  23406992.1024                   23406991.3444
 11  8 22  0 23 30.0000000  0  9G10G12G17G09G05G04G25G02G30
 -28647700.87148 -22310873.18546  20804694.2894                   20804692.5634
 -23733837.44547 -18478667.07746  21103145.2814                   21103142.9924
 -31101087.75047 -24218774.92644  23297193.4774                   23297192.9454
 -12396489.53147  -9643856.09244  23869848.2814                   23869849.6054
 -20122607.54747 -15664165.07046  21483705.9454                   21483705.0514
 -30294797.39547 -23589304.84245  21926946.8834                   21926946.1374
  -4847271.43047  -3761470.96444  23626244.9224                   23626245.9454
 -32647628.45348 -25423776.95246  20524479.6564                   20524475.7774
  -4452819.39147  -3457154.42544  23382853.9774                   23382853.6564
 11  8 22  0 24  0.0000000  0  9G10G12G17G09G05G04G25G02G30
 -28665403.90248 -22324667.74446  20801325.6414                   20801323.7424
 -23817011.70348 -18543478.15346  21087317.4064                   21087315.2504
 -31078011.71547 -24200793.64844  23301584.7424                   23301584.1134
 -12348461.60246  -9606431.86344  23878987.4924                   23878988.8984
 -20237294.55147 -15753531.50846  21461881.6804                   21461880.2814
 -30248145.89547 -23552953.06145  21935824.5554                   21935823.1844
  -4975162.93747  -3861126.66944  23601908.1094                   23601909.1454
 -32674168.39548 -25444457.44846  20519429.5554                   20519425.3094
  -4579358.46547  -3555756.26844  23358774.6644                   23358774.1054
 11  8 22  0 24 30.0000000  0  9G10G12G17G09G05G04G25G02G30
 -28682480.78948 -22337974.41046  20798075.6024                   20798074.1954
 -23899711.27748 -18607919.36546  21071580.2894                   21071577.9104
 -31054768.90247 -24182682.38644  23306007.6334                   23306006.7624
 -12300343.58646  -9568937.37543  23888144.0234                   23888145.4694
 -20351613.46147 -15842611.12046  21440127.8834                   21440126.2664
 -30201404.10547 -23516530.90745  21944718.9534                   21944718.3204
  -5102825.54747  -3960604.00044  23577614.0944                   23577615.9614
 -32700448.91848 -25464935.77947  20514428.2504                   20514424.3324
  -4705590.70347  -3654119.01544  23334753.9614                   23334752.6644
 11  8 22  0 25  0.0000000  0  9G10G12G17G09G05G04G25G02G30
 -28698932.97748 -22350794.29546  20794945.2584                   20794943.7074
 -23981935.57048 -18671990.22146  21055933.5234                   21055931.3874
 -31031360.02047 -24164441.77844  23310462.1484                   23310462.0864
 -12252139.82446  -9531376.12143  23897317.1024                   23897318.8914
 -20465562.90648 -15931402.83646  21418443.6094                   21418442.4064
 -30154574.69147 -23480040.49045  21953630.4924                   21953629.5274
  -5230257.65247  -4059901.72544  23553364.8594                   23553366.0594
 -32726472.48848 -25485213.90747  20509476.4064                   20509472.2464
  -4831514.33647  -3752241.30044  23310791.2974                   23310790.0044
 11  8 22  0 25 30.0000000  0  9G10G12G17G09G05G04G25G02G30
 -28714757.06648 -22363124.74946  20791933.8984                   20791932.3634
 -24063678.14148 -18735685.71146  21040378.4534                   21040376.0004
 -31007780.80547 -24146068.35244  23314948.9064                   23314948.5944
 -12203849.37546  -9493747.32744  23906506.2344                   23906508.3914
 -20579136.25848 -16019901.48346  21396831.4614                   21396830.1804
 -30107655.26647 -23443479.93545  21962559.3594                   21962558.1254
  -5357452.52746  -4159014.56044  23529159.9924                   23529161.8364
 -32752235.94548 -25505289.34446  20504573.5704                   20504569.6644
  -4957122.42247  -3850117.70044  23286888.2504                   23286886.9494
 11  8 22  0 26  0.0000000  0  9G10G12G17G09G05G04G25G02G30
 -28729951.22348 -22374964.34946  20789042.6174                   20789040.8554
 -24144934.87948 -18799002.63346  21024915.8524                   21024913.2464
 -30984028.14847 -24127559.81844  23319469.1254                   23319468.7234
 -12155473.31046  -9456051.81143  23915712.7504                   23915713.9884
 -20692328.16848 -16108102.92146  21375291.6024                   21375290.0554
 -30060645.63747 -23406849.07645  21971504.5164                   21971503.4304
  -5484405.14847  -4257938.63444  23505002.0234                   23505003.9454
 -32777738.31648 -25525161.33446  20499720.6484                   20499716.9654
  -5082409.87547  -3947744.27544  23263046.8914                   23263044.8754
 11  8 22  0 26 30.0000000  0  9G10G12G17G09G05G04G25G02G30
 -27169101.49248 -21158717.80946  21086062.3054                   21086060.7734
 -22650286.98048 -17634341.91346  21309337.8054                   21309335.4774
 -29384688.28547 -22881321.00644  23623813.5394                   23623812.9104
 -10531602.73446  -8190698.22043  24224724.7344                   24224725.7304
 -19229718.41848 -14968406.95746  21653617.0864                   21653615.9224
 -28438134.83247 -22142554.97445  22280258.3754                   22280257.2624
  -4035694.64147  -3129073.26044  23780682.3364                   23780684.0664
 -31227565.73848 -24317234.66546  20794708.5004                   20794704.8094
  -3631955.75446  -2817520.25544  23539059.5314                   23539057.9884
 11  8 22  0 27  0.0000000  0  9G10G12G17G09G05G04G25G02G30
 -27183043.41848 -21169581.64346  21083409.3444                   21083407.4144
 -22730571.77748 -17696901.47046  21294060.0634                   21294057.7234
 -29360592.96947 -22862545.51544  23628398.6804                   23628398.8484
 -10483071.59046  -8152881.80243  24233959.4534                   24233961.3164
 -19342145.67248 -15056012.54846  21632222.5164                   21632221.2034
 -28390955.35547 -22105791.78945  22289236.3284                   22289235.4064
  -4162160.71547  -3227618.21944  23756616.8984                   23756617.7274
 -31252555.40648 -24336707.13946  20789953.4224                   20789949.3094
  -3756599.40247  -2914645.13043  23515340.1254                   23515339.0594
 11  8 22  0 27 30.0000000  0  9G10G12G17G09G05G04G25G02G30
 -27196361.40648 -21179959.28946  21080875.0394                   21080872.8134
 -22810369.02348 -17759081.13146  21278874.8984                   21278872.6414
 -29336327.61347 -22843637.49645  23633016.3364                   23633015.8914
 -10434469.06246  -8115009.85743  24243208.5944                   24243210.1604
 -19454187.81248 -15143318.05946  21610901.6484                   21610900.3674
 -28343695.14547 -22068965.67645  22298229.6804                   22298228.5004
  -4288380.93447  -3325971.58345  23732597.9614                   23732599.3594
 -31277292.21148 -24355982.58246  20785246.1094                   20785242.2304
  -3880918.38746  -3011517.02743  23491682.0164                   23491681.9734
 11  8 22  0 28  0.0000000  0  9G10G12G17G09G05G04G25G02G30
 -27209055.69948 -21189850.95646  21078459.2894                   21078457.6994
 -22889676.57048 -17820879.21746  21263783.3284                   21263781.1604
 -29311890.94146 -22824595.98444  23637666.4774                   23637666.5474
 -10385798.25846  -8077084.68944  24252470.4384                   24252471.7034
 -19565842.54348 -15230321.68346  21589654.2734                   21589652.8754
 -28296355.81247 -22032077.90945  22307238.3674                   22307237.0904
  -4414352.45347  -3424131.14144  23708626.2734                   23708627.4574
 -31301776.86348 -24375061.55246  20780586.8984                   20780582.7624
  -4004909.75447  -3108133.62944  23468088.2734                   23468087.4384
 11  8 22  0 28 30.0000000  0  9G10G12G17G09G05G04G25G02G30
 -27221124.34048 -21199255.07446  21076162.5784                   21076161.0474
 -22968489.15248 -17882291.61246  21248785.8364                   21248783.9804
 -29287279.54746 -22805418.33744  23642350.1644                   23642349.5864
 -10337059.35946  -8039106.44843  24261745.3364                   24261746.6334
 -19677103.89548 -15317018.77946  21568482.3754                   21568480.7274
 -28248935.67647 -21995127.18345  22316261.7734                   22316261.2234
  -4540069.35947  -3522092.29145  23684702.7814                   23684704.1524
 -31326007.45348 -24393942.53746  20775975.9844                   20775971.9224
  -4128567.39546  -3204490.15644  23444556.6414                   23444555.6994
 11  8 22  0 29  0.0000000  0  9G10G12G17G09G05G04G25G02G30
 -27232570.07848 -21208173.83646  21073984.6954                   21073983.0434
 -23046807.05548 -17943318.54646  21233882.3204                   21233880.0474
 -29262494.86746 -22786105.67644  23647065.9304                   23647065.9144
 -10288257.71146  -8001079.28544  24271032.0164                   24271033.0514
 -19787971.23848 -15403408.87146  21547384.5554                   21547383.5204
 -28201438.42647 -21958116.36545  22325300.1804                   22325299.4884
  -4665531.03147  -3619854.59444  23660828.2664                   23660829.8324
 -31349987.31248 -24412628.15546  20771412.6954                   20771408.4534
  -4251890.62547  -3300586.12444  23421089.1564                   23421088.5164
 11  8 22  0 29 30.0000000  0  9G10G12G17G09G05G04G25G02G30
 -27243397.12548 -21216610.49146  21071923.8364                   21071922.5744
 -23124631.72748 -18003961.13346  21219072.8444                   21219070.6604
 -29237540.12546 -22766660.46344  23651815.1334                   23651814.9844
 -10239399.92646  -7963008.41544  24280329.6024                   24280330.7734
 -19898445.41848 -15489492.59246  21526361.9614                   21526360.8094
 -28153869.32047 -21921049.55045  22334352.0864                   22334351.0664
  -4790738.33247  -3717418.64744  23637002.1644                   23637003.3714
 -31373720.82848 -24431121.80246  20766896.5004                   20766892.2384
  -4374880.15246  -3396422.06044  23397685.2424                   23397684.6454
 11  8 22  0 30  0.0000000  0  9G10G12G17G09G05G04G25G02G30
 -27253603.90648 -21224563.82646  21069981.8284                   21069980.2664
 -23201959.29748 -18064216.38346  21204357.8134                   21204355.7194
 -29212412.71946 -22747080.74244  23656596.4924                   23656596.5204
 -10190487.36346  -7924894.88743  24289637.0234                   24289639.1174
 -20008521.78948 -15575266.33846  21505415.2114                   21505414.0664
 -28106228.00047 -21883926.45745  22343418.3674                   22343417.5864
  -4915686.46947  -3814780.77844  23613225.2194                   23613226.6524
 -31397207.53548 -24449423.12747  20762427.0784                   20762423.0784
  -4497531.13747  -3491994.16444  23374345.2974                   23374344.3634
 11  8 22  0 30 30.0000000  0  9G10G12G17G09G05G04G25G02G30
 -27263189.52348 -21232033.13646  21068158.1564                   21068156.2304
 -23278786.48848 -18124081.74146  21189738.1414                   21189735.8674
 -29187110.85546 -22727365.06444  23661411.4064                   23661411.2734
 -10141521.52046  -7886739.78143  24298955.0394                   24298956.8444
 -20118196.37548 -15660726.99646  21484544.8364                   21484543.4924
 -28058514.61747 -21846747.21845  22352497.3594                   22352497.0204
  -5040371.28547  -3911937.70445  23589499.2584                   23589499.9414
 -31420447.00448 -24467531.80346  20758004.5634                   20758000.4924
  -4619839.21147  -3587299.12344  23351070.7664                   23351069.7074
 11  8 22  0 31  0.0000000  0  9G10G12G17G09G05G04G25G02G30
 -27272153.32048 -21239017.91946  21066452.3754                   21066450.3914
 -23355109.50448 -18183554.22146  21175214.5314                   21175212.0514
 -29161632.52746 -22707511.89944  23666259.4384                   23666259.8714
 -10092504.42246  -7848544.76543  24308283.0314                   24308284.1914
 -20227464.98848 -15745871.32746  21463751.7734                   21463750.4104
 -28010729.36747 -21809511.98245  22361591.1804                   22361589.9614
  -5164788.52747  -4008886.17244  23565823.3444                   23565823.6524
 -31443439.16448 -24485447.76746  20753629.3914                   20753625.3554
  -4741800.02347  -3682333.45644  23327862.9064                   23327862.1174
 11  8 22  0 31 30.0000000  0  9G10G12G17G09G05G04G25G02G30
 -27280498.20748 -21245520.41846  21064864.4384                   21064862.5394
 -23430928.73448 -18242634.15046  21160786.4144                   21160784.2464
 -29135978.80146 -22687522.05344  23671141.5944                   23671141.7504
 -10043440.94146  -7810313.60843  24317619.6094                   24317621.0904
 -20336327.06648 -15830698.86746  21443035.9384                   21443034.3484
 -27962875.60247 -21772223.34245  22370697.0784                   22370696.3444
  -5288937.32447  -4105625.47844  23542198.2974                   23542198.6414
 -31466186.70348 -24503173.11846  20749300.5394                   20749296.6174
  -4863412.69146  -3777096.51044  23304720.4844                   23304719.9414
 11  8 22  0 32  0.0000000  0  9G10G12G17G09G05G04G25G02G30
 -27288227.62548 -21251543.32946  21063393.2194                   21063391.7704
 -23506244.66448 -18301321.89346  21146454.2424                   21146452.0394
 -29110152.25046 -22667397.51244  23676056.7424                   23676056.3984
  -9994336.98047  -7772050.82743  24326964.1884                   24326965.3284
 -20444782.36748 -15915209.44246  21422397.7114                   21422396.2464
 -27914957.47347 -21734884.56645  22379815.6954                   22379815.3324
  -5412817.55547  -4202155.47345  23518624.6724                   23518624.8014
 -31488693.50448 -24520710.87846  20745017.8674                   20745013.9344
  -4984676.94147  -3871588.07044  23281644.6804                   23281643.3134
 11  8 22  0 32 30.0000000  0  9G10G12G17G09G05G04G25G02G30
 -27295339.32048 -21257084.91146  21062040.0864                   21062038.3754
 -23581051.94148 -18359613.29946  21132218.9144                   21132216.6564
 -29084149.19146 -22647135.45744  23681005.1024                   23681004.3134
  -9945192.32447  -7733756.42844  24336315.6024                   24336317.1844
 -20552824.92648 -15999398.40646  21401837.6564                   21401836.1174
 -27866973.40247 -21697494.40445  22388947.0554                   22388946.4104
  -5536423.35247  -4298471.64844  23495102.9844                   23495104.0474
 -31510957.34048 -24538059.31346  20740781.4774                   20740777.2344
  -5105586.79347  -3965803.51544  23258636.2734                   23258635.4964
 11  8 22  0 33  0.0000000  0  9G10G12G17G09G05G04G25G02G30
 -27301835.10548 -21262146.56346  21060803.8134                   21060802.3554
 -23655350.20748 -18417508.05546  21118080.9144                   21118078.2464
 -29057969.93046 -22626736.10644  23685986.5944                   23685986.0124
  -9896011.35247  -7695433.69543  24345674.8054                   24345676.0354
 -20660453.76648 -16083264.98746  21381356.6414                   21381355.1994
 -27818926.47747 -21660055.25945  22398089.5234                   22398089.1024
  -5659753.25447  -4394572.85944  23471634.2664                   23471635.4454
 -31532980.90648 -24555220.53046  20736590.3594                   20736585.9344
  -5226140.75447  -4059741.60744  23235695.8204                   23235693.7154
 11  8 22  0 33 30.0000000  0  9G10G12G17G09G05G04G25G02G30
 -27307717.30548 -21266730.08646  21059684.4694                   21059682.7384
 -23729139.26248 -18475006.03246  21104038.8594                   21104036.3634
 -29031615.91046 -22606200.54944  23691001.8914                   23691001.1914
  -9846798.77046  -7657086.35843  24355039.4224                   24355041.3244
 -20767668.03548 -16166808.53446  21360954.3834                   21360953.0824
 -27770819.32047 -21622569.18545  22407244.3834                   22407244.0084
  -5782805.94547  -4490458.01244  23448217.4614                   23448218.9264
 -31554766.80548 -24572196.54746  20732444.5784                   20732440.1764
  -5346337.30947  -4153401.29244  23212823.1724                   23212821.7624
 11  8 22  0 34  0.0000000  0  9G10G12G17G09G05G04G25G02G30
 -27312985.20748 -21270834.94946  21058682.0784                   21058680.4534
 -23802415.57048 -18532104.47046  21090094.8284                   21090092.0204
 -29005084.74646 -22585526.96844  23696050.5784                   23696049.9924
  -9797556.00446  -7618715.48643  24364410.2424                   24364411.8014
 -20874463.20748 -16250025.50346  21340631.5314                   21340630.3444
 -27722651.81247 -21585036.09645  22416410.7114                   22416409.8834
  -5905576.86747  -4586123.62644  23424855.8134                   23424856.0634
 -31576314.31648 -24588986.80846  20728344.4144                   20728339.7384
  -5466171.93747  -4246778.87944  23190019.3984                   23190018.4734
 11  8 22  0 34 30.0000000  0  9G10G12G17G09G05G04G25G02G30
 -27317638.23448 -21274460.66946  21057796.5394                   21057794.8954
 -23875175.46948 -18588800.50846  21076249.1954                   21076246.5824
 -28978374.45746 -22564713.82044  23701133.4534                   23701133.2274
  -9748284.57446  -7580322.28543  24373786.2344                   24373788.0744
 -20980835.13348 -16332912.67246  21320390.2504                   21320388.7114
 -27674424.10547 -21547456.07045  22425588.0394                   22425587.4844
  -6028061.81647  -4681566.43944  23401547.0314                   23401548.6804
 -31597623.30148 -24605591.20446  20724289.1484                   20724285.2664
  -5585640.35247  -4339871.10444  23167284.6024                   23167284.1914
 11  8 22  0 35  0.0000000  0  9G10G12G17G09G05G04G25G02G30
 -27321681.99648 -21277611.65146  21057027.0004                   21057025.2344
 -23947421.78148 -18645096.34946  21062501.5084                   21062498.8874
 -28951489.40246 -22543764.43544  23706249.2504                   23706248.9964
  -9698992.14146  -7541912.72043  24383166.3914                   24383168.6994
 -21086785.89148 -16415471.66046  21300228.1174                   21300226.5314
 -27626142.19147 -21509833.84345  22434775.5234                   22434775.2704
  -6150262.66847  -4776787.84244  23378292.6954                   23378293.9614
 -31618699.41848 -24622014.15246  20720278.7664                   20720274.6724
  -5704744.35546  -4432679.42344  23144620.0474                   23144619.0204
 11  8 22  0 35 30.0000000  0  9G10G12G17G09G05G04G25G02G30
 -27325113.44547 -21280285.50346  21056374.3284                   21056372.5394
 -24019148.59848 -18700987.37546  21048852.1804                   21048849.1094
 -28924424.87146 -22522675.24844  23711399.4384                   23711399.5274
  -9649677.83646  -7503486.15543  24392550.2194                   24392552.9804
 -21192308.99248 -16497697.41246  21280147.5554                   21280146.3164
 -27577803.47347 -21472167.32245  22443974.3984                   22443973.2774
  -6272172.59847  -4871782.59345  23355094.5944                   23355095.4064
 -31639539.55148 -24638253.21446  20716312.8364                   20716308.8164
  -5823476.96547  -4525198.32344  23122026.2584                   23122024.6214
 11  8 22  0 36  0.0000000  0  9G10G12G17G09G05G04G25G02G30
 -27327935.35947 -21282484.37646  21055837.2504                   21055835.4884
 -24090356.31248 -18756473.91746  21035301.5704                   21035299.0704
 -28897182.06646 -22501447.14844  23716583.7974                   23716583.2814
  -9600346.66846  -7465046.39343  24401938.1724                   24401940.4844
 -21297403.68048 -16579589.32946  21260148.9844                   21260147.4264
 -27529411.20347 -21434459.08245  22453183.0944                   22453182.4064
  -6393790.68446  -4966549.87145  23331951.2734                   23331952.6884
 -31660146.66448 -24654310.70046  20712391.4064                   20712387.3014
  -5941837.25047  -4617427.05644  23099502.6484                   23099502.3364
 11  8 22  0 36 30.0000000  0  9G10G12G17G09G05G04G25G02G30
 -27330150.89847 -21284210.75646  21055415.5554                   21055413.7544
 -24161044.95348 -18811555.99146  21021850.0084                   21021847.4804
 -28869762.80146 -22480081.51944  23721801.4384                   23721801.0354
  -9551003.92646  -7426597.63843  24411328.7424                   24411330.5274
 -21402069.61348 -16661147.15446  21240231.1644                   21240230.2194
 -27480969.03147 -21396711.95145  22462401.2344                   22462400.9224
  -6515116.10247  -5061089.17345  23308864.2504                   23308864.5664
 -31680523.92248 -24670189.08946  20708513.5784                   20708509.6644
  -6059824.37547  -4709365.04944  23077051.5234                   23077048.9694
 11  8 22  0 37  0.0000000  0  9G10G12G17G09G05G04G25G02G30
 -27331761.04747 -21285465.41046  21055109.5164                   21055107.7384
 -24231212.71948 -18866232.16546  21008497.5554                   21008495.1174
 -28842166.76646 -22458578.17244  23727053.1094                   23727052.9264
  -9501652.49646  -7388142.13143  24420719.4454                   24420721.9304
 -21506304.18748 -16742368.85546  21220396.3054                   21220395.0004
 -27432478.38347 -21358927.06545  22471628.3754                   22471627.7304
  -6636146.28547  -5155398.36145  23285832.5234                   23285833.6644
 -31700672.61348 -24685889.35847  20704679.3134                   20704675.5044
  -6177435.64147  -4801010.17944  23054669.7344                   23054668.9344
 11  8 22  0 37 30.0000000  0  9G10G12G17G09G05G04G25G02G30
 -27332764.85947 -21286247.59546  21054918.0634                   21054916.2234
 -24300856.12948 -18920499.75546  20995244.8364                   20995242.3134
 -28814391.38746 -22436935.04344  23732338.5394                   23732337.8524
  -9452293.24646  -7349680.51844  24430112.2274                   24430114.7544
 -21610102.78148 -16823250.82646  21200644.0554                   21200642.7304
 -27383938.53547 -21321103.84545  22480865.4224                   22480864.5474
  -6756876.38347  -5249473.70745  23262858.7274                   23262860.7464
 -31720591.74248 -24701410.75846  20700889.0704                   20700885.1214
  -6294666.23847  -4892358.63844  23032362.1414                   23032360.3594
 11  8 22  0 38  0.0000000  0  9G10G12G17G09G05G04G25G02G30
 -27333162.96148 -21286557.79946  21054842.6644                   21054840.5474
 -24369972.56248 -18974356.70346  20982092.3984                   20982089.8324
 -28786435.37146 -22415151.18744  23737658.0394                   23737658.3984
  -9402929.05146  -7311215.04044  24439506.6094                   24439507.8874
 -21713462.82848 -16903791.08046  21180975.0634                   21180973.4304
 -27335350.59847 -21283243.13845  22490111.7274                   22490110.5904
  -6877303.17247  -5343312.68945  23239941.5474                   23239942.7464
 -31740282.28548 -24716754.04246  20697142.3444                   20697137.9804
  -6411512.86347  -4983407.92544  23010127.2274                   23010125.5314
 11  8 22  0 38 30.0000000  0  9G10G12G17G09G05G04G25G02G30
 -27332961.59448 -21286400.88346  21054880.8524                   21054879.2074
 -24438565.84448 -19027806.00346  20969039.6024                   20969037.0664
 -28758304.14146 -22393230.80244  23743011.1724                   23743011.1524
  -9353568.28946  -7272752.25744  24448899.6484                   24448901.9884
 -21816386.89548 -16983991.61346  21161389.3594                   21161387.8284
 -27286721.21947 -21245350.12645  22499365.5234                   22499364.8484
  -6997429.21947  -5436917.37245  23217082.4534                   23217083.3164
 -31759750.50848 -24731924.09046  20693437.4144                   20693433.5784
  -6527977.97747  -5074159.94844  22987964.0234                   22987962.2464
 11  8 22  0 39  0.0000000  0  9G10G12G17G09G05G04G25G02G30
 -27332160.00448 -21285776.25846  21055033.2814                   21055031.3984
 -24506632.32448 -19080844.80946  20956087.0314                   20956084.5164
 -28729994.86746 -22371171.67444  23748398.5004                   23748398.2814
  -9304211.78547  -7234292.71544  24458292.1644                   24458293.7424
 -21918870.59448 -17063849.00346  21141887.2344                   21141886.0704
 -27238049.73447 -21207424.33045  22508627.3284                   22508626.3554
  -7117249.73447  -5530283.92945  23194281.1724                   23194282.9804
 -31778995.39548 -24746920.11346  20689775.3674                   20689771.4534
  -6644056.85247  -5164610.93345  22965874.9534                   22965873.7624
 11  8 22  0 39 30.0000000  0  9G10G12G17G09G05G04G25G02G30
 -27330761.26648 -21284686.32246  21055299.5864                   21055297.5084
 -24574172.26648 -19133473.31146  20943234.3594                   20943231.9884
 -28701509.49646 -22348975.32744  23753819.1564                   23753818.9494
  -9254864.30946  -7195840.28143  24467682.7974                   24467683.7544
 -22020913.41848 -17143362.84146  21122469.1414                   21122467.5784
 -27189339.36347 -21169468.23645  22517897.1174                   22517896.4924
  -7236763.76247  -5623411.73045  23171538.3364                   23171539.5394
 -31798019.82848 -24761744.34746  20686154.7584                   20686150.9414
  -6759748.41847  -5254760.15444  22943859.9534                   22943858.1024
 11  8 22  0 40  0.0000000  0  9G10G12G17G09G05G04G25G02G30
 -27328767.75448 -21283132.92546  21055678.3594                   21055676.9964
 -24641184.93448 -19185690.94846  20930482.6024                   20930479.7464
 -28672848.16046 -22326641.85244  23759273.7424                   23759273.3324
  -9205529.94946  -7157397.99843  24477070.4534                   24477072.8094
 -22122513.75448 -17222531.89346  21103135.1724                   21103133.6604
 -27140592.64547 -21131483.79045  22527172.6024                   22527172.5824
  -7355969.61347  -5716299.32645  23148854.3914                   23148855.6564
 -31816825.85548 -24776398.39846  20682576.1644                   20682572.0634
  -6875051.04747  -5344606.31344  22921918.1884                   22921917.1724
 11  8 22  0 40 30.0000000  0  9G10G12G17G09G05G04G25G02G30
 -27326175.13348 -21281112.69646  21056172.1094                   21056170.7154
 -24707663.36748 -19237492.29846  20917831.7664                   20917829.3874
 -28644004.79346 -22304166.54344  23764761.2344                   23764761.8674
  -9156206.41446  -7118964.16944  24486456.7034                   24486458.4654
 -22223664.00448 -17301350.23646  21083887.1564                   21083885.6724
 -27091805.42247 -21093467.82645  22536456.5234                   22536455.8484
  -7474859.15647  -5808940.45545  23126230.0164                   23126231.7464
 -31835409.40248 -24790879.08146  20679040.1094                   20679036.1134
  -6989956.47747  -5434142.94445  22900052.3674                   22900051.6954
 11  8 22  0 41  0.0000000  0  9G10G12G17G09G05G04G25G02G30
 -27322984.85248 -21278626.74946  21056778.8204                   21056777.6334
 -24773606.10948 -19288876.22946  20905283.7034                   20905281.1374
 -28614979.57446 -22281549.56144  23770284.9534                   23770286.1454
  -9106897.02746  -7080541.41043  24495840.0084                   24495841.6764
 -22324361.96148 -17379816.13146  21064724.4384                   21064723.1604
 -27042979.24647 -21055421.46245  22545748.3834                   22545747.1884
  -7593429.93747  -5901333.23544  23103666.7424                   23103667.2814
 -31853771.96148 -24805187.57246  20675545.6644                   20675541.9064
  -7104462.30147  -5523368.23045  22878262.7344                   22878260.6764
 11  8 22  0 41 30.0000000  0  9G10G12G17G09G05G04G25G02G30
 -27319201.47348 -21275678.65846  21057499.1334                   21057497.5474
 -24839014.73448 -19339843.97146  20892836.5864                   20892834.0824
 -28585775.23446 -22258792.93444  23775842.7034                   23775842.8594
  -9057607.91046  -7042134.39143  24505219.1804                   24505221.6724
 -22424608.50048 -17457930.28046  21045648.5314                   21045646.8244
 -26994118.75847 -21017348.40245  22555046.0864                   22555045.3954
  -7711682.36347  -5993477.93345  23081164.4144                   23081165.9734
 -31871917.53948 -24819326.98046  20672092.9064                   20672088.6804
  -7218568.88747  -5612282.41944  22856548.0784                   22856547.4694
 11  8 22  0 42  0.0000000  0  9G10G12G17G09G05G04G25G02G30
 -27314823.12148 -21272266.94246  21058332.2664                   21058330.5354
 -24903884.64148 -19390391.92546  20880492.2504                   20880489.9734
 -28556388.45746 -22235894.20244  23781435.3134                   23781435.3954
  -9008338.93046  -7003743.05443  24514594.8914                   24514596.1954
 -22524398.09448 -17535688.36146  21026659.1094                   21026657.2424
 -26945222.31247 -20979247.30345  22564350.7344                   22564349.9264
  -7829610.55547  -6085369.96245  23058723.3914                   23058724.8134
 -31889844.40248 -24833295.96746  20668681.1414                   20668677.4224
  -7332270.41447  -5700880.92644  22834912.1954                   22834910.4144
 11  8 22  0 42 30.0000000  0  9G10G12G17G09G05G04G25G02G30
 -27309850.61348 -21268392.26646  21059278.5314                   21059276.8404
 -24968213.43048 -19440518.23246  20868250.6804                   20868248.4964
 -28526818.02747 -22212852.35644  23787062.7114                   23787061.8524
  -8959092.27046  -6965369.20843  24523966.2034                   24523968.4574
 -22623727.71148 -17613088.03046  21007757.3754                   21007755.7194
 -26896290.25447 -20941118.47744  22573662.8674                   22573661.6564
  -7947211.00847  -6177006.63745  23036344.7814                   23036345.6174
 -31907552.61748 -24847094.58346  20665311.5474                   20665307.6254
  -7445563.34847  -5789161.07544  22813352.7034                   22813351.1454
 11  8 22  0 43  0.0000000  0  9G10G12G17G09G05G04G25G02G30
 -27304288.57848 -21264058.20846  21060336.8754                   21060335.2034
 -25032003.39848 -19490224.68746  20856112.2814                   20856109.3204
 -28497067.05946 -22189669.82144  23792723.5864                   23792723.6174
  -8909874.53546  -6927017.81643  24533332.1644                   24533333.8094
 -22722598.75848 -17690130.36646  20988942.6724                   20988941.2154
 -26847327.46147 -20902965.67345  22582979.6414                   22582978.5784
  -8064484.72747  -6268388.70645  23014028.2114                   23014029.2624
 -31925047.12548 -24860726.65746  20661982.5944                   20661978.4614
  -7558448.62947  -5877123.60444  22791871.5314                   22791870.4064
 11  8 22  0 43 30.0000000  0  9G10G12G17G09G05G04G25G02G30
 -27298142.66848 -21259269.18846  21061506.5394                   21061504.7584
 -25095256.94548 -19539513.14446  20844075.3524                   20844072.9224
 -28467139.39846 -22166349.59344  23798417.5634                   23798418.8364
  -8860692.76646  -6888694.45743  24542691.3134                   24542694.0234
 -22821013.15248 -17766816.86446  20970215.0704                   20970213.5004
 -26798339.48047 -20864793.23444  22592301.4614                   22592300.8364
  -8181433.14847  -6359517.28245  22991773.2664                   22991774.3834
 -31942333.18748 -24874196.30746  20658693.2734                   20658689.3754
  -7670927.77347  -5964769.62744  22770467.3444                   22770466.5784
 11  8 22  0 44  0.0000000  0  9G10G12G17G09G05G04G25G02G30
 -27291409.67248 -21254022.70546  21062787.4614                   21062785.9184
 -25157968.04748 -19588378.92946  20832141.5554                   20832139.4304
 -28437029.91046 -22142887.68344  23804148.4924                   23804148.1094
  -8811545.16046  -6850397.79343  24552043.8754                   24552045.7664
 -22918963.39548 -17843141.69846  20951575.7894                   20951574.3914
 -26749323.08247 -20826598.66445  22601629.3594                   22601628.2734
  -8298048.70747  -6450386.50445  22969582.2344                   22969582.6724
 -31959406.89548 -24887500.50046  20655443.9144                   20655440.2074
  -7782993.21547  -6052093.30444  22749141.6954                   22749140.6054
 11  8 22  0 44 30.0000000  0  9G10G12G17G09G05G04G25G02G30
 -27284092.41448 -21248320.95146  21064179.9534                   21064178.6054
 -25220136.19948 -19636821.63546  20820311.5634                   20820309.0204
 -28406739.73846 -22119284.96244  23809911.9384                   23809912.0394
  -8762436.43046  -6812131.42343  24561388.4534                   24561390.1254
 -23016448.82448 -17919104.33246  20933024.9144                   20933023.5274
 -26700280.66847 -20788383.82244  22610962.1884                   22610960.8204
  -8414330.19947  -6540995.42045  22947454.4614                   22947456.2424
 -31976271.15248 -24900641.48446  20652235.3754                   20652230.9414
  -7894643.75847  -6139093.68444  22727895.4774                   22727893.9884
 11  8 22  0 45  0.0000000  0  9G10G12G17G09G05G04G25G02G30
 -27276191.97748 -21242164.76546  21065683.6254                   21065681.8714
 -25281760.96148 -19684840.90046  20808584.8914                   20808582.3674
 -28376267.87546 -22095540.69344  23815710.8524                   23815710.9804
  -8713369.09846  -6773897.17643  24570726.5864                   24570728.8134
 -23113467.46148 -17994703.23746  20914562.7894                   20914561.2774
 -26651213.46947 -20750149.66444  22620299.0234                   22620298.3714
  -8530274.67647  -6631341.70745  22925391.1414                   22925391.2034
 -31992926.55948 -24913619.70746  20649065.7814                   20649061.4224
  -8005876.52347  -6225768.51944  22706728.2114                   22706727.4844
 11  8 22  0 45 30.0000000  0  9G10G12G17G09G05G04G25G02G30
 -27267707.85548 -21235553.76446  21067298.2504                   21067296.3594
 -25342837.85548 -19732433.28846  20796962.2194                   20796959.7384
 -28345612.59046 -22071653.47744  23821544.5554                   23821544.1684
  -8664343.70746  -6735695.70243  24580056.1564                   24580057.2974
 -23210014.77748 -18069934.87446  20896190.4774                   20896188.8794
 -26602120.49247 -20711895.43144  22629641.2734                   22629639.7194
  -8645877.25447  -6721421.62145  22903392.5314                   22903394.0004
 -32009372.41448 -24926434.65646  20645935.9614                   20645931.8714
  -8116686.60947  -6312113.97344  22685642.2814                   22685640.9924
 11  8 22  0 46  0.0000000  0  9G10G12G17G09G05G04G25G02G30
 -27258644.67648 -21228491.55246  21069022.7114                   21069020.8524
 -25403368.64548 -19779600.12846  20785443.6644                   20785440.9534
 -28314776.43746 -22047625.29544  23827412.7584                   23827412.8754
  -8615366.60246  -6697531.83843  24589376.0634                   24589379.0664
 -23306091.30948 -18144799.67546  20877907.6484                   20877906.0434
 -26553006.21547 -20673624.58844  22638987.4694                   22638986.3874
  -8761138.51247  -6811235.50845  22881459.7034                   22881459.9734
 -32025612.74248 -24939089.46346  20642845.5704                   20642841.3524
  -8227074.54347  -6398130.52844  22664636.1804                   22664634.1294
 11  8 22  0 46 30.0000000  0  9G10G12G17G09G05G04G25G02G30
 -27249006.09448 -21220980.98746  21070856.8914                   21070855.0984
 -25463354.37148 -19826342.25246  20774028.5314                   20774026.2624
 -28283761.10546 -22023457.52944  23833314.2734                   23833314.9144
  -8566442.80546  -6659409.58343  24598686.4774                   24598688.2234
 -23401697.17248 -18219297.71846  20859714.3284                   20859712.7234
 -26503873.98447 -20635339.75844  22648336.3674                   22648335.8634
  -8876057.80147  -6900783.00745  22859590.9144                   22859591.4184
 -32041650.69148 -24951586.56746  20639793.6024                   20639789.6524
  -8337039.90247  -6483817.75544  22643710.0704                   22643708.8204
 11  8 22  0 47  0.0000000  0  9G10G12G17G09G05G04G25G02G30
 -27238788.63348 -21213019.33546  21072801.2814                   21072799.1294
 -25522788.37548 -19872654.45946  20762718.6024                   20762716.5314
 -28252560.98046 -21999145.77344  23839251.5784                   23839251.5234
  -8517570.20746  -6621327.17143  24607985.7114                   24607988.6334
 -23496825.16048 -18293423.39846  20841612.0084                   20841610.4454
 -26454719.91447 -20597037.92044  22657690.3594                   22657689.5864
  -8990627.43747  -6990058.03245  22837788.9144                   22837789.7974
 -32057482.48848 -24963923.04046  20636780.6174                   20636776.6054
  -8446574.94947  -6569169.74845  22622867.3284                   22622865.5124
 11  8 22  0 47 30.0000000  0  9G10G12G17G09G05G04G25G02G30
 -27227994.18448 -21204608.07746  21074855.1254                   21074853.6524
 -25581669.80548 -19918536.09646  20751514.1644                   20751511.4694
 -28221176.57846 -21974690.42844  23845223.3054                   23845223.9774
  -8468752.22346  -6583287.29643  24617276.8754                   24617278.9064
 -23591473.38748 -18367175.22547  20823601.2734                   20823599.5314
 -26405545.88347 -20558720.49844  22667047.9844                   22667046.7544
  -9104845.08647  -7079058.71445  22816053.9844                   22816055.4224
 -32073109.53148 -24976099.95946  20633807.3284                   20633803.2154
  -8555677.37547  -6654184.57944  22602105.0554                   22602103.5274
 11  8 22  0 48  0.0000000  0  9G10G12G17G09G05G04G25G02G30
 -27216625.89848 -21195749.67446  21077018.6094                   21077016.9454
 -25639999.31248 -19963987.65446  20740414.1484                   20740411.5744
 -28189609.22746 -21950092.46944  23851230.6024                   23851230.1294
  -8419993.37146  -6545293.52743  24626554.9534                   24626556.7544
 -23685641.80548 -18440553.17946  20805681.7274                   20805680.0394
 -26356354.62147 -20520389.67744  22676408.6334                   22676407.8914
  -9218709.91047  -7167784.54345  22794385.7734                   22794386.1254
 -32088534.93048 -24988119.75946  20630871.8284                   20630868.0514
  -8664346.46147  -6738861.75845  22581425.8524                   22581424.7464
 11  8 22  0 48 30.0000000  0  9G10G12G17G09G05G04G25G02G30
 -27204684.84848 -21186444.97146  21079291.3594                   21079289.4184
 -25697774.57448 -20009007.35146  20729419.8284                   20729417.4924
 -28157857.57446 -21925350.93544  23857273.3914                   23857272.8634
  -8371295.65246  -6507347.48043  24635821.6644                   24635824.1054
 -23779327.35948 -18513554.87546  20787854.2034                   20787852.2584
 -26307146.67647 -20482045.87544  22685773.2034                   22685771.9304
  -9332218.35948  -7256232.67245  22772786.6414                   22772787.2154
 -32103758.93448 -24999982.62646  20627974.6254                   20627970.5394
  -8772578.65647  -6823198.52145  22560830.4534                   22560828.9844
 11  8 22  0 49  0.0000000  0  9G10G12G17G09G05G04G25G02G30
 -27192172.91448 -21176695.41046  21081672.0704                   21081670.2344
 -25754994.89548 -20053594.62046  20718531.3984                   20718528.7384
 -28125921.94946 -21900466.09844  23863350.9694                   23863350.5864
  -8322662.12546  -6469451.39844  24645076.3204                   24645079.0864
 -23872528.19148 -18586178.86447  20770117.9534                   20770116.1764
 -26257923.30547 -20443690.02344  22695139.6954                   22695138.6914
  -9445368.03547  -7344401.19945  22751254.4924                   22751256.1954
 -32118782.46948 -25011689.29146  20625116.0784                   20625111.7544
  -8880371.73047  -6907193.06845  22540317.4304                   22540316.2344
 11  8 22  0 49 30.0000000  0  9G10G12G17G09G05G04G25G02G30
 -27179095.08648 -21166504.90946  21084160.8594                   21084158.7034
 -25811661.87148 -20097750.69846  20707748.2194                   20707745.4024
 -28093805.23846 -21875440.10444  23869462.2424                   23869461.7194
  -8274099.13746  -6431610.27044  24654317.9614                   24654320.7194
 -23965245.44148 -18658426.04846  20752474.6884                   20752472.8594
 -26208689.18047 -20405325.78944  22704508.0164                   22704507.8524
  -9558159.63747  -7432290.74645  22729791.1334                   22729791.1954
 -32133610.20748 -25023243.38446  20622294.2274                   20622290.1954
  -8987726.30947  -6990845.96645  22519888.8204                   22519886.7704
 11  8 22  0 50  0.0000000  0  9G10G12G17G09G05G04G25G02G30
 -27165447.67647 -21155870.55946  21086757.4924                   21086755.8404
 -25867769.19148 -20141470.70246  20697071.0784                   20697068.6214
 -28061501.50846 -21850268.34344  23875609.8054                   23875609.0164
  -8225604.12546  -6393822.13544  24663546.1414                   24663549.1094
 -24057471.90648 -18730290.79446  20734924.5474                   20734922.8554
 -26159440.01647 -20366949.86044  22713880.9454                   22713879.8094
  -9670585.12547  -7519894.98845  22708396.6954                   22708398.3714
 -32148237.67648 -25034641.41146  20619511.0474                   20619506.8364
  -9094634.46947  -7074151.00245  22499544.7814                   22499543.5634
 11  8 22  0 50 30.0000000  0  9G10G12G17G09G05G04G25G02G30
 -25575814.52747 -19917195.37946  21389254.4694                   21389252.8484
 -24347895.64848 -18957153.65946  20986293.4844                   20986290.8674
 -26453593.65646 -20597353.17944  24181584.5394                   24181583.3554
  -6601763.25846  -5128491.76043  24972553.0314                   24972555.5634
 -22573783.89548 -17574170.24246  21017260.8674                   21017259.2664
 -24534760.19547 -19100965.60044  23023046.6804                   23023045.8914
  -8207219.68047  -6379610.20745  22986866.1644                   22986867.1914
 -30587247.08248 -23818285.11646  20916557.5164                   20916553.2624
  -7625671.82047  -5929504.74745  22779078.9224                   22779077.9804
 11  8 22  0 51  0.0000000  0  9G10G12G17G09G05G04G25G02G30
 -25561037.20347 -19905680.58246  21392066.8594                   21392064.9184
 -24402884.43748 -19000002.07846  20975829.4534                   20975826.9694
 -26420919.88746 -20571893.10643  24187801.4454                   24187801.4344
  -6553416.86746  -5090819.43643  24981753.4224                   24981755.9774
 -22665026.13748 -17645268.06546  20999898.0864                   20999896.4144
 -24485488.59047 -19062572.17144  23032422.6334                   23032422.2704
  -8318909.03547  -6466640.83745  22965612.0084                   22965612.9454
 -30601481.55948 -23829376.92846  20913848.6094                   20913844.6604
  -7731683.60247  -6012111.29545  22758905.8524                   22758904.0084
 11  8 22  0 51 30.0000000  0  9G10G12G17G09G05G04G25G02G30
 -25545699.93747 -19893729.48546  21394985.4454                   21394983.7194
 -24457314.66848 -19042415.23946  20965471.6884                   20965469.3054
 -26388062.78546 -20546290.16643  24194053.6564                   24194053.9024
  -6505151.20746  -5053209.96343  24990937.9064                   24990941.3444
 -22755775.88348 -17715982.11847  20982628.7814                   20982627.1334
 -24436209.85247 -19024173.19444  23041800.0634                   23041800.1884
  -8430228.89547  -6553383.58345  22944428.9224                   22944429.5164
 -30615523.85948 -23840318.99546  20911176.5784                   20911172.3484
  -7837245.85247  -6094367.55244  22738817.3754                   22738815.9574
 11  8 22  0 52  0.0000000  0  8G10G12G17G05G04G25G02G30
 -25529802.59848 -19881341.92946  21398010.9844                   21398008.5864
 -24511182.68048 -19084390.31846  20955221.2424                   20955218.3014
 -26355020.73046 -20520543.14544  24200341.7734                   24200341.8404
 -22846029.14148 -17786309.31047  20965454.2194                   20965452.6764
 -24386923.29347 -18985768.14044  23051179.3754                   23051179.4884
  -8541174.58247  -6639834.73245  22923316.8674                   22923317.8164
 -30629372.95348 -23851110.50446  20908541.2664                   20908537.3554
  -7942354.07847  -6176270.06145  22718816.4384                   22718815.1994
 11  8 22  0 52 30.0000000  0  8G10G12G17G05G04G25G02G30
 -25513343.48448 -19868516.64746  21401142.3364                   21401140.8874
 -24564484.54748 -19125924.24346  20945078.0084                   20945075.4184
 -26321789.69546 -20494648.87944  24206665.9144                   24206666.0904
 -22935780.35548 -17856245.29947  20948375.1884                   20948373.6254
 -24337626.37147 -18947354.97844  23060560.0704                   23060559.5904
  -8651740.05147  -6725989.63145  22902276.8204                   22902277.5864
 -30643026.25048 -23861749.44746  20905942.9534                   20905939.1334
  -8047002.24247  -6257814.04345  22698902.6254                   22698900.9104
 11  8 22  0 53  0.0000000  0  8G10G12G17G05G04G25G02G30
 -25496320.74247 -19855252.18346  21404381.7584                   21404380.3134
 -24617215.40248 -19167013.22446  20935043.6024                   20935041.0124
 -26288365.61346 -20468604.13643  24213025.7894                   24213025.3134
 -23025023.99248 -17925785.76746  20931392.6174                   20931391.0664
 -24288316.66047 -18908931.86544  23069943.8284                   23069943.5554
  -8761919.05547  -6811843.38445  22881310.7584                   22881310.8484
 -30656481.29348 -23872233.90246  20903382.6174                   20903378.7854
  -8151184.33647  -6338994.88145  22679076.7194                   22679076.1054
 11  8 22  0 53 30.0000000  0  8G10G12G17G05G04G25G02G30
 -25478734.43047 -19841548.56146  21407728.8444                   21407726.5084
 -24669372.74648 -19207655.30846  20925118.3524                   20925115.9104
 -26254746.98846 -20442407.88044  24219423.3134                   24219423.1094
 -23113756.77348 -17994928.15346  20914507.5084                   20914505.8444
 -24238993.95347 -18870498.62244  23079329.5634                   23079328.7774
  -8871707.51647  -6897392.83245  22860418.2894                   22860419.4144
 -30669737.55148 -23882563.46746  20900860.0474                   20900856.0394
  -8254896.13347  -6419809.25045  22659340.8284                   22659340.5394
 11  8 22  0 54  0.0000000  0  8G10G12G17G05G04G25G02G30
 -25460589.88347 -19827409.95746  21411181.1094                   21411179.4184
 -24720958.47348 -19247851.98046  20915301.9774                   20915299.1884
 -26220936.95346 -20416062.43143  24225857.1254                   24225857.1724
 -23201979.79748 -18063673.34046  20897719.0004                   20897717.3794
 -24189662.24247 -18832058.34944  23088717.3754                   23088716.0434
  -8981106.03147  -6982638.39045  22839600.6564                   22839601.3404
 -30682799.33248 -23892741.48346  20898374.5784                   20898370.7504
  -8358138.59447  -6500257.89645  22639695.5234                   22639694.0554
 11  8 22  0 54 30.0000000  0  8G10G12G17G05G04G25G02G30
 -25441894.39847 -19812842.05046  21414738.7274                   21414737.3054
 -24771977.10948 -19287606.76346  20905593.5164                   20905590.7774
 -26186940.25046 -20389571.53744  24232326.6484                   24232326.2464
 -23289696.68748 -18132024.13747  20881027.0234                   20881025.2814
 -24140327.93446 -18793616.07344  23098105.2344                   23098104.0474
  -9090117.32847  -7067582.25245  22818856.4304                   22818857.2194
 -30695672.98848 -23902772.92646  20895924.5634                   20895920.2814
  -8460914.50047  -6580343.00045  22620137.8674                   22620136.1724
 11  8 22  0 55  0.0000000  0  8G10G12G17G05G04G25G02G30
 -25422645.78947 -19797843.14046  21418401.8754                   21418399.8404
 -24822423.83648 -19326915.89546  20895993.9384                   20895991.4344
 -26152752.90646 -20362932.08244  24238831.9304                   24238832.1804
 -23376901.43048 -18199975.85946  20864432.5554                   20864430.9144
 -24090988.39547 -18755169.68244  23107493.9844                   23107493.4104
  -9198734.93447  -7152219.34445  22798187.5084                   22798188.0044
 -30708355.84048 -23912655.67046  20893511.1954                   20893507.4694
  -8563217.50447  -6660059.61545  22600669.9064                   22600667.6564
 11  8 22  0 55 30.0000000  0  8G10G12G17G05G04G25G02G30
 -25402851.98847 -19782419.39646  21422168.5944                   21422166.9804
 -24872303.62548 -19365783.25946  20886502.0704                   20886499.3094
 -26118380.85946 -20336148.69944  24245372.7344                   24245373.9064
 -23463598.29748 -18267531.83247  20847934.4614                   20847932.9844
 -24041650.60547 -18716724.66444  23116882.6804                   23116882.0434
  -9306962.35547  -7236552.36845  22777592.2664                   22777592.5394
 -30720854.91048 -23922395.21646  20891132.5704                   20891128.7424
  -8665051.25047  -6739410.57245  22581291.2664                   22581290.3754
 11  8 22  0 56  0.0000000  0  8G10G12G17G05G04G25G02G30
 -25382516.30547 -19766573.43446  21426037.3284                   21426036.1914
 -24921616.75848 -19404209.08446  20877117.9534                   20877115.4384
 -26083825.11746 -20309222.16444  24251948.9384                   24251948.4104
 -23549786.75848 -18334691.64647  20831533.3984                   20831532.0004
 -23992316.63346 -18678282.63344  23126270.9924                   23126270.4694
  -9414798.11347  -7320580.21945  22757071.6484                   22757071.9964
 -30733172.27048 -23931993.17146  20888789.0234                   20888784.9144
  -8766414.40247  -6818394.82145  22562003.0164                   22562001.6564
 11  8 22  0 56 30.0000000  0  8G10G12G17G05G04G25G02G30
 -25361641.57447 -19750307.41446  21430010.5084                   21430009.0664
 -24970363.46948 -19442193.53246  20867841.9304                   20867839.0634
 -26049086.27346 -20282152.94744  24258560.0864                   24258559.8794
 -23635466.03948 -18401454.68946  20815229.1804                   20815227.2504
 -23942988.86347 -18639845.41144  23135657.1724                   23135656.4924
  -9522240.79747  -7404301.78845  22736625.7814                   22736626.4264
 -30745310.36748 -23941451.43446  20886479.0474                   20886475.2934
  -8867305.73447  -6897011.45344  22542803.8674                   22542802.2154
 11  8 22  0 57  0.0000000  0  8G10G12G17G05G04G25G02G30
 -25340226.31247 -19733620.20346  21434085.3444                   21434084.0204
 -25018539.50848 -19479733.30646  20858674.1414                   20858671.7664
 -26014161.10246 -20254938.51344  24265205.5704                   24265205.5124
 -23720630.62548 -18467816.67747  20799022.7194                   20799021.2624
 -23893664.77746 -18601411.08944  23145043.7194                   23145043.1454
  -9629284.47347  -7487712.41445  22716255.9224                   22716257.1134
 -30757266.59448 -23950767.99546  20884204.0314                   20884199.6214
  -8967719.37947  -6975255.83045  22523695.8054                   22523694.1374
 11  8 22  0 57 30.0000000  0  8G10G12G17G05G04G25G02G30
 -25318274.14147 -19716514.63046  21438263.1804                   21438261.3054
 -25066145.27348 -19516828.70946  20849615.0314                   20849612.3634
 -25979050.81646 -20227579.90544  24271886.3054                   24271886.6604
 -23805280.44148 -18533777.56047  20782914.5554                   20782912.8834
 -23844346.56646 -18562981.32544  23154428.5164                   23154427.8014
  -9735927.87547  -7570811.16745  22695962.5234                   22695963.0394
 -30769043.23048 -23959944.61546  20881962.8284                   20881958.9804
  -9067654.34047  -7053127.21345  22504678.4614                   22504677.2074
 11  8 22  0 58  0.0000000  0  8G10G12G17G05G04G25G02G30
 -25295788.52048 -19698993.36845  21442541.7974                   21442540.2774
 -25113181.47348 -19553480.30246  20840664.4304                   20840661.4734
 -25943756.87546 -20200078.14244  24278603.4454                   24278603.1724
 -23889415.54748 -18599337.34447  20766904.3984                   20766902.1414
 -23795037.44946 -18524558.65244  23163811.9064                   23163810.0594
  -9842170.32447  -7653597.48845  22675745.4384                   22675745.8204
 -30780643.13748 -23968983.51946  20879755.8284                   20879751.6604
  -9167110.00447  -7130625.14945  22485753.4924                   22485751.2544
 11  8 22  0 58 30.0000000  0  8G10G12G17G05G04G25G02G30
 -25272767.76647 -19681055.12246  21446922.6564                   21446920.8244
 -25159643.67648 -19589684.61046  20831823.0704                   20831820.4884
 -25908275.14847 -20172430.04644  24285355.1024                   24285354.5664
 -23973030.28148 -18664491.66247  20750992.8444                   20750991.0554
 -23745734.22746 -18486140.55744  23173193.4304                   23173192.1134
  -9948005.42247  -7736066.36445  22655605.6644                   22655606.2114
 -30792063.72748 -23977882.69346  20877582.2344                   20877578.2814
  -9266080.19147  -7207744.76145  22466920.0314                   22466917.6564
 11  8 22  0 59  0.0000000  0  8G10G12G17G05G04G25G02G30
 -25249216.16847 -19662703.23646  21451404.3914                   21451402.9384
 -25205533.34048 -19625442.79046  20823090.2814                   20823088.0124
 -25872607.94546 -20144637.41844  24292141.8754                   24292141.9184
 -24056125.03948 -18729240.80047  20735180.5474                   20735178.7034
 -23696440.12146 -18447729.55544  23182574.3134                   23182573.0784
 -10053432.80547  -7818217.56345  22635543.1414                   22635544.5634
 -30803308.34848 -23986644.74646  20875442.6334                   20875438.7234
  -9364564.72747  -7284485.94645  22448178.8834                   22448176.9964
 11  8 22  0 59 30.0000000  0  8G10G12G17G05G04G25G02G30
 -25225133.68747 -19643937.67546  21455987.0554                   21455985.3364
 -25250847.46148 -19660752.50146  20814467.5314                   20814464.9734
 -25836752.71946 -20116698.32944  24298964.6414                   24298965.8594
 -24138696.11748 -18793581.86747  20719467.6094                   20719465.8324
 -23647153.93746 -18409324.80144  23191953.1484                   23191951.8244
 -10158447.96147  -7900047.53445  22615560.1414                   22615560.6454
 -30814375.34848 -23995268.39446  20873336.5394                   20873332.3834
  -9462559.24647  -7360845.28045  22429530.4694                   22429529.4144
 11  8 22  1  0  0.0000000  0  8G10G12G17G05G04G25G02G30
 -25200523.41848 -19624760.85046  21460670.5784                   21460668.7114
 -25295586.27048 -19695613.92546  20805953.8754                   20805951.6454
 -25800710.56646 -20088613.51644  24305823.4844                   24305823.8134
 -24220742.54748 -18857514.12547  20703854.6884                   20703852.9454
 -23597877.75847 -18370927.77644  23201330.0164                   23201329.2464
 -10263049.21548  -7981554.98845  22595655.1174                   22595655.5594
 -30825266.86748 -24003755.30446  20871263.9924                   20871260.3554
  -9560062.39147  -7436821.73045  22410976.2734                   22410975.0204
 11  8 22  1  0 30.0000000  0  8G10G12G17G05G04G25G02G30
 -25175391.06647 -19605177.21845  21465452.5474                   21465451.1994
 -25339752.55548 -19730029.21746  20797549.6484                   20797546.6684
 -25764485.13746 -20060385.91644  24312717.3204                   24312717.3794
 -24302266.72748 -18921039.42347  20688341.2114                   20688339.3404
 -23548616.12547 -18332542.11344  23210704.5314                   23210704.2194
 -10367237.96547  -8062741.02945  22575828.2734                   22575828.5124
 -30835987.37948 -24012108.96546  20869223.7584                   20869220.1024
  -9657075.56247  -7512416.41545  22392515.2584                   22392514.1844
 11  8 22  1  1  0.0000000  0  8G10G12G17G05G04G25G02G30
 -25149735.81647 -19585186.11446  21470334.9534                   21470333.4304
 -25383343.05548 -19763995.85846  20789254.5164                   20789251.7464
 -25728073.07846 -20032012.86043  24319646.3284                   24319645.7974
 -24383263.93748 -18984154.11147  20672927.8444                   20672926.4144
 -23499366.96547 -18294166.18544  23220075.7584                   23220075.5514
 -10471008.65247  -8143601.27345  22556081.4924                   22556082.1684
 -30846535.26648 -24020328.11246  20867216.8134                   20867212.7304
  -9753593.58647  -7587625.24845  22374148.9064                   22374147.4614
 11  8 22  1  1 30.0000000  0  8G10G12G17G05G04G25G02G30
 -25123563.05947 -19564791.77446  21475315.0554                   21475313.2704
 -25426360.30148 -19797515.80046  20781068.7424                   20781066.2544
 -25691477.71146 -20003497.00743  24326609.6174                   24326610.3134
 -24463735.88348 -19046859.50647  20657614.7034                   20657612.6094
 -23450134.73447 -18255803.44644  23229444.7814                   23229444.2424
 -10574362.23447  -8224136.53145  22536413.7894                   22536414.1954
 -30856915.43748 -24028416.56846  20865241.4534                   20865237.6374
  -9849617.50047  -7662449.04445  22355876.1174                   22355874.7624
 11  8 22  1  2  0.0000000  0  8G10G12G17G05G04G25G02G30
 -25096873.15247 -19543994.45646  21480394.5474                   21480392.5554
 -25468801.99648 -19830587.25346  20772992.0084                   20772989.9264
 -25654696.99646 -19974836.76443  24333608.5554                   24333609.5474
 -24543679.11748 -19109152.89347  20642401.7734                   20642399.8484
 -23400918.12146 -18217452.85644  23238810.4454                   23238809.7504
 -10677294.26247  -8304343.29745  22516826.6254                   22516827.2974
 -30867126.12548 -24036372.95246  20863298.4774                   20863294.3484
  -9945143.00047  -7736884.49745  22337698.2584                   22337696.5164
 11  8 22  1  2 30.0000000  0  8G10G12G17G05G04G25G02G30
 -25069669.00048 -19522796.43145  21485571.1954                   21485569.1844
 -25510668.04748 -19863210.16046  20765025.1484                   20765022.8914
 -25617731.90646 -19946032.83243  24340644.5394                   24340643.9184
 -24623092.96148 -19171033.78747  20627289.5634                   20627287.8094
 -23351719.26646 -18179116.08644  23248172.3594                   23248171.8794
 -10779803.31647  -8384220.45645  22497319.4614                   22497319.9774
 -30877169.49248 -24044198.96146  20861387.3054                   20861383.2774
 -10040168.99647  -7810930.71145  22319615.0864                   22319613.7234
 11  8 22  1  3  0.0000000  0  9G10G12G17G29G05G04G25G02G30
 -25041950.39147 -19501197.53045  21490845.7504                   21490844.1254
 -25551955.71948 -19895382.38946  20757168.5944                   20757166.2624
 -25580579.92246 -19917083.27543  24347713.1954                   24347713.3484
   4563512.10557   3566133.61254  24628943.0864                   24628942.2234
 -24701973.43748 -19232499.06447  20612279.4534                   20612277.5474
 -23302536.50046 -18140791.93944  23257531.7664                   23257531.5204
 -10881884.52347  -8463764.23145  22477894.1024                   22477894.9384
 -30887044.07848 -24051893.45146  20859508.2504                   20859504.0864
 -10134690.91047  -7884584.11845  22301628.3054                   22301626.8674
 11  8 22  1  3 30.0000000  0  9G10G12G17G29G05G04G25G02G30
 -25013728.12147 -19479206.17446  21496216.4694                   21496214.7074
 -25592672.86347 -19927110.05246  20749420.1484                   20749418.1684
 -25543249.57846 -19887994.69043  24354816.6414                   24354817.1844
   4451200.79347   3478618.36844  24607570.7974                   24607570.3594
 -24780327.52748 -19293554.16647  20597369.1484                   20597367.0904
 -23253379.27046 -18102487.62744  23266886.1094                   23266885.4884
 -10983543.99647  -8542979.39845  22458549.3524                   22458549.3484
 -30896759.42247 -24059463.85246  20857659.6024                   20857655.6684
 -10228714.91047  -7957849.57045  22283736.2664                   22283734.9804
 11  8 22  1  4  0.0000000  0  9G10G12G17G29G05G04G25G02G30
 -24985008.84847 -19456827.53346  21501681.2194                   21501679.8954
 -25632823.34847 -19958396.16546  20741779.8204                   20741777.3484
 -25505745.19146 -19858770.51243  24361953.7114                   24361954.1484
   4338796.77047   3391030.86144  24586181.6564                   24586180.2854
 -24858158.28548 -19354201.48247  20582558.1884                   20582556.6524
 -23204252.83246 -18064207.31144  23276234.2114                   23276233.8674
 -11084783.75447  -8621867.50745  22439283.4844                   22439284.4344
 -30906320.89848 -24066914.36046  20855840.2274                   20855836.1374
 -10322243.43747  -8030728.91945  22265938.2194                   22265936.7974
 11  8 22  1  4 30.0000000  0  9G10G12G17G29G05G04G25G02G30
 -24955789.50447 -19434059.23445  21507241.6334                   21507240.1564
 -25672400.98048 -19989235.88746  20734248.7664                   20734246.0864
 -25468061.14546 -19829406.37243  24369124.4614                   24369125.1024
   4226306.09447   3303375.83744  24564775.2114                   24564774.9104
 -24935458.80548 -19414435.62847  20567848.6334                   20567846.7074
 -23155152.85246 -18025947.57144  23285577.5314                   23285577.5664
 -11185595.87947  -8700422.38545  22420099.9924                   22420100.5744
 -30915724.08248 -24074241.51046  20854050.9224                   20854046.4384
 -10415268.65647  -8103216.08145  22248236.2814                   22248234.7774
 11  8 22  1  5  0.0000000  0  9G10G12G17G29G05G04G25G02G30
 -24926068.57448 -19410900.08145  21512897.1484                   21512895.7774
 -25711402.03148 -20019626.31446  20726826.8134                   20726824.4104
 -25430193.77746 -19799899.34543  24376330.9614                   24376331.0394
   4113732.92647   3215656.55044  24543353.2734                   24543352.1454
 -25012223.81648 -19474252.48947  20553240.5164                   20553238.3554
 -23106075.97346 -17987705.96544  23294916.4844                   23294916.6094
 -11285974.34447  -8778639.33945  22400998.4694                   22400998.2154
 -30924966.06648 -24081443.06346  20852291.9144                   20852287.8794
 -10507784.75047  -8175306.54745  22230630.8134                   22230628.9654
 11  8 22  1  5 30.0000000  0  9G10G12G17G29G05G04G25G02G30
 -24895846.90647 -19387350.74345  21518648.4454                   21518646.7624
 -25749824.47748 -20049565.89546  20719515.2034                   20719513.1174
 -25392141.69546 -19770248.35543  24383571.5474                   24383572.9264
   4001079.39547   3127874.57244  24521915.7814                   24521914.2544
 -25088450.64548 -19533650.00047  20538735.3594                   20538733.0234
 -23057022.20746 -17949482.29944  23304251.5704                   23304251.1254
 -11385915.59047  -8856515.62545  22381980.1564                   22381980.1644
 -30934046.84848 -24088518.99546  20850564.0784                   20850559.8954
 -10599788.63747  -8246997.84945  22213123.0314                   22213121.5514
 11  8 22  1  6  0.0000000  0  9G10G12G17G29G05G04G25G02G30
 -24865125.35247 -19363411.88045  21524494.2734                   21524492.5514
 -25787666.66447 -20079053.33046  20712314.3914                   20712311.7274
 -25353903.69946 -19740452.56143  24390848.3284                   24390848.8014
   3888347.33247   3040031.45444  24500463.2664                   24500463.3754
 -25164136.70748 -19592626.12347  20524332.6024                   20524330.7664
 -23007991.03546 -17911276.20744  23313582.0164                   23313581.1414
 -11485415.96947  -8934048.35545  22363045.8284                   22363046.2814
 -30942966.08648 -24095469.04046  20848866.6804                   20848863.0314
 -10691276.73847  -8318287.26145  22195713.3524                   22195711.7814
 11  8 22  1  6 30.0000000  0  9G10G12G17G29G05G04G25G02G30
 -24833906.19947 -19339085.28045  21530435.5084                   21530433.5044
 -25824927.72347 -20108087.92647  20705223.8914                   20705221.2664
 -25315479.36747 -19710511.60043  24398160.4614                   24398161.0124
   3775537.53946   2952127.74043  24478996.1094                   24478996.2344
 -25239280.30148 -19651179.54547  20510033.0784                   20510031.2734
 -22958982.85547 -17873088.08244  23322907.5314                   23322907.6174
 -11584472.83247  -9011235.48945  22344195.9304                   22344196.2544
 -30951724.49248 -24102293.77646  20847200.3054                   20847196.1134
 -10782246.73047  -8389172.94245  22178402.4774                   22178400.4064
 11  8 22  1  7  0.0000000  0  9G10G12G17G29G05G04G25G02G30
 -24802196.67247 -19314376.57345  21536469.4844                   21536467.6804
 -25861612.75448 -20136673.66746  20698243.0784                   20698240.3914
 -25276873.81646 -19680429.32943  24405506.9534                   24405506.7034
   3662646.04346   2864160.39243  24457514.3524                   24457512.9964
 -25313885.02048 -19709313.07947  20495836.2274                   20495834.5664
 -22910003.64846 -17834922.50344  23332228.9454                   23332228.0984
 -11683088.70747  -9088078.99045  22325429.9454                   22325431.2304
 -30960327.66048 -24108997.54346  20845562.7894                   20845558.5864
 -10872701.47347  -8459657.14145  22161189.3674                   22161187.6804
 11  8 22  1  7 30.0000000  0  9G10G12G17G29G05G04G25G02G30
 -24769989.32847 -19289279.94745  21542598.5864                   21542596.9804
 -25897711.32448 -20164802.42846  20691373.4384                   20691371.1994
 -25238077.39547 -19650198.34944  24412890.3524                   24412889.9654
   3549682.94546   2776137.25643  24436017.5394                   24436016.9224
 -25387939.82448 -19767018.08647  20481744.0634                   20481742.0704
 -22861044.36347 -17796772.43144  23341545.6414                   23341544.7234
 -11781251.65247  -9164569.55445  22306750.2274                   22306750.7344
 -30968766.87548 -24115573.55346  20843956.9144                   20843953.0554
 -10962629.17247  -8529730.62745  22144076.9454                   22144074.9494
 11  8 22  1  8  0.0000000  0  9G10G12G17G29G05G04G25G02G30
 -24737289.43047 -19263799.53145  21548821.0864                   21548819.4024
 -25933226.00848 -20192476.20946  20684615.2114                   20684612.6414
 -25199092.97347 -19619820.89244  24420307.8444                   24420308.4304
   3436646.26646   2688056.72743  24414506.9924                   24414506.0084
 -25461446.26648 -19824295.81547  20467756.3524                   20467754.2854
 -22812108.58247 -17758640.67844  23350856.6564                   23350856.9924
 -11878962.30547  -9240707.70545  22288156.3444                   22288156.4964
 -30977046.08648 -24122024.88946  20842381.4064                   20842377.3134
 -11052030.83247  -8599394.26445  22127064.3204                   22127062.2194
 11  8 22  1  8 30.0000000  0  9G10G12G17G29G05G04G25G02G30
 -24704100.73047 -19237938.21445  21555136.6094                   21555134.9104
 -25968158.02748 -20219695.96546  20677967.8524                   20677965.3554
 -25159921.80547 -19589297.91044  24427761.8054                   24427762.0164
   3323535.21946   2599918.25843  24392983.1414                   24392981.9224
 -25534404.71548 -19881146.53347  20453872.6724                   20453870.9184
 -22763198.85547 -17720529.26744  23360164.8524                   23360164.6374
 -11976219.81247  -9316492.75145  22269648.8284                   22269649.1484
 -30985167.74248 -24128353.44646  20840836.1334                   20840831.9454
 -11140905.98447  -8668647.58245  22110151.9454                   22110150.2704
 11  8 22  1  9  0.0000000  0  8G10G12G29G05G04G25G02G30
 -24670426.80947 -19211698.79145  21561544.7344                   21561543.1134
 -26002507.67248 -20246461.91446  20671431.4064                   20671429.1174
   3210349.51646   2511721.60743  24371443.8364                   24371443.3444
 -25606814.49648 -19937569.72147  20440093.6804                   20440091.6684
 -22714316.86347 -17682439.39344  23369467.2274                   23369465.8984
 -12073022.84447  -9391923.65445  22251227.3364                   22251228.0164
 -30993133.91048 -24134560.85046  20839319.8204                   20839315.9384
 -11229253.41047  -8737489.69245  22093339.7034                   22093337.7384
 11  8 22  1  9 30.0000000  0  8G10G12G29G05G04G25G02G30
 -24636266.73448 -19185080.56845  21568045.0084                   21568043.3714
 -26036272.38347 -20272772.09046  20665006.1884                   20665003.9104
   3097093.04746   2423469.89443  24349891.5554                   24349891.4064
 -25678671.52348 -19993562.18547  20426419.6884                   20426417.9574
 -22665460.07847 -17644369.23344  23378763.7814                   23378763.0784
 -12169365.97347  -9466996.19445  22232894.3444                   22232895.0704
 -31000942.18748 -24140645.21446  20837834.0944                   20837830.1134
 -11317068.07047  -8805916.68345  22076629.3754                   22076626.9924
 11  8 22  1 10  0.0000000  0  8G10G12G29G05G04G25G02G30
 -24601613.71947 -19158078.21145  21574639.2424                   21574637.5204
 -26069442.42248 -20298618.86746  20658693.9454                   20658691.5824
   2983775.70746   2335170.67743  24328329.3834                   24328327.3594
 -25749965.40648 -20049115.82747  20412853.0474                   20412850.6214
 -22616620.22346 -17606312.22644  23388057.8444                   23388057.0434
 -12265237.80547  -9541701.46846  22214650.7344                   22214651.3284
 -31008584.08248 -24146599.92846  20836379.9304                   20836376.1134
 -11404338.82047  -8873919.84245  22060022.0234                   22060020.7274
 11  8 22  1 10 30.0000000  0  8G10G12G29G05G04G25G02G30
 -24566472.14147 -19130695.18345  21581326.5234                   21581324.6454
 -26102019.41448 -20324003.53646  20652494.8834                   20652492.2424
   2870396.25046   2246823.09643  24306754.3204                   24306752.9184
 -25820696.92648 -20104231.28847  20399393.2974                   20399391.1134
 -22567799.80147 -17568270.38444  23397348.2894                   23397347.1484
 -12360638.08248  -9616039.34046  22196496.7114                   22196496.7584
 -31016062.69548 -24152427.41246  20834956.8594                   20834952.8754
 -11491065.73847  -8941499.24345  22043518.4224                   22043516.6764
 11  8 22  1 11  0.0000000  0  8G10G12G29G05G04G25G02G30
 -24530844.83247 -19102933.65545  21588106.1954                   21588104.2624
 -26134003.49648 -20348926.19446  20646408.4844                   20646405.9104
   2756955.07046   2158427.43143  24285166.7194                   24285164.6884
 -25890865.38348 -20158907.99047  20386040.6334                   20386038.2624
 -22519000.30946 -17530244.84944  23406633.8364                   23406633.9184
 -12455565.09048  -9690008.40945  22178432.6334                   22178432.8674
 -31023379.49248 -24158128.81046  20833564.4454                   20833560.7304
 -11577247.49647  -9008653.83445  22027118.5474                   22027116.9654
 11  8 22  1 11 30.0000000  0  8G10G12G29G05G04G25G02G30
 -24494738.99647 -19074799.24045  21594976.6484                   21594975.0634
 -26165399.52048 -20373390.62346  20640433.8674                   20640431.4454
   2643448.17646   2069980.52543  24263566.4844                   24263565.5944
 -25960474.13748 -20213148.54847  20372794.2734                   20372792.4734
 -22470226.80547 -17492239.52144  23415915.3914                   23415914.6254
 -12550021.18447  -9763610.56345  22160458.2584                   22160459.0594
 -31030539.94148 -24163708.37446  20832201.4534                   20832197.6254
 -11662886.67247  -9075385.64245  22010822.1254                   22010820.3914
 11  8 22  1 12  0.0000000  0  8G10G12G29G05G04G25G02G30
 -24458157.05547 -19046293.82545  21601938.3204                   21601936.4384
 -26196207.16847 -20397396.57946  20634571.4844                   20634569.1484
   2529876.21946   1981482.95644  24241954.3364                   24241953.7664
 -26029522.14848 -20266952.17547  20359654.8524                   20359652.9024
 -22421480.17647 -17454255.15244  23425191.4384                   23425191.1294
 -12644004.21947  -9836844.07046  22142573.6804                   22142574.1484
 -31037544.85548 -24169166.74546  20830869.0704                   20830864.7344
 -11747981.55547  -9141693.33145  21994628.8134                   21994627.3404
 11  8 22  1 12 30.0000000  0  8G10G12G29G05G04G25G02G30
 -24421102.85547 -19017420.43145  21608989.4454                   21608987.4804
 -26226427.83248 -20420945.14646  20628820.4534                   20628818.4694
   2416238.71546   1892934.26544  24220329.8054                   24220329.2894
 -26098009.63348 -20320319.01947  20346622.0864                   20346620.0514
 -22372762.56247 -17416293.42944  23434462.0944                   23434462.0474
 -12737513.44947  -9909708.39445  22124779.5394                   22124779.6954
 -31044396.66047 -24174505.81246  20829564.7274                   20829561.2114
 -11832531.66847  -9207576.52145  21978539.1724                   21978537.9964
 11  8 22  1 13  0.0000000  0  8G10G12G29G05G04G25G02G30
 -24383582.37147 -18988183.69245  21616129.7274                   21616127.6414
 -26256065.03148 -20444039.07746  20623181.3914                   20623178.7344
   2302533.18446   1804332.58944  24198692.4384                   24198691.3364
 -26165939.53548 -20373251.39347  20333695.4144                   20333693.6214
 -22324078.18747 -17378357.54344  23443726.5164                   23443726.4804
 -12830550.22347  -9982204.57446  22107075.3524                   22107075.4384
 -31051099.98847 -24179729.18346  20828289.3754                   20828285.2544
 -11916538.70347  -9273036.53845  21962553.3594                   21962551.8874
 11  8 22  1 13 30.0000000  0  8G10G12G29G05G04G25G02G30
 -24345600.07447 -18958587.10145  21623357.4144                   21623355.4104
 -26285120.44548 -20466679.66046  20617651.7894                   20617649.7894
   2188758.21546   1715676.87044  24177041.5234                   24177041.7704
 -26233312.25448 -20425749.59847  20320875.0084                   20320872.9414
 -22275429.59047 -17340449.56444  23452983.7424                   23452983.7704
 -12923114.29748 -10054332.42546  22089461.1174                   22089460.3404
 -31057657.21947 -24184838.71246  20827041.6484                   20827037.5354
 -12000002.77747  -9338073.48445  21946671.0634                   21946669.1524
 11  8 22  1 14  0.0000000  0  8G10G12G29G05G04G25G02G30
 -24307157.19147 -18928631.61245  21630672.4224                   21630671.1724
 -26313592.87148 -20488865.97246  20612233.8364                   20612231.5434
   2074915.97346   1626968.66044  24155378.3284                   24155377.4614
 -26300125.62148 -20477811.93947  20308160.8284                   20308158.6564
 -22226816.27747 -17302569.08044  23462235.3984                   23462234.6174
 -13015202.32047 -10126089.32145  22071936.7034                   22071936.9734
 -31064068.16848 -24189834.26346  20825821.9454                   20825817.7464
 -12082920.90247  -9402685.00245  21930892.0634                   21930890.2304
 11  8 22  1 14 30.0000000  0  8G10G12G29G05G04G25G02G30
 -22692836.07847 -17670719.05845  21937867.8364                   21937865.8524
 -24766059.90648 -19282996.14146  20906719.3754                   20906716.8524
   3536432.59446   2765812.83344  24433494.8524                   24433495.2814
 -24790954.79748 -19301834.65347  20595346.4384                   20595344.3404
 -20602818.77747 -16037116.48144  23771271.7344                   23771270.6644
 -11531387.42247  -8969869.91445  22354297.4844                   22354297.5004
 -29494911.66448 -22967114.89446  21124422.3134                   21124418.2034
 -10589866.93047  -8239266.32245  22215010.9144                   22215008.8054
 11  8 22  1 15  0.0000000  0  8G10G12G29G05G04G25G02G30
 -22653477.89847 -17640050.34445  21945357.0394                   21945355.8674
 -24793364.36748 -19304272.34846  20901523.7034                   20901521.1764
   3422460.24646   2677003.27844  24411807.1334                   24411806.4064
 -24856644.49648 -19353021.41547  20582846.2194                   20582844.0554
 -20554275.91847 -15999290.85844  23780508.7344                   23780508.4734
 -11622514.90647  -9040878.34545  22336956.4224                   22336956.7344
 -29501030.64148 -22971882.93346  21123257.9924                   21123253.9884
 -10671685.89847  -8303021.35845  22199441.1484                   22199439.6484
 11  8 22  1 15 30.0000000  0  8G10G12G29G05G04G25G02G30
 -22613665.52347 -17609027.70145  21952932.9534                   21952931.1764
 -24820085.33248 -19325093.88646  20896439.0234                   20896436.2194
   3308424.12546   2588144.01544  24390107.5474                   24390106.5164
 -24921771.18747 -19403769.45547  20570452.9144                   20570450.8484
 -20505769.36747 -15961493.59644  23789739.4064                   23789739.0554
 -11713159.08647  -9111510.18145  22319707.9304                   22319708.0744
 -29507005.06647 -22976538.32546  21122120.9064                   21122117.1604
 -10752952.66447  -8366346.11345  22183976.2814                   22183974.8754
 11  8 22  1 16  0.0000000  0  8G10G12G29G05G04G25G02G30
 -22573402.31647 -17577653.77945  21960595.3054                   21960593.1334
 -24846223.41448 -19345461.24546  20891465.1414                   20891462.5204
   3194324.09846   2499234.99743  24368393.8284                   24368393.0634
 -24986334.42648 -19454078.45447  20558166.9924                   20558164.6094
 -20457300.47747 -15923725.61844  23798963.0474                   23798962.0594
 -11803318.63747  -9181764.37645  22302551.0234                   22302551.3554
 -29512836.43048 -22981082.24046  21121011.1724                   21121007.1684
 -10833666.34047  -8429239.88545  22168617.2734                   22168615.7234
 11  8 22  1 16 30.0000000  0  8G10G12G29G05G04G25G02G30
 -22532691.06247 -17545930.73845  21968341.9384                   21968340.7894
 -24871778.67648 -19365374.43146  20886602.0474                   20886599.4924
   3080160.95746   2410276.76444  24346670.4844                   24346668.3014
 -25050333.46547 -19503947.81847  20545988.2034                   20545986.1684
 -20408869.74647 -15885987.38144  23808179.2034                   23808178.0044
 -11892991.40648  -9251639.26245  22285486.6644                   22285486.7154
 -29518525.62148 -22985515.37946  21119928.6804                   21119924.5704
 -10913825.28547  -8491701.38245  22153363.6884                   22153361.8714
 11  8 22  1 17  0.0000000  0  8G10G12G29G05G04G25G02G30
 -22491534.45347 -17513860.64245  21976173.8594                   21976172.3594
 -24896751.54748 -19384833.82746  20881850.0164                   20881847.5354
   2965935.80946   2321270.16844  24324933.8054                   24324933.2584
 -25113767.39148 -19553376.82547  20533916.8204                   20533914.9384
 -20360478.10547 -15848279.60144  23817386.8204                   23817387.1484
 -11982175.53148  -9321133.39145  22268515.5864                   22268515.8754
 -29524073.37548 -22989838.30446  21118873.0474                   21118868.8484
 -10993427.89147  -8553729.39045  22138215.5084                   22138214.1414
 11  8 22  1 17 30.0000000  0  8G10G12G29G05G04G25G02G30
 -22449935.71947 -17481446.05545  21984090.2734                   21984088.6094
 -24921142.77748 -19403840.00446  20877208.2974                   20877205.6994
   2851648.37546   2232215.07044  24303185.4614                   24303183.9024
 -25176636.48848 -19602365.71147  20521953.6804                   20521951.5664
 -20312127.16447 -15810603.56244  23826588.3284                   23826587.9884
 -12070869.98048  -9390245.94446  22251637.6564                   22251637.9534
 -29529481.72348 -22994052.60146  21117843.7894                   21117839.9574
 -11072473.52747  -8615323.39345  22123173.9304                   22123172.7154
 11  8 22  1 18  0.0000000  0  8G10G12G29G05G04G25G02G30
 -22407895.84047 -17448687.72145  21992090.1174                   21992088.7464
 -24944951.19148 -19422392.02746  20872677.8204                   20872675.4774
   2737301.37546   2143113.58443  24281425.9774                   24281425.0434
 -25238938.01248 -19650912.33047  20510097.8054                   20510095.8484
 -20263815.69147 -15772958.25243  23835781.9924                   23835781.0354
 -12159070.91048  -9458973.94145  22234853.7034                   22234853.3834
 -29534749.72348 -22998157.54946  21116841.4144                   21116837.0434
 -11150958.83247  -8676480.77045  22108238.5474                   22108237.2034
 11  8 22  1 18 30.0000000  0  8G10G12G29G05G04G25G02G30
 -22365419.40247 -17415589.20845  22000172.9694                   22000171.6724
 -24968178.63348 -19440491.35446  20868257.8134                   20868255.2774
   2622894.00046   2053964.97944  24259654.3444                   24259653.0594
 -25300673.17648 -19699017.63747  20498350.0164                   20498348.0984
 -20215546.00447 -15735345.57643  23844966.5314                   23844966.5434
 -12246778.28948  -9527317.35246  22218163.3984                   22218163.3794
 -29539879.93448 -23002155.11346  21115865.2034                   21115860.8094
 -11228884.04747  -8737201.70645  22093410.0784                   22093408.3324
 11  8 22  1 19  0.0000000  0  8G10G12G29G05G04G25G02G30
 -22322511.41847 -17382154.41645  22008337.9304                   22008336.4774
 -24990827.85248 -19458140.11146  20863947.7114                   20863945.1994
   2508424.55546   1964768.04243  24237872.2814                   24237870.8714
 -25361843.41048 -19746682.73947  20486710.0864                   20486707.6524
 -20167321.32847 -15697767.92543  23854144.4694                   23854143.2234
 -12333992.46948  -9595276.45046  22201567.0084                   22201567.5124
 -29544875.78548 -23006047.99646  21114914.3914                   21114910.5434
 -11306250.04347  -8797486.89345  22078687.5944                   22078685.6684
 11  8 22  1 19 30.0000000  0  8G10G12G29G05G04G25G02G30
 -22279170.12948 -17348382.00045  22016585.5864                   22016583.5984
 -25012894.75048 -19475335.11446  20859748.3914                   20859746.0474
   2393898.18046   1875526.76644  24216078.0634                   24216077.1804
 -25422444.11748 -19793904.04847  20475178.1334                   20475175.6374
 -20119137.99247 -15660222.47243  23863312.3444                   23863311.9734
 -12420707.35248  -9662846.48246  22185065.4774                   22185065.9414
 -29549733.82448 -23009833.48946  21113989.4924                   21113986.2274
 -11383051.16847  -8857331.91345  22064072.8914                   22064071.0634
 11  8 22  1 20  0.0000000  0  8G10G12G29G05G04G25G02G30
 -22235403.53547 -17314278.17745  22024914.2894                   22024912.6564
 -25034385.07448 -19492080.83746  20855659.4844                   20855656.6994
   2279310.66846   1786237.84244  24194272.8204                   24194271.9534
 -25482479.83648 -19840685.10747  20463753.6094                   20463751.1134
 -20071001.60947 -15622713.64843  23872472.5394                   23872472.4064
 -12506926.23448  -9730030.02246  22168658.8204                   22168658.5944
 -29554460.00448 -23013516.23946  21113090.4844                   21113086.7854
 -11459291.02348  -8916739.59845  22049564.8444                   22049563.1844
 11  8 22  1 20 30.0000000  0  8G10G12G29G05G04G25G02G30
 -22191207.92247 -17279840.03245  22033324.0944                   22033322.9144
 -25055293.36348 -19508373.02646  20851680.3524                   20851677.7814
   2164668.75846   1696906.53344  24172457.0704                   24172456.1724
 -25541943.45748 -19887020.37847  20452437.6644                   20452435.7424
 -20022906.76247 -15585237.18543  23881625.4694                   23881625.0124
 -12592641.18048  -9796820.86546  22152347.5554                   22152348.2274
 -29559049.04348 -23017092.11246  21112217.4224                   21112213.6604
 -11534962.25047  -8975704.16145  22035165.3054                   22035163.3014
 11  8 22  1 21  0.0000000  0  8G10G12G29G05G04G25G02G30
 -22146585.03547 -17245068.96945  22041815.7584                   22041814.1174
 -25075618.05948 -19524210.47046  20847812.8444                   20847810.4774
   2049974.85246   1607534.69544  24150631.8754                   24150630.0744
 -25600832.96548 -19932908.29247  20441231.6334                   20441229.4494
 -19974852.91846 -15547792.70743  23890769.4614                   23890768.8714
 -12677848.92648  -9863216.50546  22136133.4844                   22136133.7114
 -29563500.65248 -23020560.91546  21111370.2584                   21111366.0084
 -11610061.93047  -9034223.38445  22020873.8054                   22020872.4384
 11  8 22  1 21 30.0000000  0  8G10G12G29G05G04G25G02G30
 -22101545.60947 -17209973.33945  22050386.8524                   22050385.0314
 -25095368.22748 -19539600.21846  20844054.4694                   20844051.9414
   1935221.88346   1518116.82444  24128794.6414                   24128793.7544
 -25659156.34448 -19978355.05747  20430132.8444                   20430130.8794
 -19926848.30146 -15510386.53143  23899904.9384                   23899904.0514
 -12762555.80948  -9929221.84446  22120014.0314                   22120014.6644
 -29567823.66448 -23023929.50346  21110547.4694                   21110543.6134
 -11684596.80547  -9092302.49245  22006690.5084                   22006688.1484
 11  8 22  1 22  0.0000000  0  8G10G12G29G05G04G25G02G30
 -22056087.82447 -17174551.69945  22059037.0634                   22059035.1294
 -25114540.01248 -19554539.28546  20840406.6024                   20840403.6684
   1820414.95747   1428656.88944  24106947.7344                   24106946.5594
 -25716908.27348 -20023356.53547  20419142.8444                   20419140.9494
 -19878889.63346 -15473016.18943  23909030.8284                   23909030.4964
 -12846755.68048  -9994832.11046  22103991.2034                   22103991.9384
 -29572014.52048 -23027195.11446  21109750.2194                   21109746.1334
 -11758561.24647  -9149937.12245  21992615.4774                   21992613.9414
 11  8 22  1 22 30.0000000  0  8G10G12G29G05G04G25G02G30
 -22010216.52347 -17138807.84945  22067765.9224                   22067764.1484
 -25133135.66048 -19569029.41846  20836867.8674                   20836865.2854
   1705552.80947   1339153.98544  24085089.8284                   24085089.4304
 -25774090.49648 -20067914.09647  20408261.7424                   20408259.6804
 -19830979.34846 -15435683.52643  23918147.3834                   23918147.5944
 -12930448.70348 -10060047.46046  22088065.1884                   22088065.2154
 -29576076.14548 -23030360.03446  21108976.8284                   21108972.9494
 -11831955.85247  -9207127.72645  21978649.2894                   21978647.6254
 11  8 22  1 23  0.0000000  0  8G10G12G29G05G04G25G02G30
 -21963931.45347 -17102741.57745  22076573.6804                   22076572.1134
 -25151152.61348 -19583068.60346  20833439.0704                   20833436.3404
   1590639.44546   1249611.06344  24063223.4384                   24063222.0634
 -25830699.41048 -20112024.92347  20397489.4064                   20397487.4224
 -19783114.98446 -15398386.67343  23927256.5394                   23927255.1804
 -13013630.19548 -10124864.17546  22072235.8914                   22072236.4104
 -29580006.57048 -23033422.70846  21108229.4534                   21108225.2504
 -11904776.37147  -9263870.98345  21964792.1334                   21964789.7934
 11  8 22  1 23 30.0000000  0  8G10G12G29G05G04G25G02G30
 -21917234.80147 -17066354.60245  22085459.7894                   22085458.3164
 -25168591.30948 -19596657.21146  20830120.3754                   20830117.9534
   1475676.36747   1160029.42944  24041346.6334                   24041345.4454
 -25886734.11348 -20155688.31247  20386826.3054                   20386823.8054
 -19735296.73846 -15361125.72543  23936354.8754                   23936354.7384
 -13096298.00448 -10189280.65246  22056504.9384                   22056505.5904
 -29583805.78148 -23036383.13746  21107506.3284                   21107502.1374
 -11977021.14847  -9320165.61545  21951044.2584                   21951042.4184
 11  8 22  1 24  0.0000000  0  8G10G12G29G05G04G25G02G30
 -21870130.90247 -17029650.28445  22094423.0234                   22094421.6414
 -25185453.16848 -19609796.33246  20826912.1414                   20826909.4804
   1360663.20346   1070408.82644  24019460.2424                   24019459.3244
 -25942195.44948 -20198904.91647  20376272.1174                   20376270.0044
 -19687526.23446 -15323902.00743  23945445.5864                   23945446.1294
 -13178451.80148 -10253296.57946  22040871.7114                   22040871.6484
 -29587476.18448 -23039243.20246  21106807.7504                   21106803.9964
 -12048690.26647  -9376011.66545  21937405.8134                   21937404.6024
 11  8 22  1 24 30.0000000  0  8G10G12G29G05G04G25G02G30
 -21822619.76647 -16992628.63145  22103464.3524                   22103462.7234
 -25201736.51248 -19622484.66246  20823813.3524                   20823810.8874
   1245603.75847    980752.15444  23997564.6414                   23997563.9144
 -25997080.60248 -20241672.56047  20365827.9304                   20365825.9024
 -19639801.91846 -15286714.25043  23954528.0704                   23954527.3404
 -13260087.08648 -10316908.49246  22025336.7424                   22025337.3244
 -29591015.99648 -23042001.49946  21106134.3054                   21106130.1134
 -12119779.77047  -9431406.08545  21923878.2424                   21923876.3444
 11  8 22  1 25  0.0000000  0  8G10G12G29G05G04G25G02G30
 -21774707.80947 -16955294.65545  22112581.6334                   22112579.7194
 -25217445.85548 -19634725.71746  20820823.7814                   20820821.3714
   1130495.21147    891057.14844  23975660.7114                   23975659.3244
 -26051392.53548 -20283993.52647  20355492.8914                   20355490.7154
 -19592127.65646 -15249565.43843  23963599.7814                   23963599.7074
 -13341205.78548 -10380117.85846  22009900.5634                   22009901.1024
 -29594429.41448 -23044661.31446  21105484.6644                   21105480.5704
 -12190291.96147  -9486350.66345  21910459.9844                   21910458.4414
 11  8 22  1 25 30.0000000  0  8G10G12G29G05G04G25G02G30
 -21726396.74647 -16917649.70045  22121775.1414                   22121773.3094
 -25232580.32848 -19646518.81946  20817944.0084                   20817941.3594
   1015339.29746    801325.25444  23953747.4534                   23953746.2464
 -26105129.91048 -20325866.78347  20345266.6724                   20345264.6024
 -19544502.88347 -15212455.26743  23972663.1954                   23972662.1994
 -13421805.31648 -10442922.69046  21994562.7664                   21994563.2584
 -29597716.33648 -23047222.56046  21104859.3204                   21104854.9804
 -12260224.83648  -9540843.81745  21897152.1254                   21897150.0084
 11  8 22  1 26  0.0000000  0  8G10G12G29G05G04G25G02G30
 -21677693.86747 -16879699.41745  22131042.6174                   22131040.9694
 -25247145.28548 -19657868.13346  20815172.1724                   20815169.9454
    900132.68047    711553.93644  23931823.8204                   23931823.0744
 -26158296.89148 -20367295.57947  20335149.2424                   20335147.4414
 -19496932.62546 -15175387.52943  23981715.7584                   23981714.3754
 -13501888.55148 -10505325.18746  21979323.6334                   21979324.5434
 -29600882.14548 -23049689.43246  21104256.7814                   21104253.2544
 -12329581.66448  -9594888.10745  21883954.1724                   21883952.3094
 11  8 22  1 26 30.0000000  0  8G10G12G29G05G04G25G02G30
 -21628595.46947 -16841440.94945  22140386.4614                   22140384.6524
 -25261135.22748 -19668769.39446  20812510.3674                   20812507.7774
    784883.00847    621749.01544  23909892.4774                   23909891.3524
 -26210886.62948 -20408274.57747  20325142.0944                   20325140.0704
 -19449411.09846 -15138357.82843  23990758.2274                   23990757.3594
 -13581447.37548 -10567319.07146  21964183.8524                   21964184.6764
 -29603921.20748 -23052057.53846  21103678.3444                   21103674.6644
 -12398355.00447  -9648477.72045  21870866.8134                   21870865.2154
 11  8 22  1 27  0.0000000  0  8G10G12G29G05G04G25G02G30
 -21579099.78947 -16802872.89745  22149805.1414                   22149803.1134
 -25274546.08648 -19679219.42646  20809958.2114                   20809955.4734
    669595.66846    531914.72944  23887953.9694                   23887953.2114
 -26262894.48448 -20448800.15747  20315245.3754                   20315243.1914
 -19401933.91446 -15101362.57143  23999793.2424                   23999792.4884
 -13660475.55548 -10628899.46946  21949145.3444                   21949145.6214
 -29606829.57848 -23054323.80346  21103124.7114                   21103121.0784
 -12466538.96547  -9701608.09145  21857891.5554                   21857890.1174
 11  8 22  1 27 30.0000000  0  8G10G12G29G05G04G25G02G30
 -21529219.10947 -16764004.86445  22159296.5634                   22159295.1684
 -25287388.00848 -19689226.11446  20807514.2504                   20807511.9494
    554262.26646    442044.58744  23866006.7034                   23866006.3444
 -26314329.46948 -20488879.34247  20305457.3984                   20305455.6644
 -19354511.24646 -15064409.91643  24008816.8134                   24008816.4024
 -13738980.80548 -10690072.39046  21934206.1174                   21934206.5084
 -29609617.51248 -23056496.22246  21102594.3754                   21102590.4064
 -12534141.82048  -9754285.64445  21845027.8444                   21845025.8524
 11  8 22  1 28  0.0000000  0  8G10G12G29G05G04G25G02G30
 -21478954.22347 -16724837.45345  22168861.8054                   22168860.1484
 -25299659.78548 -19698788.54946  20805179.2344                   20805176.4964
    438885.79346    352140.88844  23844051.4844                   23844050.5234
 -26365189.11348 -20528510.21447  20295779.3444                   20295777.0594
 -19307141.26246 -15027498.25043  24017831.5004                   24017830.8324
 -13816959.65248 -10750835.12546  21919367.5704                   21919367.8014
 -29612283.77348 -23058573.82746  21102086.9224                   21102083.0784
 -12601160.56248  -9806508.05645  21832274.4384                   21832272.4144
 11  8 22  1 28 30.0000000  0  8G10G12G29G05G04G25G02G30
 -21428303.73447 -16685369.54145  22178500.2114                   22178498.9654
 -25311357.93748 -19707903.99246  20802953.0474                   20802950.4414
    323471.19147    262207.47144  23822088.4304                   23822087.4064
 -26415469.37148 -20567689.61747  20286210.8284                   20286208.9184
 -19259820.64146 -14990625.07643  24026835.9454                   24026836.0984
 -13894406.55948 -10811183.36046  21904629.5554                   21904630.8054
 -29614825.04748 -23060554.04146  21101603.5004                   21101599.4804
 -12667590.22347  -9858271.43045  21819633.4924                   21819631.4384
 11  8 22  1 29  0.0000000  0  8G10G12G29G05G04G25G02G30
 -21377274.58647 -16645606.58645  22188210.9614                   22188209.3754
 -25322487.80148 -19716576.62546  20800835.2814                   20800832.2774
    208015.98847    172242.40644  23800118.0234                   23800117.7894
 -26465173.98048 -20606420.46147  20276752.7734                   20276750.6374
 -19212553.78946 -14953793.71643  24035830.7034                   24035830.4924
 -13971323.89548 -10871118.93346  21889992.7194                   21889993.7304
 -29617245.93748 -23062440.43746  21101142.6804                   21101138.8554
 -12733433.64848  -9909577.99945  21807103.3594                   21807101.6374
 11  8 22  1 29 30.0000000  0  8G10G12G29G05G04G25G02G30
 -21325863.90247 -16605546.33045  22197994.1564                   22197992.2734
 -25333044.61348 -19724802.71546  20798826.2734                   20798823.9774
     92526.50447     82250.62844  23778141.2034                   23778140.3674
 -26514297.03948 -20644698.15547  20267404.5944                   20267402.9694
 -19165335.71946 -14917000.48543  24044816.4694                   24044815.5744
 -14047704.65248 -10930636.40446  21875458.2734                   21875459.0314
 -29619541.94547 -23064229.54246  21100706.1094                   21100701.8754
 -12798684.40248  -9960422.73345  21794686.9534                   21794684.8674
 11  8 22  1 30  0.0000000  0  8G10G12G29G05G04G25G02G30
 -21274083.43047 -16565197.92845  22207847.6334                   22207846.0594
 -25343037.47348 -19732589.36846  20796924.4694                   20796922.1844
    -23004.88747     -7773.78544  23756156.7114                   23756155.2424
 -26562847.48048 -20682529.64547  20258166.0084                   20258164.0664
 -19118175.52346 -14880252.32843  24053790.3444                   24053789.7274
 -14123556.11348 -10989741.41746  21861023.8834                   21861024.8014
 -29621722.25848 -23065928.47446  21100290.9064                   21100286.7114
 -12863350.27747 -10010811.71745  21782381.2814                   21782379.6884
 11  8 22  1 30 30.0000000  0  8G10G12G29G05G04G25G02G30
 -21221930.96147 -16524559.67145  22217771.6804                   22217770.3484
 -25352462.92648 -19739933.89946  20795130.9614                   20795128.6954
   -138572.27747    -97826.27144  23734165.1884                   23734164.0664
 -26610820.08648 -20719910.88547  20249036.9614                   20249034.9964
 -19071068.76246 -14843545.72743  24062753.8984                   24062753.7504
 -14198871.81648 -11048428.98446  21846692.2504                   21846692.8634
 -29623782.85948 -23067534.12946  21099898.8754                   21099895.0084
 -12927425.28547 -10060740.29345  21770188.2814                   21770186.6054
 11  8 22  1 31  0.0000000  0  8G10G12G29G05G04G25G02G30
 -21169404.87547 -16483630.28145  22227767.1024                   22227765.5594
 -25361317.43048 -19746833.51546  20793446.2034                   20793443.4024
   -254170.24247   -187902.57944  23712167.5864                   23712165.5594
 -26658210.41848 -20756838.39247  20240019.1724                   20240016.8244
 -19024011.42646 -14806877.70043  24071709.5394                   24071708.4024
 -14273646.00848 -11106694.57146  21832462.6724                   21832463.5354
 -29625720.00047 -23069043.57946  21099530.4304                   21099526.5744
 -12990904.39547 -10110204.51745  21758107.9924                   21758107.2034
 11  8 22  1 31 30.0000000  0  8G10G12G29G05G04G25G02G30
 -21116514.97747 -16442417.39045  22237831.8204                   22237830.3674
 -25369608.62148 -19753294.19246  20791868.2734                   20791865.9454
   -369804.25847   -278006.97644  23690162.7504                   23690161.6684
 -26705024.99648 -20793317.27047  20231110.4144                   20231108.1294
 -18977010.68046 -14770253.81743  24080653.1884                   24080652.9384
 -14347883.90248 -11164542.26246  21818335.8674                   21818336.4654
 -29627541.14547 -23070462.65046  21099183.4144                   21099179.9964
 -13053793.12547 -10159208.69445  21746140.6414                   21746139.2974
 11  8 22  1 32  0.0000000  0  8G10G12G29G05G04G25G02G30
 -21063260.16447 -16400920.14745  22247965.1954                   22247964.4184
 -25377333.64148 -19759313.71046  20790398.3054                   20790395.5554
   -485469.35547   -368135.58144  23668152.1724                   23668151.5474
 -26751260.24648 -20829344.71847  20222312.2584                   20222310.0394
 -18930063.15246 -14733671.34443  24089587.1334                   24089586.7234
 -14421580.33248 -11221968.02946  21804311.8524                   21804312.3484
 -29629243.18048 -23071788.90046  21098859.8444                   21098856.0204
 -13116087.06247 -10207749.42245  21734286.8754                   21734285.2304
 11  8 22  1 32 30.0000000  0  8G10G12G29G05G04G25G02G30
 -21009645.83647 -16359142.76645  22258168.2114                   22258167.0704
 -25384496.59848 -19764895.24346  20789035.3204                   20789032.8054
   -601167.51647   -458289.93844  23646135.9454                   23646134.5824
 -26796918.85548 -20864922.84847  20213623.3594                   20213621.4734
 -18883172.21146 -14697133.03243  24098509.7974                   24098509.4694
 -14494736.90648 -11278973.13346  21790390.8984                   21790391.2624
 -29630829.99648 -23073025.38846  21098557.9224                   21098553.8094
 -13177788.28947 -10255828.27845  21722545.7114                   21722544.3554
 11  8 22  1 33  0.0000000  0  8G10G12G29G05G04G25G02G30
 -20955671.15247 -16317084.58345  22268439.7974                   22268438.0474
 -25391094.22348 -19770036.25346  20787779.7034                   20787777.3554
   -716893.10247   -548465.72144  23624113.2034                   23624113.2774
 -26841996.68748 -20900048.41747  20205045.6804                   20205043.4964
 -18836333.86346 -14660635.60843  24107423.2114                   24107422.9654
 -14567347.99648 -11335553.17946  21776573.2504                   21776573.6884
 -29632297.77347 -23074169.10246  21098278.5784                   21098274.6724
 -13238891.76247 -10303441.36345  21710917.7274                   21710916.7424
 11  8 22  1 33 30.0000000  0  8G10G12G29G05G04G25G02G30
 -20901343.67647 -16274751.51545  22278778.2664                   22278776.1844
 -25397132.00048 -19774741.03346  20786630.6334                   20786628.2774
   -832649.91447   -638665.81144  23602086.4304                   23602084.7704
 -26886498.26248 -20934724.95247  20196576.9454                   20196575.1254
 -18789553.16046 -14624183.19243  24116325.2974                   24116323.8954
 -14639416.86348 -11391710.72746  21762859.4224                   21762859.3554
 -29633651.82047 -23075224.19746  21098021.2974                   21098016.6804
 -13299401.31647 -10350591.63945  21699403.7274                   21699402.0984
 11  8 22  1 34  0.0000000  0  8G10G12G29G05G04G25G02G30
 -20846668.89547 -16232147.82245  22289182.2974                   22289180.4884
 -25402613.63348 -19779012.45146  20785587.9144                   20785585.5514
   -948439.64847   -728891.53944  23580051.3754                   23580050.8524
 -26930426.72748 -20968954.91547  20188217.7734                   20188215.8364
 -18742833.58246 -14587778.34343  24125215.5554                   24125214.7304
 -14710945.17248 -11447447.04846  21749247.7894                   21749248.1174
 -29634895.90647 -23076193.62746  21097784.4064                   21097780.1954
 -13359319.10547 -10397280.81045  21688001.2194                   21687999.7734
 11  8 22  1 34 30.0000000  0  8G10G12G29G05G04G25G02G30
 -20791647.19547 -16189273.77445  22299652.0314                   22299651.0124
 -25407538.24248 -19782849.82546  20784650.9844                   20784648.3484
  -1064258.28547   -819139.81044  23558011.8674                   23558010.6484
 -26973779.37548 -21002736.19247  20179968.2194                   20179965.9844
 -18696172.45346 -14551419.01843  24134094.3134                   24134094.4614
 -14781928.80548 -11502758.95946  21735740.1334                   21735740.2584
 -29636028.00848 -23077075.77946  21097568.7894                   21097564.4614
 -13418641.63747 -10443506.14245  21676712.7344                   21676710.9344
 11  8 22  1 35  0.0000000  0  8G10G12G29G05G04G25G02G30
 -20736276.46147 -16146127.74945  22310189.2814                   22310187.0314
 -25411902.16848 -19786250.30246  20783820.3754                   20783817.8754
  -1180099.93747   -909405.98644  23535968.4454                   23535967.6884
 -27016551.66848 -21036065.23247  20171828.8284                   20171826.8794
 -18649565.59846 -14515102.07943  24142964.0554                   24142963.8284
 -14852361.72748 -11557641.74246  21722336.6334                   21722337.3324
 -29637043.65648 -23077867.18846  21097375.5944                   21097371.3244
 -13477363.51248 -10489263.44345  21665537.8754                   21665536.7384
 11  8 22  1 35 30.0000000  0  9G10G12G26G29G05G04G25G02G30
 -20680566.70347 -16102717.55845  22320790.4064                   22320788.5984
 -25415713.37548 -19789220.09246  20783094.9304                   20783092.8794
   6121117.36355   4780885.59452  24702745.8204                   24702746.4534
  -1295970.67247   -999694.85444  23513919.2814                   23513917.7894
 -27058751.01648 -21068947.82747  20163798.6564                   20163796.6484
 -18603020.60946 -14478833.32243  24151821.0474                   24151821.3404
 -14922249.99248 -11612100.12146  21709037.8674                   21709038.0824
 -29637951.09848 -23078574.27846  21097202.7274                   21097198.2704
 -13535491.27048 -10534557.80945  21654476.6954                   21654475.4104
 11  8 22  1 36  0.0000000  0  9G10G12G26G29G05G04G25G02G30
 -20624522.23047 -16059046.56245  22331455.0394                   22331453.2504
 -25418974.30148 -19791761.08846  20782474.7344                   20782472.4734
   5996521.77745   4683798.32442  24679037.3754                   24679036.4734
  -1411870.64846  -1090006.50644  23491863.5704                   23491862.6684
 -27100378.46948 -21101384.78347  20155877.1954                   20155875.3484
 -18556539.07446 -14442613.97243  24160666.2194                   24160666.5474
 -14991593.59848 -11666134.08746  21695842.0004                   21695842.2814
 -29638752.02048 -23079198.36746  21097050.4304                   21097046.1484
 -13593025.62148 -10579389.76546  21643528.0474                   21643526.8134
 11  8 22  1 36 30.0000000  0  9G10G12G26G29G05G04G25G02G30
 -20568148.16047 -16015118.73144  22342182.9064                   22342180.8484
 -25421688.97347 -19793876.42246  20781957.7974                   20781955.6134
   5871784.17645   4586600.39542  24655299.6094                   24655299.8554
  -1527800.94547  -1180341.72444  23469803.2194                   23469801.7344
 -27141436.71548 -21133378.20747  20148063.9534                   20148061.9574
 -18510123.59046 -14406446.07243  24169499.7734                   24169498.9924
 -15060393.75448 -11719744.58746  21682750.0314                   21682750.0274
 -29639449.78148 -23079742.07946  21096917.3284                   21096913.2234
 -13649968.27348 -10623760.64445  21632692.4304                   21632691.0554
 11  8 22  1 37  0.0000000  0  9G10G12G26G29G05G04G25G02G30
 -20511445.34847 -15970934.73944  22352972.6414                   22352970.8634
 -25423856.26648 -19795565.23746  20781545.5634                   20781543.0314
   5746909.35946   4489295.42843  24631536.3674                   24631536.8874
  -1643758.43747  -1270698.20244  23447736.5314                   23447736.0824
 -27181924.47748 -21164927.10347  20140359.2344                   20140357.5354
 -18463772.71946 -14370328.56543  24178319.4844                   24178318.6844
 -15128647.36348 -11772929.20646  21669761.5864                   21669761.7304
 -29640042.95748 -23080204.29246  21096804.6174                   21096800.8634
 -13706316.70348 -10667668.51745  21621969.9774                   21621968.2234
 11  8 22  1 37 30.0000000  0  9G10G12G26G29G05G04G25G02G30
 -20454414.55947 -15926495.19145  22363825.6174                   22363824.0554
 -25425475.29348 -19796826.83946  20781237.5634                   20781234.7344
   5621902.50446   4391887.78143  24607748.2194                   24607748.7854
  -1759739.48447  -1361072.96844  23425666.7814                   23425665.2854
 -27221839.20748 -21196029.47147  20132763.5944                   20132761.5594
 -18417484.30147 -14334259.59643  24187128.3134                   24187127.2464
 -15196350.91048 -11825685.21646  21656878.1254                   21656878.3444
 -29640529.80548 -23080583.66246  21096711.9694                   21096707.8984
 -13762068.07848 -10711111.14845  21611360.7034                   21611358.9884
 11  8 22  1 38  0.0000000  0  9G10G12G26G29G05G04G25G02G30
 -20397056.92647 -15881800.93345  22374740.5164                   22374738.8444
 -25426545.81248 -19797661.02046  20781033.7504                   20781031.2774
   5496767.97346   4294380.49743  24583935.2504                   24583936.4924
  -1875741.59846  -1451464.21044  23403591.5004                   23403590.9694
 -27261179.62548 -21226684.32147  20125277.7424                   20125275.6214
 -18371257.18047 -14298238.51844  24195924.3674                   24195924.4774
 -15263501.70348 -11878010.51046  21644099.4614                   21644100.2274
 -29640909.56248 -23080879.57246  21096639.4924                   21096635.5204
 -13817220.29748 -10754086.91645  21600865.3204                   21600863.9924
 11  8 22  1 38 30.0000000  0  9G10G12G26G29G05G04G25G02G30
 -18763955.10547 -14609254.10644  22685509.4224                   22685507.8244
 -23851646.82448 -18570467.02446  21080727.5474                   21080725.0824
   6946935.17246   5424381.09743  24859893.3364                   24859894.8634
   -416337.10547   -314265.84744  23681307.0704                   23681305.8284
 -25724522.79348 -20029289.36747  20417693.5394                   20417691.7194
 -16749671.16847 -13034664.98244  24504502.1254                   24504502.2664
 -13754674.15648 -10702300.73146  21931220.1254                   21931220.2894
 -28065760.30148 -21853490.54146  21396380.5554                   21396376.6724
 -12296348.70748  -9568992.17445  21890277.5784                   21890276.3634
 11  8 22  1 39  0.0000000  0  9G10G12G26G29G05G04G25G02G30
 -18705948.32446 -14564054.04145  22696547.8364                   22696545.9844
 -23851619.73448 -18570445.91946  21080731.8984                   21080729.8874
   6821558.51646   5326685.21343  24836035.3594                   24836036.2384
   -532372.75847   -404683.19144  23659226.3284                   23659225.9964
 -25762711.57048 -20059046.84847  20410426.6644                   20410424.5314
 -16703563.23047 -12998736.71144  24513275.6254                   24513276.3404
 -13820711.81248 -10753758.64246  21918653.3134                   21918653.3404
 -28065922.82048 -21853617.18146  21396349.7584                   21396345.9614
 -12350296.78148  -9611029.65445  21880011.8134                   21880010.2424
 11  8 22  1 39 30.0000000  0  9G10G12G26G29G05G04G25G02G30
 -18647624.34847 -14518606.81644  22707646.6954                   22707644.8524
 -23851048.58648 -18570000.87946  21080840.9144                   21080838.9494
   6696062.09446   5228895.95643  24812154.0474                   24812154.1524
   -648425.98447   -495114.22444  23637142.3524                   23637141.1764
 -25800327.83648 -20088358.20247  20403268.2894                   20403266.1804
 -16657518.24647 -12962857.56344  24522038.4694                   24522038.2584
 -13886194.18048 -10804783.86746  21906192.3674                   21906192.7704
 -28065980.66448 -21853662.25846  21396338.7584                   21396334.5474
 -12403645.00848  -9652599.71145  21869859.7194                   21869858.4614
 11  8 22  1 40  0.0000000  0  9G10G12G26G29G05G04G25G02G30
 -18588982.09446 -14472911.59045  22718805.7734                   22718804.1134
 -23849931.43448 -18569130.40146  21081053.5164                   21081051.2584
   6570452.53146   5131018.56943  24788250.2894                   24788251.5594
   -764492.27747   -585555.45145  23615055.7344                   23615054.8594
 -25837368.04748 -20117220.68847  20396219.9304                   20396218.0554
 -16611532.68447 -12927024.63743  24530788.7734                   24530788.2114
 -13951116.38348 -10855372.59146  21893837.8834                   21893838.2584
 -28065930.60548 -21853623.26946  21396348.2424                   21396344.4534
 -12456389.09848  -9693699.00545  21859823.4774                   21859822.1054
 11  8 22  1 40 30.0000000  0  9G10G12G26G29G05G04G25G02G30
 -18530028.95346 -14426974.13244  22730024.1094                   22730022.6214
 -23848274.05548 -18567838.93946  21081368.8914                   21081366.6884
   6444728.37147   5033051.88744  24764326.9384                   24764326.9924
   -880574.58247   -676009.15844  23592966.1724                   23592964.9064
 -25873837.17648 -20145638.16047  20389280.1174                   20389277.9924
 -16565611.23046 -12891241.72043  24539527.6564                   24539527.1524
 -14015481.98048 -10905527.61946  21881589.8364                   21881590.2854
 -28065777.82848 -21853504.20846  21396377.5554                   21396373.4264
 -12508533.21548  -9734330.80946  21849900.6484                   21849898.7464
 11  8 22  1 41  0.0000000  0  9G10G12G26G29G05G04G25G02G30
 -18470767.02747 -14380796.03044  22741301.4694                   22741299.1374
 -23846076.89547 -18566126.88746  21081787.0554                   21081784.6374
   6318893.47346   4934998.83744  24740380.6414                   24740381.2664
   -996670.43447   -766473.40445  23570873.5704                   23570872.3324
 -25909734.74648 -20173610.28847  20382448.9304                   20382446.8324
 -16519753.47746 -12855508.41043  24548253.8364                   24548254.5314
 -14079289.07847 -10955247.43646  21869447.5634                   21869447.8404
 -28065521.97747 -21853304.85846  21396426.0394                   21396421.9574
 -12560076.20348  -9774494.18446  21840092.3984                   21840090.8954
 11  8 22  1 41 30.0000000  0  9G10G12G26G29G05G04G25G02G30
 -18411196.42247 -14334377.41044  22752637.5394                   22752635.6414
 -23843338.73848 -18563993.26846  21082308.1484                   21082305.7194
   6192953.37146   4836863.88344  24716415.0004                   24716415.3324
  -1112776.17246   -856945.38644  23548779.3914                   23548778.3754
 -25945058.69148 -20201135.42247  20375727.0084                   20375724.7624
 -16473956.63346 -12819822.54643  24556968.2274                   24556968.3404
 -14142533.96548 -11004529.17646  21857412.6644                   21857412.7034
 -28065160.68448 -21853023.34046  21396494.7894                   21396490.7034
 -12611014.93048  -9814186.70645  21830399.0864                   21830397.2034
 11  8 22  1 42  0.0000000  0  9G10G12G26G29G05G04G25G02G30
 -18351319.25447 -14287719.89844  22764031.7894                   22764030.0554
 -23840060.00048 -18561438.42946  21082931.7584                   21082930.0434
   6066911.91846   4738649.96843  24692429.2894                   24692430.5434
  -1228889.78547   -947423.48844  23526683.2734                   23526682.1844
 -25979808.31648 -20228213.03247  20369114.5004                   20369111.8984
 -16428220.28146 -12784183.85243  24565672.2424                   24565671.2154
 -14205214.87548 -11053371.44546  21845484.8834                   21845485.3484
 -28064693.98848 -21852659.69146  21396583.2734                   21396579.6644
 -12661348.21948  -9853407.46845  21820820.7814                   21820819.3054
 11  8 22  1 42 30.0000000  0  9G10G12G26G29G05G04G25G02G30
 -18291138.15247 -14240825.57844  22775483.7584                   22775481.8984
 -23836242.14148 -18558463.49146  21083658.4774                   21083656.6764
   5940772.30946   4640359.54543  24668425.5394                   24668426.7544
  -1345009.52347  -1037906.37044  23504586.7894                   23504585.8134
 -26013984.17648 -20254843.56247  20362610.8754                   20362608.7664
 -16382544.59846 -12748592.41143  24574363.6414                   24574364.3134
 -14267330.70748 -11101773.40646  21833664.3594                   21833664.9574
 -28064122.12948 -21852214.09446  21396692.4454                   21396688.6994
 -12711075.63748  -9892156.13046  21811358.1094                   21811356.2894
 11  8 22  1 43  0.0000000  0  9G10G12G26G29G05G04G25G02G30
 -18230656.80547 -14193697.27745  22786993.2194                   22786991.3714
 -23831887.99248 -18555070.66846  21084487.1884                   21084484.7344
   5814536.32846   4541993.99744  24644403.1644                   24644404.3444
  -1461135.01647  -1128393.71744  23482488.5314                   23482486.7854
 -26047587.55948 -20281027.99347  20356216.4064                   20356214.3954
 -16336930.49646 -12713048.98442  24583044.1024                   24583043.9454
 -14328881.53148 -11149735.08846  21821951.6564                   21821952.3054
 -28063446.86348 -21851687.92846  21396821.2664                   21396817.2934
 -12760197.93048  -9930433.25146  21802010.4224                   21802008.8404
 11  8 22  1 43 30.0000000  0  9G10G12G26G29G05G04G25G02G30
 -18169879.21146 -14146338.13544  22798558.0394                   22798556.8914
 -23826999.75048 -18551261.65846  21085417.4774                   21085415.1644
   5688206.19146   4443555.08643  24620364.2734                   24620364.7034
  -1577265.93047  -1218885.31544  23460389.3674                   23460388.0164
 -26080620.18748 -20306767.69147  20349930.5474                   20349928.2114
 -16291379.56646 -12677554.77342  24591711.1334                   24591711.3874
 -14389867.48447 -11197256.60646  21810346.5394                   21810346.9344
 -28062669.34047 -21851082.07846  21396969.1954                   21396965.1334
 -12808715.89848  -9968239.45745  21792777.6804                   21792776.0984
 11  8 22  1 44  0.0000000  0  9G10G12G26G29G05G04G25G02G30
 -18108806.12147 -14098748.72144  22810180.2584                   22810178.8244
 -23821576.42648 -18547035.70846  21086449.4844                   21086447.0434
   5561787.30146   4345046.98143  24596307.4454                   24596307.5274
  -1693398.45747  -1309378.17344  23438290.8134                   23438289.0864
 -26113080.09448 -20332061.10847  20343753.4774                   20343751.4804
 -16245889.41446 -12642107.87942  24600368.2344                   24600367.3484
 -14450285.23047 -11244335.38046  21798849.5704                   21798850.2034
 -28061788.07847 -21850395.38846  21397136.5314                   21397132.7504
 -12856626.84048 -10005572.68645  21783660.7814                   21783658.5354
 11  8 22  1 44 30.0000000  0  9G10G12G26G29G05G04G25G02G30
 -18047442.28546 -14050932.79044  22821857.8284                   22821855.6294
 -23815621.55148 -18542395.55946  21087582.5234                   21087580.3134
   5435280.80146   4246470.72443  24572233.4924                   24572234.4264
  -1809533.15247  -1399872.71245  23416190.2974                   23416189.7894
 -26144969.55948 -20356910.03247  20337685.0704                   20337683.0784
 -16200462.13746 -12606710.03142  24609012.9304                   24609011.9804
 -14510135.90247 -11290972.28546  21787460.2034                   21787460.5314
 -28060805.40247 -21849629.66946  21397323.5084                   21397319.4534
 -12903932.51648 -10042434.24946  21774659.0474                   21774657.1954
 11  8 22  1 45  0.0000000  0  9G10G12G26G29G05G04G25G02G30
 -17985791.10546 -14002892.91744  22833589.2274                   22833588.1094
 -23809137.53148 -18537343.10246  21088816.4924                   21088814.2704
   5308688.87946   4147827.81743  24548143.1484                   24548143.3134
  -1925669.18047  -1490368.29644  23394090.1024                   23394089.3484
 -26176290.23448 -20381315.74147  20331725.0634                   20331723.0984
 -16155098.66046 -12571361.87942  24617645.6484                   24617644.0944
 -14569419.23848 -11337167.09846  21776179.2114                   21776179.8364
 -28059721.96948 -21848785.43946  21397530.1174                   21397526.0204
 -12950633.32848 -10078824.50345  21765772.0784                   21765770.0594
 11  8 22  1 45 30.0000000  0  9G10G12G26G29G05G04G25G02G30
 -17923849.53546 -13954626.83744  22845377.1254                   22845374.6604
 -23802120.30148 -18531875.14646  21090152.2974                   21090149.7074
   5182020.32046   4049125.18042  24524039.2114                   24524039.3834
  -2041799.55147  -1580859.48545  23371991.9224                   23371990.8094
 -26207037.00448 -20405274.23947  20325874.1334                   20325872.1724
 -16109793.42646 -12536059.11543  24626266.9774                   24626265.4144
 -14628128.99248 -11382914.95746  21765006.9224                   21765008.0434
 -28058533.14847 -21847859.09446  21397756.3054                   21397751.9844
 -12996723.72348 -10114739.11145  21757001.3984                   21756999.6804
 11  8 22  1 46  0.0000000  0  9G10G12G26G29G05G04G25G02G30
 -17861626.87546 -13906141.65144  22857216.6414                   22857215.8164
 -23794577.59048 -18525997.73046  21091587.2194                   21091584.7624
   5055271.80546   3950360.26242  24499918.8914                   24499919.1684
  -2157929.41847  -1671350.29445  23349893.0084                   23349892.2344
 -26237216.66048 -20428790.84147  20320131.2504                   20320129.0594
 -16064552.90646 -12500806.72643  24634875.7814                   24634874.6094
 -14686270.58247 -11428220.09346  21753943.0944                   21753943.4144
 -28057245.85247 -21846856.00946  21398000.9774                   21397996.9614
 -13042209.73848 -10150182.74845  21748345.5864                   21748343.8524
 11  8 22  1 46 30.0000000  0  9G10G12G26G29G05G04G25G02G30
 -17799130.34446 -13857443.08844  22869109.7114                   22869107.7814
 -23786515.73448 -18519715.77846  21093121.5234                   21093118.8324
   4928442.37146   3851532.28843  24475784.7114                   24475784.9344
  -2274061.46546  -1761842.78545  23327793.5864                   23327793.1884
 -26266834.15647 -20451869.39647  20314495.3834                   20314492.8364
 -16019381.52746 -12465608.15143  24643471.7344                   24643471.1954
 -14743847.55547 -11473085.26146  21742986.3914                   21742987.0474
 -28055864.94547 -21845779.98046  21398263.9614                   21398260.0164
 -13087095.71548 -10185158.84246  21739803.9534                   21739802.3404
 11  8 22  1 47  0.0000000  0  9G10G12G26G29G05G04G25G02G30
 -17736356.83246 -13808528.68344  22881055.0164                   22881054.0314
 -23777930.18748 -18513025.76046  21094755.0234                   21094753.1214
   4801540.62546   3752647.98543  24451635.9384                   24451636.4964
  -2390188.12547  -1852331.08645  23305695.1804                   23305694.6764
 -26295884.51647 -20474506.02347  20308967.2114                   20308964.8164
 -15974273.59846 -12430459.14343  24652055.1724                   24652054.9924
 -14800853.29347 -11517505.31446  21732138.8674                   21732139.3874
 -28054384.32047 -21844626.25646  21398545.5314                   21398541.6054
 -13131375.60248 -10219662.65845  21731377.8524                   21731376.0904
 11  8 22  1 47 30.0000000  0  9G10G12G26G29G05G04G25G02G30
 -17673308.20346 -13759399.91344  22893053.0314                   22893051.5474
 -23768822.03548 -18505928.52246  21096488.4454                   21096486.0984
   4674570.95747   3653710.66043  24427474.3054                   24427474.1684
  -2506307.25847  -1942813.52845  23283599.1954                   23283598.6484
 -26324367.01248 -20496700.17447  20303546.8754                   20303544.7734
 -15929228.21547 -12395358.85443  24660627.7584                   24660626.8014
 -14857286.06248 -11561478.90746  21721399.9924                   21721400.0554
 -28052803.79748 -21843394.67746  21398846.2664                   21398842.4184
 -13175048.37948 -10253693.39346  21723067.2664                   21723065.2894
 11  8 22  1 48  0.0000000  0  9G10G12G26G29G05G04G25G02G30
 -17609987.84446 -13710059.40344  22905102.4224                   22905101.3674
 -23759193.14548 -18498425.51246  21098320.5704                   21098318.3874
   4547535.88746   3554722.45143  24403300.4454                   24403301.3754
  -2622417.68047  -2033289.14845  23261503.6564                   23261502.8054
 -26352283.01248 -20518452.88547  20298234.5394                   20298232.6374
 -15884246.21147 -12360308.00843  24669186.7504                   24669186.7424
 -14913145.71948 -11605005.90246  21710770.0864                   21710770.4344
 -28051124.20348 -21842085.89446  21399166.2424                   21399162.3164
 -13218114.53148 -10287251.43446  21714871.5704                   21714870.0514
 11  8 22  1 48 30.0000000  0  9G10G12G26G29G05G04G25G02G30
 -17546401.08246 -13660511.32744  22917202.3134                   22917201.7894
 -23749047.38748 -18490519.74346  21100251.2424                   21100249.1954
   4420436.52747   3455684.14543  24379114.3594                   24379114.7234
  -2738520.31646  -2123758.74845  23239410.1804                   23239409.8594
 -26379635.50048 -20539766.50447  20293029.7664                   20293027.3484
 -15839329.60947 -12325308.03043  24677734.7194                   24677733.6174
 -14968433.78548 -11648087.50546  21700249.3444                   21700249.9184
 -28049348.16447 -21840701.96146  21399503.9614                   21399499.7504
 -13260576.32448 -10320338.55046  21706791.7274                   21706789.7854
 11  8 22  1 49  0.0000000  0  9G10G12G26G29G05G04G25G02G30
 -17482554.66846 -13610760.87444  22929352.0084                   22929350.8444
 -23738390.61748 -18482215.77946  21102279.3204                   21102277.1334
   4293271.66447   3356594.72643  24354915.3674                   24354915.6174
  -2854617.42246  -2214224.01245  23217317.7274                   23217315.9964
 -26406429.35247 -20560644.82447  20287930.8594                   20287928.8674
 -15794482.54747 -12290362.25643  24686268.0784                   24686267.9804
 -15023153.63748 -11690726.33946  21689836.3754                   21689836.8984
 -28047480.36747 -21839246.52046  21399859.5474                   21399855.2114
 -13302437.75048 -10352957.83746  21698825.6724                   21698824.0314
 11  8 22  1 49 30.0000000  0  8G10G12G26G29G05G25G02G30
 -17418445.72746 -13560805.89244  22941551.6804                   22941550.9384
 -23727219.29348 -18473510.87846  21104405.0784                   21104402.7544
   4166049.96147   3257461.03544  24330705.9384                   24330705.5904
  -2970702.19546  -2304679.67845  23195227.6254                   23195226.6254
 -26432659.96948 -20581084.25747  20282939.2114                   20282937.2424
 -15077299.24648 -11732917.71846  21679532.5234                   21679532.8284
 -28045515.85248 -21837715.71946  21400233.3284                   21400229.1884
 -13343693.57048 -10385105.22346  21690974.7734                   21690973.2974
 11  8 22  1 50  0.0000000  0  8G10G12G26G29G05G25G02G30
 -17354075.14547 -13510647.03844  22953800.8284                   22953799.4224
 -23715532.44948 -18464404.26746  21106629.0864                   21106626.8634
   4038776.86347   3158287.32244  24306486.8204                   24306487.0554
  -3086771.18446  -2395123.03845  23173140.0704                   23173139.3164
 -26458325.77748 -20601083.57947  20278055.5164                   20278053.1094
 -15130867.93748 -11774659.54246  21669338.9064                   21669339.1294
 -28043452.76648 -21836108.11246  21400625.5164                   21400621.9494
 -13384341.80148 -10416779.15746  21683240.0634                   21683238.0864
 11  8 22  1 50 30.0000000  0  8G10G12G26G29G05G25G02G30
 -17289436.93046 -13460279.63644  22966101.4844                   22966099.9574
 -23703324.16448 -18454891.33446  21108952.4144                   21108950.1094
   3911464.28547   3059082.83444  24282259.9924                   24282260.1334
  -3202813.79746  -2485545.85745  23151057.6174                   23151057.1994
 -26483419.23448 -20620636.90947  20273280.0394                   20273278.1484
 -15183850.31648 -11815944.50346  21659256.7664                   21659257.4614
 -28041282.68448 -21834417.12446  21401038.7504                   21401034.8874
 -13424373.63348 -10447972.79746  21675622.1484                   21675620.3244
 11  8 22  1 51  0.0000000  0  8G10G12G26G29G05G25G02G30
 -17224536.73046 -13409708.09144  22978452.0394                   22978450.3164
 -23690598.70348 -18444975.41146  21111373.6254                   21111371.6414
   3784112.48847   2959847.79444  24258025.6174                   24258025.6134
  -3318831.38346  -2575949.12845  23128980.2034                   23128980.2814
 -26507943.64148 -20639746.82347  20268613.6334                   20268611.2034
 -15236248.64548 -11856774.36546  21649285.6564                   21649286.0664
 -28039008.79748 -21832645.25946  21401471.6094                   21401467.2074
 -13463792.08648 -10478688.47546  21668120.8364                   21668119.3404
 11  8 22  1 51 30.0000000  0  8G10G12G26G29G05G25G02G30
 -17159380.06646 -13358936.69744  22990850.5084                   22990849.3324
 -23677360.34048 -18434659.82846  21113892.8674                   21113890.8754
   3656722.25847   2860582.77344  24233784.1024                   24233784.2464
  -3434825.05547  -2666333.80645  23106907.7114                   23106907.1954
 -26531902.63348 -20658416.16847  20264054.1804                   20264052.0234
 -15288065.05148 -11897150.76946  21639425.4224                   21639425.5864
 -28036634.02348 -21830794.77246  21401923.7344                   21401918.9844
 -13502599.95348 -10508928.36546  21660736.1024                   21660734.4104
 11  8 22  1 52  0.0000000  0  8G10G12G26G29G05G25G02G30
 -17093970.56647 -13307968.30044  23003297.7034                   23003295.7464
 -23663611.79748 -18423946.69246  21116509.3054                   21116507.3284
   3529295.85546   2761289.59843  24209535.5864                   24209534.7544
  -3550794.05547  -2756699.21444  23084839.1094                   23084837.9614
 -26555297.62548 -20676646.02747  20259601.9924                   20259599.9574
 -15339299.85948 -11937073.99746  21629675.6644                   21629676.0124
 -28034159.82048 -21828866.81146  21402394.4454                   21402390.2894
 -13540798.32448 -10538693.31846  21653466.9384                   21653465.6644
 11  8 22  1 52 30.0000000  0  8G10G12G26G29G05G25G02G30
 -17028313.83246 -13256807.23944  23015791.4304                   23015789.9844
 -23649357.76648 -18412839.67446  21119221.9224                   21119219.5234
   3401833.55946   2661968.43644  24185279.7894                   24185280.2504
  -3666739.51647  -2847046.28145  23062775.5784                   23062775.3364
 -26578133.02048 -20694439.83047  20255256.6094                   20255254.5164
 -15389955.45748 -11976545.87946  21620036.2114                   21620036.8284
 -28031589.22348 -21826863.72646  21402883.8754                   21402879.1054
 -13578390.25448 -10567985.73646  21646313.9534                   21646312.0004
 11  8 22  1 53  0.0000000  0  8G10G12G26G29G05G25G02G30
 -16962417.19547 -13205459.24844  23028331.4844                   23028329.9024
 -23634604.59448 -18401343.70546  21122029.2894                   21122027.0004
   3274334.05146   2562618.30844  24161017.0164                   24161017.1334
  -3782664.69147  -2937377.54545  23040715.9224                   23040714.1374
 -26600413.68748 -20711801.38347  20251016.7584                   20251014.5984
 -15440036.02748 -12015569.70346  21610506.3594                   21610506.4494
 -28028927.06648 -21824789.31446  21403389.9304                   21403385.7544
 -13615380.61348 -10596809.39546  21639274.5004                   21639273.1564
 11  8 22  1 53 30.0000000  0  8G10G12G26G29G05G25G02G30
 -16896279.29747 -13153923.24744  23040916.8134                   23040915.9694
 -23619350.02348 -18389457.05246  21124932.0864                   21124930.0744
   3146804.87146   2463245.10043  24136748.9774                   24136748.7274
  -3898563.62147  -3027688.34545  23018661.1644                   23018660.6254
 -26622136.72348 -20728728.41547  20246883.2664                   20246881.0434
 -15489536.93448 -12054141.83946  21601086.4844                   21601086.5594
 -28026169.52748 -21822640.57046  21403914.7734                   21403910.5904
 -13651765.50048 -10625161.26146  21632351.1484                   21632348.7774
 11  8 22  1 54  0.0000000  0  8G10G12G26G29G05G25G02G30
 -16829902.95747 -13102201.47844  23053547.8054                   23053546.5204
 -23603596.49648 -18377181.59546  21127930.2504                   21127927.6214
   3019249.19146   2363851.18043  24112475.3594                   24112475.9804
  -4014434.76647  -3117977.51245  22996611.5314                   22996610.2584
 -26643303.23048 -20745221.79447  20242854.9924                   20242853.2304
 -15538457.80548 -12092261.98946  21591777.2424                   21591777.6994
 -28023317.26648 -21820418.02846  21404457.4774                   21404453.4384
 -13687545.26648 -10653041.58846  21625542.0234                   21625540.6884
 11  8 22  1 54 30.0000000  0  8G10G12G26G29G05G25G02G30
 -16763293.90647 -13050298.30944  23066222.8674                   23066221.6644
 -23587348.52048 -18364520.85546  21131021.8284                   21131019.3444
   2891667.50846   2264436.97643  24088197.4614                   24088197.7504
  -4130279.34047  -3208245.95945  22974566.5314                   22974566.5864
 -26663916.92648 -20761284.40647  20238932.6414                   20238930.2234
 -15586801.06648 -12129932.05446  21582577.8204                   21582578.0824
 -28020373.23048 -21818123.97946  21405017.5164                   21405013.7704
 -13722723.00048 -10680452.81346  21618848.2274                   21618846.3054
 11  8 22  1 55  0.0000000  0  8G10G12G26G29G05G25G02G30
 -16696456.73447 -12998217.45344  23078942.3674                   23078940.4304
 -23570609.79748 -18351477.70746  21134207.1094                   21134204.9614
   2764061.26246   2165003.71543  24063914.6954                   24063915.4734
  -4246097.64547  -3298493.94945  22952527.5784                   22952525.7194
 -26683980.56648 -20776918.41147  20235114.3524                   20235112.2034
 -15634568.29348 -12167153.27846  21573487.9694                   21573488.8094
 -28017339.64548 -21815760.14046  21405594.8754                   21405590.9304
 -13757301.07448 -10707396.77746  21612268.0164                   21612266.1374
 11  8 22  1 55 30.0000000  0  8G10G12G26G29G05G25G02G30
 -16629388.00847 -12945956.13044  23091704.7344                   23091703.5904
 -23553376.35248 -18338049.05646  21137486.6804                   21137484.2814
   2636439.75046   2065558.44743  24039629.1884                   24039628.8754
  -4361881.90647  -3388715.36145  22930494.5164                   22930494.0594
 -26703489.18048 -20792119.92147  20231401.9454                   20231399.8204
 -15681752.98448 -12203920.56746  21564509.0474                   21564509.6804
 -28014210.66448 -21813321.96846  21406190.0704                   21406185.8594
 -13791273.62948 -10733868.89846  21605803.1334                   21605801.3054
 11  8 22  1 56  0.0000000  0  8G10G12G26G29G05G25G02G30
 -16562096.12547 -12893520.92544  23104510.3914                   23104508.7154
 -23535655.16048 -18324240.34746  21140858.8984                   21140856.6684
   2508800.99647   1966099.82943  24015340.8674                   24015340.5234
  -4477635.65247  -3478913.04645  22908467.0394                   22908466.2034
 -26722449.12948 -20806893.90847  20227794.0864                   20227792.2544
 -15728360.21948 -12240237.88946  21555640.0864                   21555640.5394
 -28010992.04348 -21810813.95846  21406802.7814                   21406799.0084
 -13824646.50448 -10759873.74046  21599452.7814                   21599451.1764
 11  8 22  1 56 30.0000000  0  8G10G12G26G29G05G25G02G30
 -16494581.58647 -12840912.22044  23117357.5004                   23117356.2074
 -23517446.32448 -18310051.66146  21144323.7114                   21144321.7854
   2381150.56647   1866632.09744  23991049.5234                   23991048.5594
  -4593355.05947  -3569083.96245  22886446.8054                   22886445.4144
 -26740859.39148 -20821239.56047  20224290.9614                   20224289.0314
 -15774387.47348 -12276103.29246  21546881.2344                   21546881.9694
 -28007681.91448 -21808234.64046  21407432.6804                   21407428.5944
 -13857417.93748 -10785409.92546  21593216.5634                   21593215.0314
 11  8 22  1 57  0.0000000  0  8G10G12G26G29G05G25G02G30
 -16426850.46547 -12788134.74044  23130246.5944                   23130245.2774
 -23498755.41448 -18295487.32646  21147880.5004                   21147878.5744
   2253488.19947   1767155.07043  23966755.8444                   23966755.6564
  -4709041.91847  -3659229.49945  22864432.0084                   22864430.9964
 -26758724.19548 -20835160.17947  20220891.5944                   20220889.2624
 -15819837.91848 -12311519.22446  21538232.2974                   21538232.9024
 -28004283.77748 -21805586.74546  21408079.5634                   21408075.6024
 -13889591.74648 -10810480.41946  21587093.8594                   21587092.6024
 11  8 22  1 57 30.0000000  0  8G10G12G26G29G05G25G02G30
 -16358899.60947 -12735186.06744  23143177.1564                   23143175.9414
 -23479578.57848 -18280544.35146  21151529.5164                   21151527.6954
   2125823.69547   1667676.32843  23942462.0554                   23942461.8164
  -4824688.77747  -3749343.89745  22842424.9454                   22842423.1684
 -26776038.93748 -20848652.18847  20217596.7664                   20217594.3874
 -15864705.50848 -12346480.98346  21529694.2194                   21529694.9344
 -28000792.00848 -21802865.89346  21408744.1024                   21408739.6604
 -13921162.65248 -10835081.13546  21581086.3204                   21581084.9184
 11  8 22  1 58  0.0000000  0  8G10G12G26G29G05G25G02G30
 -16290735.44947 -12682071.17844  23156148.0634                   23156147.2704
 -23459921.42248 -18265227.10746  21155270.5314                   21155268.2854
   1998155.88347   1568195.02344  23918167.6644                   23918167.4654
  -4940297.75847  -3839428.80645  22820425.4924                   22820425.5664
 -26792808.58248 -20861719.43647  20214405.3204                   20214403.0634
 -15908993.82448 -12380991.36846  21521266.4774                   21521267.4804
 -27997210.62948 -21800075.20646  21409425.2734                   21409421.3834
 -13952134.95348 -10859215.41146  21575192.2734                   21575190.8244
 11  8 22  1 58 30.0000000  0  8G10G12G26G29G05G25G02G30
 -16222361.98847 -12628793.17744  23169159.4304                   23169157.8244
 -23439787.05948 -18249538.01246  21159101.8204                   21159099.5354
   1870487.36347   1468713.15344  23893873.2424                   23893872.9774
  -5055867.61347  -3929483.18645  22798432.8984                   22798431.8164
 -26809035.27048 -20874363.60647  20211317.3984                   20211315.2034
 -15952703.53148 -12415050.88246  21512948.7734                   21512949.1214
 -27993540.75048 -21797215.56846  21410123.5634                   21410119.7704
 -13982510.04348 -10882884.29846  21569412.4534                   21569411.1024
 11  8 22  1 59  0.0000000  0  8G10G12G26G29G05G25G02G30
 -16153781.89147 -12575354.18144  23182209.3134                   23182208.4734
 -23419177.82848 -18233478.87846  21163023.5554                   21163021.6174
   1742821.68046   1369233.56844  23869579.4384                   23869578.4024
  -5171397.00047  -4019506.03945  22776448.3834                   22776447.2154
 -26824720.27348 -20886585.68947  20208332.3984                   20208330.2584
 -15995834.57048 -12448659.46846  21504741.1884                   21504741.6724
 -27989782.87948 -21794287.34546  21410838.8444                   21410834.5594
 -14012288.65648 -10906088.42346  21563745.6414                   21563744.0084
 11  8 22  1 59 30.0000000  0  8G10G12G26G29G05G25G02G30
 -16084997.72747 -12521756.14944  23195298.3134                   23195297.8714
 -23398095.83248 -18217051.37346  21167035.6954                   21167033.5514
   1615162.05546   1269758.60444  23845286.3204                   23845285.1884
  -5286884.23047  -4109496.06945  22754471.9924                   22754471.0864
 -26839864.78148 -20898386.60047  20205450.5084                   20205448.5554
 -16038387.00048 -12481817.21246  21496643.9844                   21496644.4654
 -27985937.53148 -21791290.97446  21411570.5864                   21411566.2154
 -14041471.41048 -10928828.23446  21558192.0784                   21558190.8444
 11  8 22  2  0  0.0000000  0  8G10G12G26G29G05G25G02G30
 -16016009.82046 -12467999.39543  23208427.1414                   23208425.9264
 -23376540.43748 -18200254.98146  21171137.4774                   21171135.2624
   1487514.55147   1170293.15544  23820995.3524                   23820995.1884
  -5402324.51647  -4199449.50645  22732504.3674                   22732503.4924
 -26854467.08648 -20909765.00947  20202672.0164                   20202670.3244
 -16080357.80548 -12514521.73346  21488656.9924                   21488657.4844
 -27982001.70348 -21788224.10946  21412319.4614                   21412315.2304
 -14070056.15248 -10951102.06146  21552752.8284                   21552751.1844
 11  8 22  2  0 30.0000000  0  8G10G12G26G29G05G25G02G30
 -15946824.82047 -12414089.09643  23221592.4694                   23221590.5434
 -23354517.77048 -18183094.47246  21175327.9144                   21175326.2384
   1359878.72346   1070836.78344  23796707.4224                   23796706.9774
  -5517720.54747  -4289368.48845  22710545.5164                   22710544.4264
 -26868532.58648 -20920725.13247  20199995.3984                   20199993.2464
 -16121750.98848 -12546776.14846  21480780.4614                   21480780.5594
 -27977979.80148 -21785090.14146  21413085.0944                   21413080.7544
 -14098047.63748 -10972913.60846  21547426.3984                   21547425.0234
 11  8 22  2  1  0.0000000  0  8G10G12G26G29G05G25G02G30
 -15877444.67247 -12360026.60243  23234795.9064                   23234794.0634
 -23332029.14848 -18165570.88646  21179607.6804                   21179605.6024
   1232258.64846    971392.63844  23772421.5314                   23772421.4804
  -5633069.64147  -4379250.85345  22688594.9844                   22688592.9184
 -26882061.96948 -20931267.50247  20197420.7814                   20197418.9144
 -16162565.85248 -12578579.93646  21473013.4454                   21473013.6094
 -27973871.57847 -21781888.93546  21413866.2584                   21413862.5044
 -14125445.79747 -10994262.82746  21542212.9064                   21542211.0594
 11  8 22  2  1 30.0000000  0  8G10G12G26G29G05G25G02G30
 -15807866.82047 -12305810.16343  23248035.4064                   23248033.8014
 -23309071.69548 -18147681.98446  21183976.2664                   21183974.4024
   1104662.81646    871967.39244  23748140.8364                   23748140.4304
  -5748364.78547  -4469091.19845  22666655.1414                   22666654.8524
 -26895050.91048 -20941388.75447  20194949.3134                   20194947.1294
 -16202797.00448 -12609928.88246  21465357.4614                   21465357.9694
 -27969671.63747 -21778616.24746  21414665.6804                   21414661.9694
 -14152246.09447 -11015146.19446  21537112.7034                   21537110.9734
 11  8 22  2  2  0.0000000  0  8G10G12G26G29G05G25G02G30
 -15738100.72747 -12251447.01243  23261311.6954                   23261309.9534
 -23285654.43448 -18129434.79646  21188432.5084                   21188430.6334
    977088.11746    772558.67644  23723864.4304                   23723863.8364
  -5863610.85247  -4558893.33345  22644724.1644                   22644723.3284
 -26907507.53948 -20951095.20547  20192578.8204                   20192576.2464
 -16242451.16848 -12640828.23046  21457811.5314                   21457811.8444
 -27965386.89848 -21775277.46746  21415481.1724                   21415477.0784
 -14178455.88748 -11035569.41946  21532125.0944                   21532123.7034
 11  8 22  2  2 30.0000000  0  8G10G12G26G29G05G25G02G30
 -14092728.23847 -10969338.54244  23574415.2344                   23574413.6724
 -21686357.22348 -16883229.19446  21492768.7194                   21492766.5354
   2424965.31346   1900774.75543  23999386.1334                   23999385.3054
  -4403379.19547  -3421050.43745  22922597.5554                   22922595.4454
 -25344009.87948 -19732785.32547  20490102.4304                   20490100.1334
 -14706104.16048 -11443674.71546  21750168.7504                   21750169.0204
 -26385594.54748 -20544270.44146  21716105.5084                   21716101.3054
 -12628652.26648  -9827930.22846  21827042.6484                   21827040.8674
 11  8 22  2  3  0.0000000  0  8G10G12G26G29G05G25G02G30
 -14022588.19147 -10914683.99744  23587763.0474                   23587761.7114
 -21662020.90248 -16864265.85546  21497399.5084                   21497397.7344
   2297448.74246   1801411.27544  23975120.2664                   23975120.5704
  -4518516.22347  -3510767.59445  22900687.4534                   22900686.2384
 -25355400.57448 -19741661.18847  20487934.8364                   20487932.5664
 -14744599.12948 -11473670.79546  21742843.4694                   21742843.9924
 -26381135.35547 -20540795.73846  21716954.0164                   21716949.8954
 -12653678.12547  -9847430.89346  21822280.6724                   21822278.7274
 11  8 22  2  3 30.0000000  0  8G10G12G26G29G05G25G02G30
 -13952268.31647 -10859889.33844  23601143.7894                   23601142.3794
 -21637231.53148 -16844949.47246  21502116.7274                   21502114.7194
   2169963.44146   1702072.18644  23950860.4144                   23950859.8054
  -4633599.00047  -3600442.42945  22878788.0554                   22878786.4964
 -25366262.93748 -19750125.35847  20485867.7424                   20485865.6414
 -14782517.33648 -11503217.44646  21735627.6174                   21735628.1644
 -26376592.25047 -20537255.64746  21717819.0944                   21717814.5784
 -12678115.98847  -9866473.39946  21817630.1564                   21817629.0704
 11  8 22  2  4  0.0000000  0  8G10G12G26G29G05G25G02G30
 -13881770.51647 -10804955.99044  23614559.4774                   23614558.2854
 -21611990.73448 -16825281.34146  21506920.2814                   21506918.1604
   2042513.30546   1602760.48544  23926607.4924                   23926607.6334
  -4748625.20347  -3690073.20145  22856898.9064                   22856898.9774
 -25376598.24648 -19758178.82947  20483901.1094                   20483898.8364
 -14819858.73048 -11532314.63746  21728522.0864                   21728522.3634
 -26371964.93447 -20533649.93946  21718699.3204                   21718695.0944
 -12701966.48847  -9885058.20246  21813091.7344                   21813090.1174
 11  8 22  2  4 30.0000000  0  8G10G12G26G29G05G25G02G30
 -13811095.88747 -10749884.88744  23628008.2814                   23628007.5904
 -21586299.54348 -16805262.25346  21511808.9304                   21511807.2664
   1915103.80946   1503480.40044  23902362.9224                   23902362.0434
  -4863591.22347  -3779657.08345  22835021.4064                   22835020.5664
 -25386406.15648 -19765821.35547  20482035.0394                   20482032.2894
 -14856621.52748 -11560960.97346  21721526.1094                   21721526.6764
 -26367251.68748 -20529977.26746  21719596.3204                   21719592.0274
 -12725228.63348  -9903184.55246  21808665.0004                   21808663.2934
 11  8 22  2  5  0.0000000  0  8G10G12G26G29G05G25G02G30
 -13740249.37147 -10694679.85844  23641490.3914                   23641488.3484
 -21560162.40647 -16784895.67346  21516782.8364                   21516780.6294
   1787735.83646   1404232.69944  23878124.5784                   23878124.2774
  -4978497.56247  -3869194.43845  22813155.7974                   22813154.4304
 -25395690.17648 -19773055.64347  20480268.0864                   20480266.0274
 -14892808.27048 -11589158.43446  21714640.0084                   21714640.6884
 -26362455.05948 -20526239.63946  21720508.9304                   21720504.8134
 -12747905.66048  -9920854.96946  21804349.7894                   21804348.2424
 11  8 22  2  5 30.0000000  0  8G10G12G26G29G05G25G02G30
 -13669230.35547 -10639340.38044  23655004.8204                   23655003.2504
 -21533578.00048 -16764180.58446  21521841.5084                   21521839.6644
   1660416.22746   1305022.69644  23853897.5784                   23853896.9924
  -5093338.78947  -3958681.05445  22791302.2814                   22791301.2384
 -25404448.50048 -19779880.29647  20478601.4064                   20478599.2424
 -14928415.75048 -11616904.53446  21707864.0164                   21707864.6684
 -26357571.57448 -20522434.32746  21721438.0704                   21721434.1644
 -12769995.07448  -9938067.51346  21800145.9304                   21800144.8834
 11  8 22  2  6  0.0000000  0  8G10G12G26G29G05G25G02G30
 -13598043.24646 -10583869.98744  23668550.6884                   23668550.4884
 -21506550.46147 -16743120.17646  21526984.8054                   21526983.0004
   1533147.05146   1205851.98844  23829678.6724                   23829677.7384
  -5208114.86347  -4048116.89545  22769460.9064                   22769459.6054
 -25412684.00448 -19786297.57047  20477034.0554                   20477031.9064
 -14963445.82448 -11644200.69646  21701198.1884                   21701198.3054
 -26352603.38748 -20518562.99646  21722383.5784                   21722379.3914
 -12791499.55148  -9954824.25646  21796054.0234                   21796052.4064
 11  8 22  2  6 30.0000000  0  9G10G12G26G29G05G15G25G02G30
 -13526690.47346 -10528270.43043  23682129.3054                   23682127.6884
 -21479081.77048 -16721716.02446  21532211.9144                   21532209.7424
   1405931.71146   1106723.20344  23805470.4224                   23805468.8984
  -5322823.96147  -4137500.57145  22747632.5394                   22747631.7774
 -25420398.16048 -19792308.58747  20475566.4774                   20475563.8404
   9270361.44556   7234969.63353  24708115.7584                   24708117.2234
 -14997898.62548 -11671047.05146  21694642.1334                   21694642.9304
 -26347550.39548 -20514625.59546  21723345.1024                   21723340.9384
 -12812419.91448  -9971125.84246  21792073.4304                   21792071.5394
 11  8 22  2  7  0.0000000  0  9G10G12G26G29G05G15G25G02G30
 -13455180.91046 -10472548.75043  23695736.8134                   23695735.6214
 -21451180.61747 -16699974.88346  21537521.2894                   21537519.0234
   1278767.62946   1007634.38344  23781270.8674                   23781270.6684
  -5437470.17647  -4226835.20645  22725816.0164                   22725815.4304
 -25427598.82448 -19797919.48247  20474196.3594                   20474194.1334
   9144652.33646   7137014.69843  24684193.6334                   24684195.2584
 -15031780.50448 -11697448.52046  21688194.7504                   21688194.9964
 -26342418.70348 -20510626.87946  21724321.6414                   21724317.3834
 -12832763.32048  -9986977.85546  21788201.6644                   21788200.3404
 11  8 22  2  7 30.0000000  0  9G10G12G26G29G05G15G25G02G30
 -13383520.99646 -10416709.88543  23709373.8204                   23709372.2114
 -21422853.43747 -16677901.77746  21542912.0554                   21542909.6844
   1151654.53546    908585.30244  23757082.4384                   23757082.1214
  -5552055.41047  -4316122.36245  22704011.2034                   22704009.4694
 -25434291.27348 -19803134.36847  20472922.5314                   20472919.9344
   9018803.29746   7038950.68743  24660246.3134                   24660246.4574
 -15065095.85947 -11723408.54546  21681855.0394                   21681855.4184
 -26337212.76248 -20506570.29846  21725312.5084                   21725308.5514
 -12852534.82048 -10002384.23946  21784439.5164                   21784437.8134
 11  8 22  2  8  0.0000000  0  9G10G12G26G29G05G15G25G02G30
 -13311710.69947 -10360753.79244  23723038.4694                   23723037.3634
 -21394099.82447 -16655496.38746  21548383.1024                   21548381.5514
   1024598.78146    809580.86844  23732904.8914                   23732903.7074
  -5666575.04747  -4405358.38345  22682218.9454                   22682217.4734
 -25440474.51648 -19807952.46247  20471745.6174                   20471743.2934
   8892820.06646   6940782.04444  24636272.2424                   24636272.6564
 -15097842.21947 -11748925.19246  21675623.4144                   21675623.7734
 -26331929.42648 -20502453.40146  21726317.6724                   21726313.6804
 -12871732.77348 -10017343.68446  21780785.9224                   21780784.5904
 11  8 22  2  8 30.0000000  0  9G10G12G26G29G05G15G25G02G30
 -13239745.11747 -10304676.77043  23736732.7974                   23736731.8484
 -21364914.19547 -16632754.36146  21553937.2584                   21553935.2504
    897611.13746    710629.52744  23708739.8364                   23708738.6094
  -5781019.81647  -4494536.09145  22660440.4774                   22660439.4064
 -25446142.16048 -19812368.80947  20470667.2974                   20470664.6484
   8766712.07046   6842516.25944  24612273.9924                   24612274.6254
 -15130012.36347 -11773992.86246  21669501.7664                   21669502.4064
 -26326561.30148 -20498270.45546  21727339.3364                   21727334.8364
 -12890350.61348 -10031851.10646  21777243.5164                   21777242.3484
 11  8 22  2  9  0.0000000  0  9G10G12G26G29G05G15G25G02G30
 -13167628.06647 -10248481.70044  23750456.7974                   23750455.6214
 -21335301.12947 -16609679.27146  21559572.7194                   21559570.5664
    770693.82046    611732.98644  23684587.5554                   23684586.9264
  -5895389.12947  -4583655.00645  22638676.9534                   22638675.3364
 -25451297.21548 -19816385.71347  20469686.3834                   20469683.8324
   8640480.99646   6744154.55944  24588253.3134                   24588254.3984
 -15161608.05948 -11798612.88746  21663489.1804                   21663489.8364
 -26321110.16048 -20494022.82046  21728376.7034                   21728372.6954
 -12908390.97748 -10045908.53746  21773810.6724                   21773808.7154
 11  8 22  2  9 30.0000000  0  9G10G12G26G29G05G15G25G02G30
 -13095363.32847 -10192171.49043  23764208.4304                   23764206.5204
 -21305263.94147 -16586273.67646  21565288.8914                   21565286.3444
    643849.36746    512893.21644  23660450.0474                   23660449.4774
  -6009682.21947  -4672714.49045  22616927.7344                   22616926.8244
 -25455942.56648 -19820005.45247  20468802.4924                   20468800.1914
   8514128.37946   6645698.13744  24564208.5864                   24564210.2664
 -15192630.78148 -11822786.45046  21657585.9534                   21657586.4694
 -26315577.08648 -20489711.33746  21729429.2734                   21729425.5314
 -12925855.93448 -10059517.60746  21770487.0474                   21770485.5514
 11  8 22  2 10  0.0000000  0  9G10G12G26G29G05G15G25G02G30
 -13022952.39147 -10135747.34943  23777987.5784                   23777985.7974
 -21274803.53947 -16562538.32446  21571084.9454                   21571082.9884
    517082.77346    414114.14244  23636327.4844                   23636326.7114
  -6123895.70347  -4761711.98945  22595193.3524                   22595192.3984
 -25460078.31248 -19823228.10947  20468015.5394                   20468013.0784
   8387658.05547   6547150.00744  24540142.1174                   24540143.0044
 -15223079.53148 -11846512.75546  21651791.7974                   21651792.2894
 -26309960.81248 -20485335.02246  21730498.3204                   21730494.3674
 -12942745.23448 -10072678.10746  21767272.5234                   21767271.3324
 11  8 22  2 10 30.0000000  0  9G10G12G26G29G05G15G25G02G30
 -12950397.45746 -10079211.04443  23791794.3134                   23791792.9694
 -21243921.92247 -16538474.75246  21576961.5234                   21576959.6994
    390397.80547    315398.65344  23612220.0164                   23612219.2664
  -6238027.36347  -4850645.71445  22573475.0234                   22573473.5824
 -25463705.94547 -19826054.82247  20467324.8754                   20467322.4414
   8261072.74246   6448512.27644  24516053.8914                   24516054.6174
 -15252954.65647 -11869792.08346  21646106.7974                   21646107.1374
 -26304261.26648 -20480893.81246  21731582.9064                   21731578.5824
 -12959060.05148 -10085390.97946  21764167.9144                   21764166.9804
 11  8 22  2 11  0.0000000  0  9G10G12G26G29G05G15G25G02G30
 -12877700.38746 -10022563.97643  23805627.8134                   23805626.7034
 -21212621.00448 -16514084.43546  21582918.0084                   21582915.9494
    263798.96546    216750.28444  23588128.7114                   23588128.0084
  -6352074.66047  -4939513.69945  22551772.1484                   22551770.9734
 -25466826.04348 -19828486.05147  20466731.2194                   20466729.1134
   8134376.32847   6349788.00644  24491944.4064                   24491944.6884
 -15282255.66848 -11892624.04746  21640531.0234                   21640531.4694
 -26298477.52047 -20476386.99546  21732683.6254                   21732679.5784
 -12974800.58648 -10097656.34146  21761172.9774                   21761171.5634
 11  8 22  2 11 30.0000000  0  9G10G12G26G29G05G15G25G02G30
 -12804862.09446  -9965806.86743  23819488.2664                   23819487.3634
 -21180901.51247 -16489367.96946  21588953.8914                   21588952.0044
    137291.14847    118172.83144  23564055.4064                   23564054.7464
  -6466033.38347  -5028312.66845  22530086.8134                   22530084.8984
 -25469438.64848 -19830521.83347  20466233.9144                   20466231.3594
   8007572.58646   6250980.03543  24467814.3054                   24467814.5904
 -15310981.46148 -11915007.79146  21635064.5004                   21635065.1054
 -26292607.64848 -20471813.07146  21733800.4694                   21733796.1844
 -12989966.55948 -10109473.99046  21758287.4304                   21758285.5234
 11  8 22  2 12  0.0000000  0  9G10G12G26G29G05G15G25G02G30
 -12731891.92246  -9908946.98043  23833373.6414                   23833372.2424
 -21148773.10548 -16464332.86946  21595067.6484                   21595065.6454
     10871.27047     19663.92444  23539997.6334                   23539997.3284
  -6579908.85247  -5117046.75945  22508416.8524                   22508415.2974
 -25471552.42648 -19832168.92547  20465831.8914                   20465829.4804
   7880657.34446   6152085.20443  24443662.1174                   24443662.8054
 -15339139.58248 -11936949.19346  21629706.1254                   21629706.6294
 -26286659.03148 -20467177.79946  21734932.4144                   21734928.2384
 -13004566.07848 -10120850.25146  21755508.8984                   21755507.3794
 11  8 22  2 12 30.0000000  0  9G10G12G26G29G05G15G25G02G30
 -12658785.77046  -9851981.16043  23847285.3134                   23847284.5554
 -21116231.51248 -16438975.79346  21601260.4774                   21601258.1954
   -115450.35247    -78768.44944  23515959.8754                   23515959.3484
  -6693692.46547  -5205709.29145  22486764.6644                   22486763.6954
 -25473162.32048 -19833423.37947  20465525.5944                   20465523.0354
   7753640.06646   6053110.85843  24419491.5234                   24419491.8674
 -15366723.77048 -11958443.37546  21624456.7974                   21624457.4654
 -26280624.98448 -20462475.93846  21736080.5084                   21736076.6844
 -13018593.84448 -10131780.99646  21752839.4534                   21752838.3484
 11  8 22  2 13  0.0000000  0  9G10G12G26G29G05G15G25G02G30
 -12585546.27046  -9794911.39243  23861223.0164                   23861221.6884
 -21083278.73848 -16413298.32746  21607531.0554                   21607528.9694
   -241670.03147   -177121.35544  23491941.1254                   23491940.5354
  -6807381.83647  -5294298.37145  22465130.2034                   22465128.5164
 -25474269.93048 -19834286.43847  20465314.8364                   20465312.3324
   7626523.19146   5954058.87143  24395302.4694                   24395301.7194
 -15393734.56248 -11979490.74346  21619317.1564                   21619317.3954
 -26274505.24648 -20457707.32146  21737245.1644                   21737241.0984
 -13032050.94148 -10142267.06246  21750279.0394                   21750277.4654
 11  8 22  2 13 30.0000000  0  9G10G12G26G29G05G15G25G02G30
 -12512179.19546  -9737742.29643  23875183.8754                   23875183.1644
 -21049921.18448 -16387305.44946  21613878.5634                   21613876.6524
   -367787.31647   -275394.51044  23467941.2344                   23467940.5084
  -6920978.36347  -5382815.08045  22443513.4614                   22443511.9804
 -25474880.11348 -19834761.89147  20465198.4774                   20465196.1884
   7499306.35946   5854929.10443  24371093.0554                   24371093.6054
 -15420175.70748 -12000094.23446  21614285.4844                   21614286.1174
 -26268303.12548 -20452874.49946  21738425.5864                   21738421.2464
 -13044941.95748 -10152312.02646  21747825.8364                   21747824.4654
 11  8 22  2 14  0.0000000  0  9G10G12G26G29G05G15G25G02G30
 -12438687.43747  -9680475.94643  23889169.7114                   23889168.2304
 -21016161.80548 -16360999.46346  21620302.8914                   21620301.2734
   -493799.38347   -373585.67244  23443962.4774                   23443960.8954
  -7034480.66847  -5471258.37645  22421914.6884                   22421913.1374
 -25474995.33248 -19834851.66747  20465176.3674                   20465174.1374
   7371991.82046   5755723.03943  24346866.6804                   24346865.9574
 -15446048.58648 -12020254.92146  21609361.9064                   21609362.9614
 -26262019.46547 -20447978.15246  21739621.1094                   21739616.9064
 -13057269.00448 -10161917.53146  21745480.1724                   21745478.4924
 11  8 22  2 14 30.0000000  0  9G10G12G26G29G05G15G25G02G30
 -12365073.33246  -9623114.26843  23903177.2584                   23903176.6024
 -20982002.18747 -16334381.60046  21626803.6024                   21626801.2384
   -619702.03947   -471691.57744  23420004.4304                   23420003.0784
  -7147886.27047  -5559626.32045  22400334.3984                   22400332.7854
 -25474616.72748 -19834556.64047  20465248.4694                   20465246.4184
   7244582.52346   5656443.25043  24322620.8364                   24322620.8364
 -15471353.28147 -12039972.86246  21604546.8834                   21604546.9384
 -26255653.53547 -20443017.69045  21740832.6724                   21740828.2974
 -13069032.83248 -10171084.15746  21743241.2034                   21743240.2114
 11  8 22  2 15  0.0000000  0  9G10G12G26G29G05G15G25G02G30
 -12291337.70747  -9565657.96643  23917208.9224                   23917207.2074
 -20947443.89847 -16307453.08546  21633379.5084                   21633377.9344
   -745489.93447   -569708.05944  23396067.1644                   23396066.2734
  -7261191.31247  -5647915.89745  22378772.9534                   22378771.7504
 -25473744.47348 -19833876.94347  20465414.4304                   20465412.1024
   7117083.03946   5557093.15043  24298358.2114                   24298358.9884
 -15496088.88347 -12059247.35746  21599839.8594                   21599840.1524
 -26249203.82447 -20437991.94446  21742059.7974                   21742056.2194
 -13080233.27348 -10179811.76046  21741110.1024                   21741108.5984
 11  8 22  2 15 30.0000000  0  9G10G12G26G29G05G15G25G02G30
 -12217483.85547  -9508109.45143  23931262.7974                   23931261.9774
 -20912490.45747 -16280216.65246  21640030.7974                   21640029.0354
   -871160.48847   -667633.11444  23372153.3834                   23372152.1054
  -7374394.73447  -5736126.29045  22357230.7664                   22357229.6254
 -25472381.25048 -19832814.68347  20465673.8524                   20465671.8404
   6989494.88746   5457673.89043  24274079.5554                   24274079.1374
 -15520257.09848 -12078079.72646  21595240.6644                   21595241.3134
 -26242671.34047 -20432901.67646  21743302.7274                   21743298.9734
 -13090872.82048 -10188102.35146  21739085.3524                   21739083.9694
 11  8 22  2 16  0.0000000  0  9G10G12G26G29G05G15G25G02G30
 -12143513.19946  -9450469.96043  23945338.5084                   23945337.9344
 -20877143.14547 -16252673.31446  21646756.9534                   21646755.5594
   -996708.92247   -765463.00344  23348261.2114                   23348260.5984
  -7487493.41847  -5824255.04145  22335708.7894                   22335707.5314
 -25470527.73448 -19831370.38047  20466026.5234                   20466024.2384
   6861821.68846   5358188.42344  24249784.2194                   24249783.8914
 -15543857.48848 -12096469.62846  21590749.5784                   21590750.3874
 -26236054.72347 -20427745.87546  21744562.1884                   21744558.0314
 -13100951.70348 -10195956.01446  21737167.3914                   21737165.8794
 11  8 22  2 16 30.0000000  0  9G10G12G26G29G05G15G25G02G30
 -12069428.39846  -9392741.58943  23959436.7734                   23959435.8714
 -20841404.09447 -16224824.71746  21653558.4774                   21653556.3914
  -1122131.39547   -863194.72444  23324394.8914                   23324393.7304
  -7600485.33247  -5912300.63145  22314206.8754                   22314206.0164
 -25468186.00848 -19829545.65247  20466472.4924                   20466469.8524
   6734066.80147   5258639.27144  24225473.2344                   24225473.7234
 -15566890.57848 -12114417.49046  21586366.3834                   21586367.2774
 -26229353.76247 -20422524.33846  21745837.4694                   21745833.4534
 -13110471.32048 -10203373.89946  21735356.3524                   21735354.4414
 11  8 22  2 17  0.0000000  0  9G10G12G26G29G05G15G25G02G30
 -11995232.18046  -9334926.39743  23973556.1094                   23973554.6134
 -20805276.39547 -16196673.28946  21660433.2734                   21660431.1884
  -1247424.52047   -960825.67144  23300551.6954                   23300551.0204
  -7713368.40247  -6000261.38645  22292726.2664                   22292725.0904
 -25465357.20748 -19827341.37847  20467010.3524                   20467008.0394
   6606232.57846   5159028.32744  24201146.5634                   24201147.0394
 -15589357.54748 -12131924.21346  21582091.2034                   21582091.6054
 -26222568.91847 -20417237.45146  21747128.2194                   21747124.0434
 -13119433.39548 -10210357.32946  21733650.5634                   21733649.0044
 11  8 22  2 17 30.0000000  0  9G10G12G26G29G05G15G25G02G30
 -11920928.02047  -9277027.03243  23987695.7894                   23987694.0354
 -20768763.96147 -16168222.07246  21667381.4924                   21667379.3164
  -1372585.78947  -1058353.88744  23276735.0314                   23276733.4694
  -7826141.65247  -6088136.58345  22271266.0944                   22271264.4924
 -25462044.78148 -19824760.25547  20467641.0164                   20467638.8364
   6478320.46147   5059356.68144  24176805.7664                   24176806.1844
 -15611260.25047 -12148991.25646  21577923.2274                   21577924.0044
 -26215701.19947 -20411885.96045  21748435.5314                   21748431.1134
 -13127840.59048 -10216908.40546  21732050.9844                   21732049.1484
 11  8 22  2 18  0.0000000  0  9G10G12G26G29G05G15G25G02G30
 -11846519.27047  -9219046.18343  24001855.0554                   24001853.8914
 -20731870.23447 -16139473.72346  21674402.2814                   21674400.0004
  -1497612.62646  -1155777.33244  23252942.2194                   23252941.3444
  -7938804.16047  -6175925.46945  22249826.8984                   22249825.8094
 -25458251.46148 -19821804.41647  20468362.6644                   20468360.4304
   6350332.33646   4959625.80044  24152450.2584                   24152450.6214
 -15632600.52048 -12165620.02746  21573862.6254                   21573862.5984
 -26208751.53148 -20406470.64345  21749757.5394                   21749753.9414
 -13135695.42248 -10223029.05346  21730556.0784                   21730554.4534
 11  8 22  2 18 30.0000000  0  9G10G12G26G29G05G15G25G02G30
 -11772008.82046  -9160986.09743  24016034.1254                   24016032.8284
 -20694598.56248 -16110430.89546  21681494.7504                   21681492.8284
  -1622501.48447  -1253093.23644  23229176.7274                   23229175.8954
  -8051354.32847  -6263626.84746  22228409.1884                   22228408.2464
 -25453979.63348 -19818475.71347  20469175.7034                   20469173.4264
   6222270.67646   4859837.66444  24128081.1024                   24128081.1254
 -15653379.59848 -12181811.52146  21569908.3594                   21569909.0664
 -26201720.23048 -20400991.69146  21751095.6254                   21751091.6684
 -13142999.94548 -10228720.89046  21729166.3594                   21729164.3094
 11  8 22  2 19  0.0000000  0  9G10G12G26G29G05G15G25G02G30
 -11697399.77346  -9102849.11543  24030231.3524                   24030230.1724
 -20656951.92648 -16081095.86946  21688658.0474                   21688656.5394
  -1747249.34846  -1350299.33744  23205437.5634                   23205437.2464
  -8163790.66847  -6351239.50245  22207013.3524                   22207011.9734
 -25449231.74648 -19814776.04847  20470079.3834                   20470076.8404
   6094137.49646   4759993.77544  24103697.3524                   24103697.8714
 -15673598.85248 -12197566.78646  21566060.7424                   21566061.1414
 -26194607.59448 -20395449.35946  21752448.8984                   21752444.7774
 -13149756.20748 -10233985.50745  21727880.5784                   21727878.8984
 11  8 22  2 19 30.0000000  0  9G10G12G26G29G05G15G25G02G30
 -11622694.70346  -9044637.49043  24044447.0234                   24044446.7034
 -20618933.04747 -16051470.79446  21695893.5084                   21695891.4264
  -1871852.43746  -1447392.57344  23181727.4224                   23181726.3524
  -8276110.56647  -6438761.43945  22185639.6484                   22185638.7814
 -25444009.67248 -19810706.88147  20471073.2584                   20471070.1954
   5965935.78947   4660096.55044  24079302.1094                   24079301.8524
 -15693259.32448 -12212886.62146  21562319.7034                   21562319.8484
 -26187413.58647 -20389843.60646  21753818.1564                   21753814.1294
 -13155966.00047 -10238824.31345  21726698.6414                   21726696.6644
 11  8 22  2 20  0.0000000  0  9G10G12G26G29G05G15G25G02G30
 -11547891.55146  -8986349.21243  24058681.7584                   24058680.9064
 -20580540.39847 -16021554.46946  21703199.2194                   21703197.1414
  -1996302.85947  -1544366.85644  23158045.0634                   23158043.7034
  -8388307.69147  -6526187.70245  22164289.4224                   22164287.8134
 -25438310.72748 -19806266.14247  20472157.3754                   20472155.0744
   5837672.35546   4560151.14444  24054893.5314                   24054893.8134
 -15712357.53548 -12227768.34946  21558685.2734                   21558685.4614
 -26180133.91847 -20384171.12346  21755203.2814                   21755199.0744
 -13161626.39147 -10243235.00446  21725621.3364                   21725619.9844
 11  8 22  2 20 30.0000000  0  9G10G12G26G29G05G15G25G02G30
 -11472997.98846  -8927990.64543  24072933.8594                   24072932.2464
 -20541781.63347 -15991352.85546  21710574.7504                   21710572.7854
  -2120602.10946  -1641223.39644  23134391.6804                   23134390.4964
  -8500385.40247  -6613520.92346  22142961.7664                   22142960.3324
 -25432142.29347 -19801459.55847  20473331.2114                   20473329.0204
   5709344.77346   4460155.84443  24030473.7664                   24030474.1884
 -15730899.76648 -12242216.84146  21555156.6334                   21555157.6024
 -26172774.05947 -20378436.15145  21756603.7664                   21756599.6724
 -13166744.68047 -10247223.29046  21724647.9304                   21724646.0124
 11  8 22  2 21  0.0000000  0  9G10G12G26G29G05G15G25G02G30
 -11398012.84446  -8869560.69143  24087203.3054                   24087201.7194
 -20502656.10247 -15960865.45346  21718019.8444                   21718018.0204
  -2244742.78147  -1737956.33244  23110768.3984                   23110767.0824
  -8612338.10247  -6700756.76045  22121657.7114                   22121655.5984
 -25425502.96547 -19796286.04747  20474594.7274                   20474592.0354
   5580959.65247   4360115.65944  24006042.9224                   24006042.4104
 -15748883.45348 -12256230.11046  21551734.5084                   21551735.2274
 -26165330.18747 -20372635.71146  21758020.3054                   21758016.2384
 -13171318.72348 -10250787.48346  21723777.1024                   21723775.7344
 11  8 22  2 21 30.0000000  0  9G10G12G26G29G05G15G25G02G30
 -11322941.07846  -8811063.15343  24101488.5474                   24101486.8674
 -20463169.03148 -15930096.34346  21725534.5314                   21725532.3204
  -2368723.86746  -1834564.91344  23087175.3984                   23087174.6884
  -8724165.84447  -6787895.22045  22100377.4774                   22100375.5984
 -25418396.68447 -19790748.66947  20475947.0944                   20475944.6604
   5452517.26246   4260030.82644  23981600.4534                   23981600.6134
 -15766312.15248 -12269810.91846  21548418.1254                   21548418.4304
 -26157804.52347 -20366771.54846  21759452.3834                   21759448.1764
 -13175353.01247 -10253931.10346  21723009.3914                   21723007.5944
 11  8 22  2 22  0.0000000  0  9G10G12G26G29G05G15G25G02G30
 -11247787.28546  -8752501.80243  24115789.5704                   24115787.2584
 -20423324.98847 -15899049.05846  21733115.8914                   21733114.3324
  -2492543.95747  -1931048.05645  23063613.0554                   23063612.1954
  -8835868.58647  -6874936.26045  22079121.3134                   22079119.4694
 -25410827.59848 -19784850.68447  20477387.3364                   20477384.6564
   5324018.01646   4159901.73344  23957148.5474                   23957148.2854
 -15783188.85248 -12282961.58846  21545206.1644                   21545207.1094
 -26150199.15247 -20360845.24145  21760899.6414                   21760895.4654
 -13178851.10247 -10256656.89346  21722344.1644                   21722342.1844
 11  8 22  2 22 30.0000000  0  9G10G12G26G29G05G15G25G02G30
 -11172549.04346  -8693874.58543  24130107.4064                   24130106.0784
 -20383122.09048 -15867722.13046  21740766.6724                   21740764.5514
  -2616194.19147  -2027398.84145  23040083.4844                   23040082.6094
  -8947439.34847  -6961874.49545  22057889.8204                   22057888.5784
 -25402792.92647 -19778589.88947  20478915.9774                   20478913.8874
   5195469.79347   4059734.39544  23932685.9304                   23932685.3094
 -15799509.86348 -12295679.27446  21542100.8134                   21542101.2814
 -26142509.19947 -20354853.04645  21762362.9064                   21762358.9224
 -13181810.10247 -10258962.61645  21721780.9144                   21721779.0704
 11  8 22  2 23  0.0000000  0  9G10G12G26G29G05G15G25G02G30
 -11097228.21146  -8635183.08343  24144440.5164                   24144439.1484
 -20342562.57047 -15836117.34646  21748485.0554                   21748483.0274
  -2739670.34447  -2123613.96244  23016586.4384                   23016585.6484
  -9058875.33647  -7048707.69445  22036684.2584                   22036682.8284
 -25394294.28147 -19771967.55247  20480533.3134                   20480530.9804
   5066875.97747   3959531.60844  23908215.3054                   23908215.5864
 -15815275.71948 -12307964.37446  21539100.3914                   21539100.7704
 -26134733.72747 -20348794.22045  21763842.5084                   21763838.2704
 -13184231.18047 -10260849.18145  21721319.8284                   21721318.1454
 11  8 22  2 23 30.0000000  0  9G10G12G26G29G05G15G25G02G30
 -11021831.15646  -8576432.08943  24158787.6254                   24158786.5314
 -20301652.98047 -15804239.76446  21756270.1094                   21756267.5234
  -2862972.57847  -2219693.55245  22993123.1954                   22993121.9884
  -9170178.43047  -7135437.34845  22015504.2424                   22015502.4184
 -25385337.43747 -19764988.18747  20482238.3444                   20482235.5514
   4938235.36747   3859292.27344  23883736.4844                   23883735.4344
 -15830491.43748 -12319820.77746  21536205.2344                   21536205.5554
 -26126876.88347 -20342671.97945  21765337.5474                   21765333.3284
 -13186120.06247 -10262321.04845  21720960.5164                   21720958.8954
 11  8 22  2 24  0.0000000  0  9G10G12G26G29G05G15G25G02G30
 -10946358.03546  -8517621.88643  24173150.4064                   24173148.1214
 -20260393.89147 -15772089.84146  21764121.0864                   21764119.3444
  -2986095.24647  -2315633.23945  22969693.2114                   22969692.3524
  -9281344.30947  -7222060.08246  21994349.6884                   21994348.3134
 -25375921.90648 -19757651.39047  20484029.5864                   20484026.9454
   4809553.19547   3759020.60344  23859248.1334                   23859248.4224
 -15845155.94948 -12331247.67846  21533414.6414                   21533415.3714
 -26118936.40247 -20336484.57445  21766848.8524                   21766844.7664
 -13187476.43447 -10263377.96345  21720702.8834                   21720701.2194
 11  8 22  2 24 30.0000000  0  9G10G12G26G29G05G15G25G02G30
 -10870812.24646  -8458755.02643  24187525.9064                   24187524.6374
 -20218789.48848 -15739670.85646  21772038.3284                   21772036.2424
  -3109035.71947  -2411430.95545  22946298.4454                   22946297.6414
  -9392372.42247  -7308575.46646  21973221.9224                   21973220.4184
 -25366051.50848 -19749960.17147  20485908.1884                   20485905.3204
   4680830.73847   3658717.48444  23834753.2734                   23834752.6684
 -15859271.91448 -12342247.15346  21530728.7194                   21530729.0904
 -26110913.49647 -20330232.93545  21768375.5004                   21768371.2624
 -13188303.63348 -10264022.55745  21720545.1024                   21720543.3954
 11  8 22  2 25  0.0000000  0  9G10G12G26G29G05G15G25G02G30
 -10795197.33246  -8399834.32443  24201914.8364                   24201914.0434
 -20176843.44947 -15706985.64446  21780020.2584                   21780018.1214
  -3231791.32847  -2507084.61245  22922938.7504                   22922937.7464
  -9503261.21147  -7394982.27046  21952120.5474                   21952118.5824
 -25355729.12947 -19741916.74547  20487872.1804                   20487869.5634
   4552069.91047   3558384.49044  23810250.7424                   23810250.4224
 -15872841.37548 -12352820.75746  21528146.3674                   21528146.5864
 -26102808.56247 -20323917.37845  21769917.6174                   21769913.6294
 -13188604.35548 -10264256.89946  21720488.2584                   21720486.3594
 11  8 22  2 25 30.0000000  0  9G10G12G26G29G05G15G25G02G30
 -10719515.99246  -8340861.86043  24216316.3674                   24216315.9384
 -20134558.74248 -15674036.54746  21788066.7974                   21788064.6294
  -3354358.37147  -2602591.33644  22899615.6884                   22899614.2894
  -9614008.31247  -7481278.70646  21931045.8984                   21931044.1134
 -25344956.73848 -19733522.67347  20489922.1094                   20489919.4884
   4423273.91047   3458024.07944  23785741.7344                   23785741.2114
 -15885865.56648 -12362969.49646  21525667.8984                   21525668.8674
 -26094621.74247 -20317538.03645  21771475.4224                   21771471.2814
 -13188380.60248 -10264082.56245  21720530.5394                   21720528.8164
 11  8 22  2 26  0.0000000  0  9G10G12G26G29G05G15G25G02G30
 -10643771.33646  -8281839.99643  24230730.3134                   24230729.8244
 -20091939.26647 -15640826.57146  21796176.8524                   21796174.9884
  -3476734.13747  -2697949.01945  22876327.6954                   22876326.6174
  -9724613.03547  -7567464.14846  21909998.5784                   21909996.4734
 -25333737.44547 -19724780.35347  20492056.9774                   20492054.4064
   4294444.18047   3357637.40744  23761226.4384                   23761225.5204
 -15898346.83648 -12372695.16946  21523292.6644                   21523293.2274
 -26086354.11347 -20311095.70745  21773048.7274                   21773044.6214
 -13187635.39848 -10263501.89545  21720672.3594                   21720671.5084
 11  8 22  2 26 30.0000000  0  9G10G12G26G29G05G15G25G02G30
  -8992547.13346  -6995171.84043  24544947.5394                   24544946.1484
 -18473568.15647 -14379758.19946  22104142.6804                   22104141.1094
  -2023489.81647  -1565550.80544  23152871.4384                   23152870.1454
  -8259648.50847  -6425933.32046  22188772.1564                   22188770.8164
 -23746652.69548 -18488090.92546  20794069.1804                   20794067.0314
   5741008.97347   4484830.82744  24036497.9844                   24036497.5944
 -14334865.03548 -11154397.66846  21820813.6484                   21820814.2424
 -24502584.72347 -19076989.68245  22074430.1644                   22074426.3094
 -11610949.67647  -9034915.64345  22020705.8524                   22020704.1334
 11  8 22  2 27  0.0000000  0  9G10G12G26G29G05G15G25G02G30
  -8916681.65646  -6936055.90642  24559384.6724                   24559383.3204
 -18430285.82047 -14346031.73146  22112379.1174                   22112377.1884
  -2145470.88747  -1660600.91344  23129658.8834                   23129657.5744
  -8369960.41447  -6511890.60946  22167780.2344                   22167778.4024
 -23734544.86348 -18478656.24246  20796373.0784                   20796370.2274
   5612121.83247   4384399.44244  24011971.8524                   24011971.3594
 -14346263.14548 -11163279.31946  21818644.5864                   21818644.8984
 -24494153.61747 -19070419.96345  22076034.3834                   22076030.5824
 -11609166.25847  -9033525.97245  22021044.9924                   22021043.5394
 11  8 22  2 27 30.0000000  0  9G10G12G26G29G05G15G25G02G30
  -8840757.05146  -6876893.85942  24573832.1644                   24573831.6024
 -18386674.45747 -14312048.86846  22120678.4384                   22120676.3594
  -2267246.60547  -1755491.04144  23106485.3134                   23106484.2974
  -8480120.06647  -6597729.25246  22146817.5784                   22146815.4144
 -23721993.38348 -18468875.86046  20798761.3444                   20798758.8874
   5483212.52346   4283950.74544  23987440.2114                   23987440.3204
 -14357119.28548 -11171738.67146  21816578.4304                   21816578.9414
 -24485638.26647 -19063784.63745  22077655.0084                   22077650.7624
 -11606864.40248  -9031732.32645  22021482.8594                   22021481.1214
 11  8 22  2 28  0.0000000  0  9G10G12G26G29G05G15G25G02G30
  -8764776.74645  -6817688.43042  24588290.3984                   24588289.5864
 -18342737.59847 -14277812.37446  22129038.7274                   22129037.7664
  -2388814.35947  -1850219.08644  23083351.6884                   23083351.0204
  -8590126.25447  -6683448.31446  22125883.6254                   22125882.7234
 -23709001.29748 -18458752.14846  20801234.1564                   20801231.5554
   5354282.99246   4183486.30444  23962905.7664                   23962905.8204
 -14367435.83648 -11179777.53746  21814615.7034                   21814616.2274
 -24477039.50447 -19057084.29545  22079291.4304                   22079286.9024
 -11604047.18047  -9029537.09046  22022018.7974                   22022017.8444
 11  8 22  2 28 30.0000000  0  9G10G12G26G29G05G15G25G02G30
  -8688747.68445  -6758445.02742  24602759.3444                   24602758.2154
 -18298483.25848 -14243328.48946  22137460.4224                   22137458.7464
  -2510175.54347  -1944786.20844  23060257.7504                   23060255.9414
  -8699981.97747  -6769050.11746  22104978.9694                   22104977.2304
 -23695576.25448 -18448291.05846  20803788.7664                   20803786.1604
   5225330.92246   4083004.30144  23938367.5864                   23938366.9224
 -14377219.24648 -11187400.98246  21812753.6414                   21812754.3014
 -24468362.05147 -19050322.64445  22080942.3914                   22080938.4924
 -11600721.64148  -9026945.79045  22022651.7344                   22022650.7304
 11  8 22  2 29  0.0000000  0  9G10G12G26G29G05G15G25G02G30
  -8612667.54346  -6699161.75442  24617236.7734                   24617235.6214
 -18253908.94947 -14208595.28946  22145942.2424                   22145940.8364
  -2631320.98847  -2039185.17944  23037204.3284                   23037202.6954
  -8809679.83647  -6854528.91546  22084104.0084                   22084102.8244
 -23681714.98448 -18437490.05146  20806426.3134                   20806423.8134
   5096364.61346   3982511.19544  23913825.3204                   23913825.0704
 -14386465.76248 -11194606.06046  21810994.1954                   21810994.5434
 -24459600.69547 -19043495.59645  22082609.8204                   22082605.5314
 -11596884.82848  -9023956.08345  22023382.0634                   22023380.6454
 11  8 22  2 29 30.0000000  0  9G10G12G26G29G05G15G25G02G30
  -8536536.94546  -6639839.21243  24631723.7664                   24631722.4844
 -18209016.29348 -14173614.01346  22154485.2194                   22154483.9104
  -2752245.59847  -2133412.09144  23014192.8754                   23014191.1094
  -8919215.84847  -6939881.58246  22063259.9614                   22063258.6954
 -23667418.26648 -18426349.74846  20809147.0314                   20809144.2424
   4967388.41446   3882010.36044  23889282.0474                   23889282.2974
 -14395175.26248 -11201392.70046  21809336.5004                   21809337.3834
 -24450753.90647 -19036601.99946  22084293.3134                   22084288.9774
 -11592537.15648  -9020568.29145  22024209.6484                   22024208.3054
 11  8 22  2 30  0.0000000  0  9G10G12G26G29G05G15G25G02G30
  -8460360.33246  -6580480.77143  24646219.9144                   24646218.2774
 -18163810.23048 -14138388.53246  22163088.0004                   22163086.4264
  -2872947.91847  -2227465.81844  22991223.9534                   22991222.1994
  -9028590.38347  -7025108.44646  22042446.8984                   22042445.3094
 -23652690.10548 -18414873.24347  20811949.5634                   20811946.9064
   4838402.83646   3781502.23244  23864737.4064                   23864736.5634
 -14403351.62148 -11207763.89646  21807780.6564                   21807781.5164
 -24441823.51647 -19029643.26945  22085992.6804                   22085988.5984
 -11587683.23448  -9016786.01945  22025133.2274                   22025131.4734
 11  8 22  2 30 30.0000000  0 10G10G12G26G29G05G15G25G02G30G21
  -8384140.07046  -6521088.39542  24660724.1174                   24660722.2344
 -18118294.05947 -14102921.42046  22171749.4304                   22171747.8954
  -2993424.64547  -2321343.72344  22968298.3204                   22968296.5394
  -9137801.38747  -7110207.86446  22021664.5234                   22021662.8874
 -23637533.28148 -18403062.70146  20814833.7664                   20814831.5784
   4709410.78547   3680989.06544  23840190.7194                   23840189.8874
 -14410996.38348 -11213720.86346  21806326.3134                   21806326.7154
 -24432810.16047 -19022619.88045  22087707.8834                   22087703.4454
 -11582325.23848  -9012610.98545  22026152.4924                   22026151.1134
  10899519.72756   8501322.55753  25273557.2664                   25273556.0864
 11  8 22  2 31  0.0000000  0 10G10G12G26G29G05G15G25G02G30G21
  -8307884.20346  -6461668.18543  24675235.0394                   24675233.2774
 -18072475.91448 -14067218.98746  22180468.4144                   22180466.5164
  -3113677.19547  -2415046.94845  22945415.0234                   22945413.1764
  -9246851.96947  -7195182.27346  22000913.1334                   22000911.7034
 -23621955.01648 -18390923.79746  20817798.3834                   20817795.7074
   4580409.62947   3580468.78844  23815642.4384                   23815641.7304
 -14418116.41048 -11219268.93646  21804971.1174                   21804971.7894
 -24423718.31648 -19015535.33945  22089437.6724                   22089433.9224
 -11576470.71548  -9008049.03145  22027266.9534                   22027265.1644
  10810840.37546   8432221.85743  25256680.7504                   25256681.0124
 11  8 22  2 31 30.0000000  0  9G12G26G29G05G15G25G02G30G21
 -18026359.94948 -14031284.50246  22189244.1254                   22189242.5394
  -3233703.01647  -2508573.53244  22922574.5314                   22922573.1644
  -9355741.02048  -7280030.83246  21980191.7194                   21980190.1764
 -23605959.17248 -18378459.48946  20820842.3984                   20820839.2154
   4451401.15247   3479942.78044  23791092.7274                   23791092.5744
 -14424714.49648 -11224410.29746  21803715.5474                   21803716.0784
 -24414549.29748 -19008390.66445  22091182.8134                   22091178.9964
 -11570123.10548  -9003102.84245  22028474.8054                   22028473.1334
  10722162.70746   8363122.47843  25239806.7814                   25239805.8714
 11  8 22  2 32  0.0000000  0  9G12G26G29G05G15G25G02G30G21
 -17979949.48448 -13995120.51746  22198075.5554                   22198073.8164
  -3353499.22747  -2601921.15444  22899777.8674                   22899776.4264
  -9464466.88748  -7364752.22446  21959502.3134                   21959500.4384
 -23589548.39848 -18365671.85347  20823965.1414                   20823962.1764
   4322387.56347   3379412.85744  23766542.8204                   23766541.7624
 -14430792.92648 -11229146.75446  21802559.0704                   21802559.6254
 -24405303.49248 -19001186.16545  22092942.4384                   22092938.3284
 -11563285.40248  -8997774.77245  22029775.9534                   22029774.3594
  10633485.34446   8294023.29743  25222932.1254                   25222931.8594
 11  8 22  2 32 30.0000000  0  9G12G26G29G05G15G25G02G30G21
 -17933237.15647 -13958721.33146  22206964.7114                   22206963.3324
  -3473051.42247  -2695078.66645  22877027.8834                   22877026.3364
  -9573016.57448  -7449336.34746  21938845.5784                   21938843.9494
 -23572714.03548 -18352554.16646  20827168.5474                   20827166.0434
   4193382.66447   3278889.66144  23741993.2584                   23741992.6334
 -14436342.46148 -11233471.06046  21801502.9774                   21801503.5274
 -24395970.16848 -18993913.46345  22094718.2114                   22094713.8554
 -11555948.98848  -8992058.10745  22031172.1414                   22031170.3014
  10544818.83646   8224932.46743  25206059.5314                   25206057.1254
 11  8 22  2 33  0.0000000  0  9G12G26G29G05G15G25G02G30G21
 -17886222.14548 -13922086.26546  22215911.3134                   22215909.8404
  -3592351.75047  -2788039.89745  22854325.9224                   22854324.7464
  -9681384.32848  -7533778.69846  21918223.9774                   21918222.3834
 -23555454.78148 -18339105.37446  20830452.8984                   20830450.1054
   4064393.07847   3178378.38644  23717447.7504                   23717446.3134
 -14441361.00048 -11237381.61346  21800547.8914                   21800548.1804
 -24386545.25048 -18986569.39145  22096512.0944                   22096507.4694
 -11548112.37548  -8985951.66345  22032663.4224                   22032661.5904
  10456166.14846   8155852.58043  25189189.3134                   25189187.8594
 11  8 22  2 33 30.0000000  0  9G12G26G29G05G15G25G02G30G21
 -17838907.43448 -13885217.67746  22224914.7114                   22224913.0634
  -3711397.35247  -2880802.65745  22831672.0234                   22831670.8874
  -9789567.98048  -7618077.60446  21897637.4924                   21897635.9184
 -23537773.05548 -18325327.39646  20833817.5474                   20833814.7544
   3935421.24647   3077880.99844  23692904.8834                   23692903.8404
 -14445850.44548 -11240879.88146  21799693.5394                   21799694.0124
 -24377028.65248 -18979153.88645  22098322.8834                   22098318.6564
 -11539778.13348  -8979457.44746  22034249.4694                   22034247.8284
  10367526.14846   8086782.48443  25172321.2274                   25172320.9184
 11  8 22  2 34  0.0000000  0  9G12G26G29G05G15G25G02G30G21
 -17791297.30547 -13848118.89646  22233974.7894                   22233973.5084
  -3830185.36747  -2973364.70045  22809067.8594                   22809065.9804
  -9897565.97748  -7702231.82346  21877086.0234                   21877084.1254
 -23519672.63748 -18311223.15846  20837261.8054                   20837259.3484
   3806469.32447   2977399.05644  23668365.8754                   23668364.5124
 -14449813.62147 -11243968.06746  21798939.7274                   21798939.9804
 -24367421.77748 -18971668.03445  22100151.0234                   22100146.9384
 -11530949.74648  -8972578.19545  22035929.1954                   22035927.1024
  10278897.52746   8017721.36143  25155456.5234                   25155455.4104
 11  8 22  2 34 30.0000000  0  9G12G26G29G05G15G25G02G30G21
 -17743396.71947 -13810793.78446  22243090.1644                   22243088.5514
  -3948714.24647  -3065724.78645  22786512.0634                   22786510.3204
 -10005379.41448  -7786242.25746  21856569.8984                   21856567.8594
 -23501157.53148 -18296795.78646  20840785.2034                   20840782.5474
   3677537.66847   2876932.97644  23643830.8594                   23643830.1644
 -14453254.53148 -11246649.28246  21798284.6884                   21798285.1484
 -24357726.25048 -18964113.07945  22101995.8134                   22101991.8094
 -11521631.79748  -8965317.46845  22037702.3524                   22037700.5004
  10190277.37146   7948666.75442  25138591.5634                   25138590.3754
 11  8 22  2 35  0.0000000  0  9G12G26G29G05G15G25G02G30G21
 -17695212.29347 -13773247.50246  22252259.1094                   22252257.1214
  -4066983.91847  -3157882.93745  22764005.7504                   22764004.8404
 -10113008.71548  -7870109.20946  21836088.5084                   21836086.5944
 -23482233.53948 -18282049.81946  20844386.1174                   20844384.0084
   3548625.90247   2776482.37544  23619299.4384                   23619298.7774
 -14456178.23448 -11248927.49346  21797728.6644                   21797729.0164
 -24347945.55948 -18956491.79045  22103857.1254                   22103853.4024
 -11511830.05948  -8957679.74645  22039567.3594                   22039565.6374
  10101661.71546   7879615.57043  25121730.0394                   25121726.9614
 11  8 22  2 35 30.0000000  0  9G12G26G29G05G15G25G02G30G21
 -17646748.71147 -13735483.70746  22261481.5314                   22261480.0864
  -4184992.29347  -3249837.43845  22741550.0704                   22741548.8054
 -10220453.11748  -7953832.07246  21815642.4144                   21815640.7624
 -23462904.75448 -18266988.40846  20848064.4144                   20848061.7774
   3419735.64546   2676048.55444  23594772.0944                   23594771.7544
 -14458588.10248 -11250805.31746  21797269.9384                   21797270.0984
 -24338080.93748 -18948805.08345  22105734.3594                   22105729.8914
 -11501548.53148  -8949668.17245  22041524.1724                   22041522.9024
  10013048.32846   7810566.29043  25104866.4064                   25104866.0634
 11  8 22  2 36  0.0000000  0  9G12G26G29G05G15G25G02G30G21
 -17598006.86347 -13697503.04546  22270757.0004                   22270755.0354
  -4302733.62147  -3341583.86645  22719144.3594                   22719142.9924
 -10327708.70348  -8037407.81646  21795232.2344                   21795230.3594
 -23443171.39848 -18251611.76446  20851819.3914                   20851816.7344
   3290871.16447   2575634.81344  23570250.2504                   23570249.2304
 -14460483.96548 -11252282.60046  21796909.0704                   21796909.4844
 -24328130.41048 -18941051.43245  22107627.6414                   22107623.4184
 -11490787.53947  -8941282.99145  22043571.2584                   22043570.5394
   9924438.55546   7741519.74043  25088004.9694                   25088004.1024
 11  8 22  2 36 30.0000000  0  9G12G26G29G05G15G25G02G30G21
 -17548992.97747 -13659310.42846  22280084.2344                   22280081.8554
  -4420207.55947  -3433121.96345  22696790.2274                   22696788.8874
 -10434776.30548  -8120837.07746  21774858.1884                   21774856.1094
 -23423039.21148 -18235924.32946  20855650.7734                   20855648.5124
   3162032.25446   2475240.95344  23545733.0864                   23545732.5824
 -14461871.01248 -11253363.41346  21796644.9534                   21796645.3364
 -24318097.03548 -18933233.23345  22109537.0234                   22109532.5664
 -11479553.00047  -8932528.79645  22045709.6414                   22045708.5594
   9835828.44546   7672472.77843  25071143.0314                   25071141.9414
 11  8 22  2 37  0.0000000  0  9G12G26G29G05G15G25G02G30G21
 -17499707.15247 -13620905.91645  22289462.8754                   22289460.9924
  -4537407.30547  -3524446.39245  22674487.5164                   22674485.7344
 -10541650.80548  -8204115.86246  21754520.6884                   21754519.3164
 -23402507.43048 -18219925.53146  20859557.5944                   20859555.1254
   3033225.28547   2374872.01345  23521221.9224                   23521220.9964
 -14462747.76648 -11254046.59646  21796477.7114                   21796478.9264
 -24307977.53548 -18925347.90245  22111462.7814                   22111458.5904
 -11467844.07047  -8923404.96546  22047937.5084                   22047936.6524
   9747220.56646   7603427.73343  25054281.2424                   25054279.9224
 11  8 22  2 37 30.0000000  0  9G12G26G29G05G15G25G02G30G21
 -17450150.50047 -13582290.36946  22298892.8834                   22298891.3094
  -4654327.35947  -3615552.90045  22652238.4454                   22652236.6524
 -10648328.18448  -8287241.04346  21734220.6174                   21734218.3874
 -23381576.49648 -18203615.70646  20863540.8834                   20863538.4344
   2904455.05547   2274531.65945  23496717.7734                   23496716.9574
 -14463114.41448 -11254332.29446  21796408.2504                   21796409.4774
 -24297769.91848 -18917393.91145  22113405.2894                   22113400.8984
 -11455661.51647  -8913912.05445  22050256.0474                   22050254.8054
   9658616.00846   7534385.34042  25037419.6884                   25037418.9654
 11  8 22  2 38  0.0000000  0  9G12G26G29G05G15G25G02G30G21
 -17400330.51647 -13543469.62145  22308373.2814                   22308371.4454
  -4770968.59847  -3706442.11245  22630042.0704                   22630040.4774
 -10754810.41448  -8370214.17146  21713957.3984                   21713955.4924
 -23360253.38348 -18187000.29446  20867598.1024                   20867595.8484
   2775719.98047   2174218.74345  23472220.2664                   23472219.4534
 -14462977.14848 -11254225.32546  21796434.1254                   21796434.8524
 -24287478.27747 -18909374.43245  22115363.5084                   22115359.3284
 -11443012.14547  -8904055.40545  22052663.0704                   22052661.7074
   9570009.89146   7465341.66043  25020559.0634                   25020557.6484
 11  8 22  2 38 30.0000000  0  9G12G26G29G05G15G25G02G30G21
 -17350249.77747 -13504445.67745  22317903.7814                   22317901.9884
  -4887326.69147  -3797110.71045  22607900.0864                   22607898.2894
 -10861094.54348  -8453032.91746  21693732.1724                   21693730.0554
 -23338539.60548 -18170080.46446  20871730.4064                   20871727.9844
   2647023.60246   2073935.95445  23447729.9224                   23447729.4224
 -14462337.24648 -11253726.69746  21796556.2664                   21796556.7664
 -24277101.68047 -18901288.76245  22117337.8834                   22117333.8244
 -11429897.92247  -8893836.52245  22055158.8524                   22055157.0704
   9481402.33646   7396296.82243  25003697.1174                   25003696.3954
 11  8 22  2 39  0.0000000  0  9G12G26G29G05G15G25G02G30G21
 -17299910.20747 -13465220.06145  22327482.8594                   22327481.3444
  -5003397.33647  -3887555.30845  22585812.5634                   22585810.6254
 -10967177.66848  -8535695.04246  21673545.3674                   21673543.2344
 -23316436.83247 -18152857.52346  20875936.4144                   20875934.0234
   2518369.37547   1973686.01644  23423247.6644                   23423246.9144
 -14461196.10948 -11252837.49846  21796773.5234                   21796773.9454
 -24266639.56247 -18893136.42245  22119328.9384                   22119324.6954
 -11416320.73048  -8883256.90545  22057742.3674                   22057741.0474
   9392793.55146   7327250.99643  24986835.8754                   24986835.3554
 11  8 22  2 39 30.0000000  0  9G12G26G29G05G15G25G02G30G21
 -17249315.73447 -13425795.81046  22337110.5314                   22337108.6024
  -5119177.35247  -3977773.49245  22563780.4384                   22563778.3874
 -11073058.00848  -8618199.15246  21653397.0554                   21653395.2304
 -23293947.71548 -18135333.52146  20880216.2504                   20880213.6254
   2389760.08247   1873471.03944  23398774.6254                   23398773.0744
 -14459555.97748 -11251559.47646  21797085.4304                   21797086.1804
 -24256091.69548 -18884917.28245  22121335.9534                   22121331.1884
 -11402283.51648  -8872318.80545  22060413.3364                   22060412.1994
   9304182.10246   7258203.21743  24969974.2114                   24969972.6804
 11  8 22  2 40  0.0000000  0  9G12G26G29G05G15G25G02G30G21
 -17198464.94547 -13386171.82945  22346787.5394                   22346785.8364
  -5234658.72747  -4067758.93745  22541804.6254                   22541803.1484
 -11178729.01248  -8700540.13346  21633288.2894                   21633286.4734
 -23271070.88748 -18117507.41946  20884569.1884                   20884566.5314
   2261202.77747   1773296.59845  23374310.6414                   23374309.4414
 -14457414.56248 -11249890.83846  21797493.1094                   21797493.4964
 -24245454.04347 -18876628.17445  22123360.5314                   22123356.3364
 -11387784.47348  -8861020.85745  22063172.3524                   22063170.9414
   9215572.01246   7189156.50443  24953110.9454                   24953110.0864
 11  8 22  2 40 30.0000000  0  9G12G26G29G05G15G25G02G30G21
 -17147365.17647 -13346353.85046  22356511.7034                   22356509.5354
  -5349842.05547  -4157512.12645  22519885.8754                   22519884.1414
 -11284192.63748  -8782719.52546  21613219.0784                   21613217.3204
 -23247812.71948 -18099384.16646  20888995.0164                   20888992.4734
   2132696.40647   1673161.83244  23349857.0164                   23349855.6884
 -14454778.09448 -11247836.44846  21797994.6024                   21797994.9734
 -24234730.43448 -18868272.08545  22125401.3444                   22125396.9534
 -11372830.50847  -8849368.41045  22066018.4454                   22066017.0204
   9126958.39846   7120106.94942  24936249.2274                   24936247.8204
 11  8 22  2 41  0.0000000  0  9G12G26G29G05G15G25G02G30G21
 -17096018.26247 -13306343.29246  22366282.5314                   22366280.7624
  -5464722.25047  -4247029.11745  22498025.0164                   22498023.0554
 -11389445.22347  -8864734.47646  21593190.2344                   21593188.1214
 -23224174.40648 -18080964.70046  20893493.5944                   20893490.9734
   2004244.99247   1573069.86244  23325412.4534                   23325411.8094
 -14451647.34048 -11245396.89946  21798590.6804                   21798590.9454
 -24223919.63348 -18859848.06845  22127458.3674                   22127454.1804
 -11357422.88347  -8837362.47145  22068950.1564                   22068948.8284
   9038341.73846   7051055.01743  24919386.2274                   24919384.1254
 11  8 22  2 41 30.0000000  0  9G12G26G29G05G15G25G02G30G21
 -17044427.15647 -13266142.43845  22376099.5944                   22376098.0314
  -5579295.90247  -4336307.26445  22476222.2034                   22476220.6954
 -11494484.57448  -8946583.26446  21573201.2274                   21573199.6604
 -23200158.17648 -18062250.76046  20898063.7344                   20898060.8554
   1875851.66847   1473023.21244  23300980.2504                   23300979.0784
 -14448024.25848 -11242573.72546  21799279.9064                   21799280.4344
 -24213021.34848 -18851355.88145  22129532.3524                   22129528.0354
 -11341564.20347  -8825005.07545  22071967.8674                   22071966.2114
   8949721.42246   6982000.35942  24902521.5554                   24902520.6254
 11  8 22  2 42  0.0000000  0  9G12G26G29G05G15G25G02G30G21
 -16992592.23847 -13225751.60945  22385963.7034                   22385961.7734
  -5693556.96147  -4425341.79645  22454479.4534                   22454477.8874
 -11599305.87147  -9028262.13146  21553254.6334                   21553253.3284
 -23175763.84048 -18043242.17946  20902705.6174                   20902702.6914
   1747521.79347   1373025.99144  23276560.0084                   23276558.7934
 -14443908.44148 -11239366.59046  21800062.8984                   21800063.6334
 -24202032.36348 -18842793.00745  22131623.2894                   22131619.3164
 -11325254.70347  -8812296.35845  22075071.5314                   22075070.5204
   8861099.64846   6912944.51343  24885657.9924                   24885657.1884
 11  8 22  2 42 30.0000000  0  9G12G26G29G05G15G25G02G30G21
 -16940515.93047 -13185172.70245  22395873.4614                   22395871.8714
  -5807500.48847  -4514128.93445  22432796.4144                   22432794.5514
 -11703905.68048  -9109768.41746  21533350.3524                   21533348.5084
 -23150993.21148 -18023940.37946  20907419.1254                   20907416.7894
   1619259.46547   1273081.38444  23252152.7424                   23252151.2544
 -14439300.84848 -11235776.27546  21800939.9064                   21800940.3754
 -24190951.62148 -18834158.63045  22133732.1484                   22133728.0274
 -11308495.84447  -8799237.51045  22078260.4064                   22078258.9304
   8772476.71146   6843887.75743  24868793.0554                   24868791.4964
 11  8 22  2 43  0.0000000  0  9G12G26G29G05G15G25G02G30G21
 -16888204.93747 -13144410.88645  22405827.9614                   22405825.9804
  -5921126.69147  -4602668.78245  22411173.8134                   22411172.6684
 -11808285.39548  -9191103.19446  21513487.5864                   21513485.3284
 -23125852.35548 -18004350.11046  20912203.4614                   20912200.7384
   1491064.10947   1173188.96544  23227757.9144                   23227756.5394
 -14434207.23848 -11231807.23646  21801909.3594                   21801909.2734
 -24179782.59847 -18825455.49545  22135857.1884                   22135853.4574
 -11291293.88747  -8785833.41645  22081534.1094                   22081532.8754
   8683848.39146   6774826.83243  24851927.3054                   24851927.5164
 11  8 22  2 43 30.0000000  0  9G12G26G29G05G15G25G02G30G21
 -16835657.97747 -13103465.22945  22415827.4144                   22415825.5234
  -6034427.66847  -4690955.19945  22389613.5944                   22389611.5474
 -11912438.48448  -9272261.39546  21493667.6884                   21493665.8094
 -23100339.05148 -17984469.60246  20917058.3984                   20917055.6804
   1362942.81647   1073354.27844  23203377.1174                   23203375.7544
 -14428625.52048 -11227457.84046  21802971.4924                   21802971.6914
 -24168520.84048 -18816680.06845  22138000.4694                   22137995.9614
 -11273647.40247  -8772082.92745  22084891.9774                   22084890.8364
   8595218.37546   6705764.58143  24835062.2814                   24835061.2154
 11  8 22  2 44  0.0000000  0  9G12G26G29G05G15G25G02G30G21
 -16782878.74247 -13062338.55545  22425870.5554                   22425869.5124
  -6147400.60247  -4778986.05245  22368115.5944                   22368113.6564
 -12016363.53948  -9353241.88946  21473891.3134                   21473889.5554
 -23074456.55148 -17964301.41846  20921983.3914                   20921981.0514
   1234897.78147    973579.00744  23179010.9694                   23179009.4844
 -14422558.59848 -11222730.37646  21804125.7344                   21804126.1054
 -24157166.97748 -18807832.89645  22140160.9534                   22140156.2424
 -11255559.83647  -8757988.71845  22088334.0004                   22088332.3874
   8506585.23046   6636699.83243  24818196.3754                   24818193.9144
 11  8 22  2 44 30.0000000  0  9G12G26G29G05G15G25G02G30G21
 -16729873.50447 -13021035.80845  22435957.9384                   22435955.8484
  -6260045.15647  -4866760.97945  22346680.1414                   22346678.5744
 -12120061.54748  -9434045.47346  21454158.3524                   21454156.2504
 -23048211.07848 -17943850.40746  20926977.9844                   20926975.4774
   1106928.94547    873863.11245  23154659.4064                   23154657.9064
 -14416011.92248 -11217629.08046  21805371.6024                   21805372.5514
 -24145723.89847 -18798916.21945  22142338.4844                   22142334.2624
 -11237037.23847  -8743555.54745  22091858.8054                   22091857.1844
   8417945.02046   6567629.61243  24801327.3984                   24801327.4654
 11  8 22  2 45  0.0000000  0  9G12G26G29G05G15G25G02G30G21
 -16676646.77747 -12979560.43445  22446085.7974                   22446084.2814
  -6372358.26647  -4954277.64945  22325307.3364                   22325305.9694
 -12223531.01248  -9514670.97146  21434468.5634                   21434466.5824
 -23021605.39548 -17923118.69746  20932040.5864                   20932038.0664
    979038.46147    774208.25245  23130322.1414                   23130321.0394
 -14408988.26248 -11212156.10246  21806708.5084                   21806708.8714
 -24134191.97748 -18789930.29445  22144533.0784                   22144528.8954
 -11218082.85547  -8728785.90145  22095465.5554                   22095464.1884
   8329296.68846   6498553.05243  24784458.2814                   24784457.0354
 11  8 22  2 45 30.0000000  0  9G12G26G29G05G15G25G02G30G21
 -16623197.73047 -12937911.84245  22456257.3134                   22456255.4734
  -6484333.41447  -5041530.95645  22303999.2584                   22303997.3984
 -12326765.94948  -9595113.73546  21414823.8444                   21414821.8524
 -22994638.84047 -17902105.79446  20937172.3914                   20937170.2384
    851232.48847    674619.25945  23106001.6094                   23105999.9804
 -14401486.58648 -11206310.66146  21808135.5164                   21808136.4734
 -24122567.72747 -18780872.44845  22146745.2664                   22146741.1294
 -11198696.22347  -8713679.44845  22099154.7114                   22099153.6684
   8240642.74246   6429472.24243  24767588.6884                   24767586.4494
 11  8 22  2 46  0.0000000  0  9G12G26G29G05G15G25G02G30G21
 -16569534.70747 -12896096.51745  22466468.8834                   22466467.3014
  -6595971.54347  -5128521.67245  22282754.9064                   22282753.5164
 -12429769.10248  -9675375.88746  21395223.1024                   21395221.2034
 -22967318.66048 -17880817.35246  20942371.4694                   20942368.6374
    723509.39147    575094.85045  23081697.0394                   23081695.6684
 -14393513.97348 -11200098.23346  21809652.9224                   21809653.3484
 -24110855.76647 -18771746.23945  22148973.0084                   22148969.1994
 -11178884.97347  -8698242.13145  22102925.0164                   22102923.4844
   8151977.94946   6360382.85143  24750715.1954                   24750714.6174
 11  8 22  2 46 30.0000000  0  9G12G26G29G05G15G25G02G30G21
 -16515656.52047 -12854113.54745  22476721.8834                   22476719.7344
  -6707264.80147  -5215243.65645  22261576.4224                   22261575.3754
 -12532533.92248  -9755452.31246  21375667.2814                   21375665.5004
 -22939642.91048 -17859251.83446  20947637.8834                   20947635.2544
    595876.49647    475640.72945  23057408.6334                   23057407.3834
 -14385068.41048 -11193517.29546  21811259.7974                   21811260.1604
 -24099051.66447 -18762548.25045  22151219.7664                   22151215.8874
 -11158647.59447  -8682472.76345  22106775.9844                   22106774.1914
   8063305.66046   6291287.76443  24733842.0164                   24733840.5124
 11  8 22  2 47  0.0000000  0  9G12G26G29G05G15G25G02G30G21
 -16461566.81647 -12811965.74445  22487014.5554                   22487012.8164
  -6818210.53547  -5301694.84745  22240464.1414                   22240462.6914
 -12635058.97348  -9835341.91946  21356157.2814                   21356155.1804
 -22911615.08247 -17837411.96446  20952971.5634                   20952968.8834
    468335.98447    376258.59645  23033138.5474                   23033137.4024
 -14376152.83248 -11186570.07946  21812956.5634                   21812957.2974
 -24087155.77748 -18753278.75045  22153483.5864                   22153479.5354
 -11137987.62147  -8666374.08345  22110707.1254                   22110706.0164
   7974624.71546   6222185.81443  24716966.3984                   24716964.5354
 11  8 22  2 47 30.0000000  0  9G12G26G29G05G15G25G02G30G21
 -16407270.74247 -12769657.12845  22497347.2504                   22497345.2034
  -6928807.12947  -5387873.98245  22219418.4614                   22219417.0594
 -12737343.81248  -9915044.36146  21336692.9454                   21336691.1724
 -22883239.61748 -17815301.21246  20958371.1174                   20958368.5044
    340888.50847    276948.95445  23008885.8054                   23008884.8484
 -14366771.69548 -11179260.10746  21814741.8054                   21814742.3094
 -24075170.16447 -18743939.33145  22155764.7344                   22155760.3244
 -11116910.00447  -8649949.98445  22114718.4534                   22114717.2074
   7885932.49646   6153075.12943  24700088.5164                   24700086.8714
 11  8 22  2 48  0.0000000  0  9G12G26G29G05G15G25G02G30G21
 -16352770.59847 -12727189.50745  22507717.7274                   22507715.7344
  -7039050.39147  -5473777.79645  22198440.1954                   22198438.2934
 -12839385.39548  -9994557.24946  21317275.1954                   21317272.7274
 -22854518.10248 -17792920.81746  20963836.5164                   20963834.0474
    213538.41447    177715.16545  22984652.1884                   22984651.0044
 -14356926.39848 -11171588.45546  21816615.5004                   21816615.9264
 -24063093.46147 -18734528.93545  22158062.6334                   22158058.3134
 -11095416.66047  -8633201.93645  22118808.4064                   22118807.1054
   7797229.11746   6083955.71343  24683208.5474                   24683208.1054
 11  8 22  2 48 30.0000000  0  9G12G26G29G05G15G25G02G30G21
 -16298069.85247 -12684565.56845  22518126.9774                   22518125.3284
  -7148936.83647  -5559403.57445  22177529.1174                   22177527.6094
 -12941181.60248 -10073878.93846  21297904.0314                   21297902.0474
 -22825453.19948 -17770272.83646  20969367.2034                   20969365.1134
     86288.33247     78559.35645  22960437.5784                   22960435.9884
 -14346619.45748 -11163557.07346  21818576.8134                   21818577.2384
 -24050925.89847 -18725047.73545  22160378.0634                   22160373.7814
 -11073510.63347  -8616132.30945  22122977.0164                   22122975.9144
   7708513.66846   6014826.88643  24666327.1564                   24666325.1414
 11  8 22  2 49  0.0000000  0  9G12G26G29G05G15G25G02G30G21
 -16243168.51247 -12641785.32545  22528574.1804                   22528572.8244
  -7258459.74647  -5644746.06845  22156687.7194                   22156685.8834
 -13042727.07448 -10153005.25646  21278580.6334                   21278578.8204
 -22796044.45748 -17747356.94046  20974963.8674                   20974961.3714
    -40856.09447    -20514.14645  22936242.5704                   22936241.0474
 -14335850.19148 -11155165.44246  21820625.7584                   21820626.9454
 -24038663.85547 -18715492.92145  22162711.2274                   22162707.3484
 -11051191.71147  -8598740.96545  22127224.5554                   22127222.9304
   7619788.65246   5945690.67743  24649442.8674                   24649441.1804
 11  8 22  2 49 30.0000000  0  9G12G26G29G05G15G25G02G30G21
 -16188075.06647 -12598855.40345  22539058.3444                   22539056.9614
  -7367621.16447  -5729806.87845  22135914.9144                   22135913.5904
 -13144024.96148 -10231938.65146  21259304.1174                   21259302.3284
 -22766299.79348 -17724179.27146  20980623.9454                   20980621.4774
   -167896.70347   -119506.78745  22912067.3524                   22912065.8794
 -14324626.27048 -11146419.53646  21822761.8284                   21822762.2934
 -24026312.42247 -18705868.44745  22165061.6254                   22165057.5204
 -11028468.18047  -8581034.31445  22131548.4144                   22131547.5434
   7531048.16446   5876542.42543  24632555.7584                   24632555.1884
 11  8 22  2 50  0.0000000  0  9G12G26G29G05G15G25G02G30G21
 -16132790.00847 -12555776.18145  22549579.0634                   22549577.0904
  -7476414.71147  -5814581.04945  22115211.8594                   22115210.4304
 -13245069.78148 -10310674.86246  21240075.9144                   21240073.7814
 -22736218.89848 -17700739.61846  20986348.0864                   20986345.7774
   -294827.66847   -218413.95345  22887913.4614                   22887911.2074
 -14312947.16448 -11137318.94646  21824984.3914                   21824984.6334
 -24013868.38347 -18696171.80945  22167430.0704                   22167425.3524
 -11005339.93447  -8563012.31645  22135949.7114                   22135947.8594
   7442294.71946   5807384.11443  24615666.7034                   24615664.8954
 11  8 22  2 50 30.0010000  0  9G12G26G29G05G15G25G02G30G21
 -14501892.78947 -11284947.21845  22859928.4224                   22859927.0514
  -6009413.27047  -4671463.01745  22394373.5474                   22394371.5274
 -11770436.16448  -9161609.68446  21520689.7504                   21520687.2074
 -21130380.80148 -16449437.20046  21291928.9924                   21291926.7814
   1153777.18447    910369.13145  23163573.1334                   23163571.6994
 -12725392.03148  -9900262.99346  22127085.6564                   22127086.2384
 -22425908.34447 -17458800.36545  22469608.3594                   22469604.8714
  -9406386.67247  -7317074.71645  22440220.5314                   22440218.6564
   8928951.25046   6965817.85843  24898568.1484                   24898565.8554
 11  8 22  2 51  0.0000000  0  9G12G26G29G05G15G25G02G30G21
 -14446231.89847 -11241575.13045  22870520.3594                   22870518.6134
  -6117453.44947  -4755650.10545  22373813.8914                   22373812.2194
 -11870961.89548  -9239941.39846  21501559.9064                   21501558.1954
 -21099632.64148 -16425477.59346  21297780.2194                   21297777.8554
   1027081.88347    811645.59245  23139463.7274                   23139462.1524
 -12712807.13348  -9890456.58746  22129480.6724                   22129481.4144
 -22413275.75447 -17448956.80945  22472012.2814                   22472008.5124
  -9382455.44947  -7298427.02345  22444774.2734                   22444772.9654
   8840175.85246   6896642.34943  24881674.5164                   24881673.0274
 11  8 22  2 51 30.0000000  0  9G12G26G29G05G15G25G02G30G21
 -14390386.90247 -11198059.57845  22881146.6564                   22881145.3794
  -6225118.87947  -4839545.23145  22353325.8444                   22353324.0354
 -11971231.31248  -9318073.40746  21482479.1564                   21482477.4264
 -21068554.71948 -16401261.03046  21303694.0314                   21303691.5314
    900500.75447    713010.97745  23115376.3524                   23115375.0004
 -12699774.02748  -9880300.93046  22131960.7814                   22131961.5824
 -22400549.52347 -17439040.28145  22474434.6724                   22474430.5234
  -9358127.69147  -7279470.32345  22449403.7584                   22449402.5394
   8751382.50046   6827452.86743  24864778.2194                   24864776.0164
 11  8 22  2 52  0.0000000  0  9G12G26G29G05G15G25G02G30G21
 -14334362.71947 -11154404.41545  22891808.4844                   22891806.6294
  -6332402.25047  -4923142.62845  22332910.2664                   22332908.4304
 -12071238.75848  -9396001.26646  21463448.5394                   21463446.3054
 -21037150.53948 -16376790.23446  21309670.2734                   21309667.7504
    774041.32047    614471.22345  23091311.3754                   23091310.5634
 -12686295.50448  -9869798.20346  22134525.7034                   22134526.1174
 -22387729.78147 -17429050.88945  22476873.8984                   22476869.7074
  -9333406.94547  -7260207.43545  22454107.8284                   22454107.1604
   8662573.59046   6758251.20742  24847877.4304                   24847875.1254
 11  8 22  2 52 30.0000000  0 10G18G12G26G29G05G15G25G02G30G21
  12426155.82056   9693924.56453  24787566.7034                   24787567.3094
 -14278165.08647 -11110614.07245  22902502.4224                   22902500.8484
  -6439302.86347  -5006441.77045  22312567.7664                   22312566.2344
 -12170984.34048  -9473725.07646  21444467.3984                   21444465.3794
 -21005425.50848 -16352069.42446  21315707.3984                   21315704.9654
    647703.93447    516026.55945  23067270.1954                   23067269.3754
 -12672376.63748  -9858952.34646  22137174.6644                   22137174.8244
 -22374818.83247 -17418990.41445  22479330.6094                   22479326.2344
  -9308298.85247  -7240642.68445  22458885.7194                   22458884.8444
   8573746.27046   6689035.14943  24830974.4454                   24830971.6524
 11  8 22  2 53  0.0000000  0 10G18G12G26G29G05G15G25G02G30G21
  12304076.06346   9598797.64943  24764335.5084                   24764335.7304
 -14221798.37147 -11066691.99545  22913228.5634                   22913227.1764
  -6545818.44547  -5089440.89845  22292298.3054                   22292296.2704
 -12270467.14548  -9551244.13646  21425536.6254                   21425534.8484
 -20973383.14848 -16327101.34446  21321804.8204                   21321802.0204
    521490.03947    417678.13045  23043252.8674                   23043251.3444
 -12658021.32048  -9847766.39046  22139906.4614                   22139906.9694
 -22361817.67247 -17408859.64245  22481804.6254                   22481800.7194
  -9282807.63747  -7220779.42545  22463736.7424                   22463735.3164
   8484898.16846   6619802.96143  24814067.7734                   24814065.3094
 11  8 22  2 53 30.0000000  0 10G18G12G26G29G05G15G25G02G30G21
  12182153.60946   9503793.34943  24741134.2194                   24741134.5744
 -14165270.22347 -11022644.12345  22923985.5634                   22923983.9224
  -6651950.09847  -5172140.84745  22272102.0164                   22272100.6604
 -12369689.30548  -9628560.07946  21406655.5554                   21406653.2624
 -20941030.68748 -16301891.62246  21327960.8284                   21327958.6214
    395398.61347    319425.13345  23019258.3284                   23019256.8324
 -12643236.40648  -9836245.68546  22142720.0554                   22142720.4804
 -22348730.41047 -17398661.80345  22484295.5234                   22484290.8674
  -9256940.74247  -7200623.40545  22468659.0394                   22468658.0594
   8396024.48846   6550550.85243  24797155.2814                   24797152.7894
 11  8 22  2 54  0.0000000  0 10G18G12G26G29G05G15G25G02G30G21
  12060389.18846   9408912.11943  24717963.1804                   24717963.7464
 -14108584.58647 -10978473.51245  22934772.0394                   22934770.6134
  -6757694.91047  -5254539.37045  22251979.6804                   22251978.1844
 -12468649.26648  -9705671.72946  21387823.7424                   21387821.4454
 -20908370.98448 -16276442.51046  21334176.2814                   21334173.6134
    269431.98447    221269.39845  22995287.6804                   22995286.3554
 -12628024.98047  -9824392.65346  22145614.7734                   22145615.5274
 -22335557.48447 -17388397.18545  22486801.8524                   22486797.7234
  -9230701.78147  -7180177.45945  22473652.0394                   22473650.8204
   8307124.04346   6481277.82643  24780237.8364                   24780235.6994
 11  8 22  2 54 30.0000000  0 10G18G12G26G29G05G15G25G02G30G21
  11938786.76646   9314157.10243  24694822.9774                   24694823.1454
 -14051741.28947 -10934180.09145  22945589.5314                   22945587.6054
  -6863046.50447  -5336631.47545  22231931.8984                   22231930.6994
 -12567341.53548  -9782574.76946  21369043.1724                   21369041.3674
 -20875403.73848 -16250753.72346  21340449.5704                   21340447.1644
    143595.90647    123215.37045  22971341.9534                   22971340.5124
 -12612386.75848  -9812207.03746  22148590.2664                   22148591.1054
 -22322295.78947 -17378063.38745  22489325.2034                   22489320.7274
  -9204090.76247  -7159441.61545  22478715.8984                   22478714.3674
   8218199.18846   6411985.78643  24763315.9614                   24763313.0554
 11  8 22  2 55  0.0000000  0 10G18G12G26G29G05G15G25G02G30G21
  11817353.19546   9219533.62543  24671715.4774                   24671714.6054
 -13994738.27747 -10889762.18245  22956436.2814                   22956435.1484
  -6967996.12947  -5418410.37245  22211960.7894                   22211958.8874
 -12665758.33248  -9859263.15746  21350315.2034                   21350313.4494
 -20842126.14148 -16224823.12146  21346782.2504                   21346779.6134
     17899.06647     25269.81745  22947422.3984                   22947421.3834
 -12596318.73048  -9799686.50546  22151647.9144                   22151648.5084
 -22308939.28547 -17367655.72745  22491867.2114                   22491862.7074
  -9177105.23847  -7138413.95545  22483851.1414                   22483849.8794
   8129254.69547   6342678.50843  24746389.8674                   24746388.5634
 11  8 22  2 55 30.0000000  0 10G18G12G26G29G05G15G25G02G30G21
  11696092.09846   9125044.72143  24648639.1414                   24648638.6094
 -13937575.96547 -10845220.15645  22967314.3284                   22967312.2894
  -7072537.65647  -5499871.26745  22192066.8754                   22192065.4264
 -12763894.95748  -9935733.23146  21331640.2034                   21331638.3324
 -20808538.27048 -16198650.74646  21353173.8134                   21353171.1884
   -107652.97747    -72562.86945  22923530.2974                   22923529.3834
 -12579821.00848  -9786831.16346  22154787.4384                   22154787.7894
 -22295485.19147 -17357172.01945  22494427.6724                   22494423.1254
  -9149745.76647  -7117094.87645  22489057.3284                   22489055.8954
   8040292.35246   6273357.20543  24729460.8134                   24729458.7114
 11  8 22  2 56  0.0000000  0 10G18G12G26G29G05G15G25G02G30G21
  11575003.56646   9030690.07443  24625596.2194                   24625596.5124
 -13880258.44547 -10800557.17245  22978222.0004                   22978220.2854
  -7176668.62147  -5581012.23445  22172251.9144                   22172249.9144
 -12861750.12148 -10011983.96946  21313019.2194                   21313017.0314
 -20774643.43448 -16172239.16646  21359623.3984                   21359620.9534
   -233058.25047   -170281.20545  22899666.3134                   22899664.9344
 -12562897.09848  -9773643.70846  22158007.7734                   22158008.4694
 -22281934.17647 -17346612.77545  22497006.0004                   22497002.0984
  -9122016.26247  -7095487.49545  22494334.3754                   22494332.8244
   7951311.00046   6204021.17743  24712528.4694                   24712525.8594
 11  8 22  2 56 30.0000000  0 10G18G12G26G29G05G15G25G02G30G21
  11454088.82046   8936470.88943  24602587.0944                   24602586.9734
 -13822789.68747 -10755776.36145  22989157.7194                   22989156.3524
  -7280386.35947  -5661831.21845  22152514.2114                   22152512.7734
 -12959321.94148 -10088013.93146  21294451.7894                   21294449.9774
 -20740444.71948 -16145590.80446  21366131.1884                   21366128.9224
   -358313.87547   -267882.93445  22875831.4064                   22875829.8554
 -12545550.00448  -9760126.51346  22161308.9534                   22161309.5434
 -22268286.38347 -17335978.14945  22499603.5784                   22499599.4184
  -9093920.22747  -7073594.48445  22499680.6644                   22499679.4144
   7862309.60946   6134669.52743  24695592.1024                   24695589.7544
 11  8 22  2 57  0.0000000  0 10G18G12G26G29G05G15G25G02G30G21
  11333350.12145   8842388.91243  24579611.0864                   24579611.1724
 -13765171.21547 -10710878.87545  23000121.7034                   23000120.4224
  -7383685.69947  -5742324.16645  22132857.4144                   22132856.0704
 -13056606.61348 -10163820.12546  21275939.5944                   21275937.0784
 -20705943.31648 -16118706.58046  21372696.4694                   21372694.0864
   -483415.69547   -365364.80845  22852025.5394                   22852024.0594
 -12527780.91448  -9746280.50346  22164690.3364                   22164690.6454
 -22254540.06647 -17325266.74245  22502218.8754                   22502215.0044
  -9065459.23447  -7051417.10245  22505096.6884                   22505095.3014
   7773288.75447   6065302.67243  24678652.3834                   24678650.6024
 11  8 22  2 57 30.0000000  0 10G18G12G26G29G05G15G25G02G30G21
  11212788.56645   8748445.05443  24556669.4534                   24556668.6884
 -13707406.29746 -10665867.28345  23011114.5784                   23011112.5554
  -7486563.54747  -5822488.70445  22113280.5394                   22113279.1994
 -13153602.04748 -10239400.95046  21257481.4064                   21257479.1484
 -20671141.82048 -16091588.53346  21379319.0474                   21379316.5984
   -608360.89847   -462724.65445  22828249.1334                   22828247.4924
 -12509592.78548  -9732107.95346  22168151.4844                   22168152.0004
 -22240694.83247 -17314478.24545  22504853.2274                   22504849.3524
  -9036636.66047  -7028957.96245  22510581.3984                   22510579.9494
   7684247.89146   5995920.24543  24661707.7114                   24661705.7664
 11  8 22  2 58  0.0000000  0 10G18G12G26G29G05G15G25G02G30G21
  11092407.73046   8654641.98042  24533762.0314                   24533761.4614
 -13649495.70747 -10620742.16845  23022134.2664                   23022133.3444
  -7589014.39147  -5902320.48645  22093785.1564                   22093783.0514
 -13250303.60248 -10314752.77146  21239079.8594                   21239077.6954
 -20636040.48448 -16064236.82646  21385998.4774                   21385996.1214
   -733144.18447   -559958.33245  22804503.6414                   22804501.9574
 -12490985.85947  -9717609.06746  22171692.3054                   22171692.5354
 -22226748.69947 -17303611.13545  22507507.8054                   22507503.8364
  -9007453.26647  -7006217.66845  22516135.2734                   22516133.5904
   7595188.53146   5926523.38543  24644760.3754                   24644758.5124
 11  8 22  2 58 30.0000000  0 10G18G12G26G29G05G15G25G02G30G21
  10972205.64146   8560978.18843  24510888.1644                   24510887.6254
 -13591445.41847 -10575508.19545  23033181.0234                   23033179.1844
  -7691037.68747  -5981819.13245  22074370.2894                   22074368.5084
 -13346711.58248 -10389875.84946  21220734.0004                   21220731.6214
 -20600644.77348 -16036655.75446  21392734.0864                   21392731.7194
   -857765.20747   -657065.58445  22780789.4454                   22780787.3164
 -12471965.68448  -9702788.18046  22175311.6334                   22175312.1954
 -22212704.02747 -17292667.22245  22510180.1254                   22510176.0274
  -8977914.94947  -6983200.80945  22521755.9694                   22521754.0594
   7506107.48846   5857109.64643  24627808.6564                   24627807.2154
 11  8 22  2 59  0.0000000  0 10G18G12G26G29G05G15G25G02G30G21
  10852185.36746   8467455.96143  24488048.2814                   24488048.2274
 -13533257.17647 -10530166.75445  23044253.7034                   23044252.5124
  -7792628.30547  -6060980.62345  22055038.3134                   22055036.6374
 -13442822.23048 -10464767.22946  21202444.6024                   21202442.7934
 -20564955.56648 -16008845.97046  21399525.7504                   21399523.3754
   -982218.93747   -754042.46945  22757105.9614                   22757104.3444
 -12452533.09848  -9687645.90746  22179009.6094                   22179009.7504
 -22198558.42247 -17281644.67945  22512871.9224                   22512868.1644
  -8948022.91847  -6959908.34445  22527444.0084                   22527442.7854
   7417005.79746   5787679.89943  24610852.8284                   24610851.2274
 11  8 22  2 59 30.0000000  0 10G18G12G26G29G05G15G25G02G30G21
  10732344.56346   8374073.68243  24465243.8364                   24465243.0204
 -13474937.16047 -10484722.60645  23055351.7194                   23055350.4924
  -7893786.21947  -6139804.92945  22035788.7114                   22035786.5204
 -13538636.78148 -10539427.86746  21184211.5234                   21184209.3324
 -20528978.83648 -15980812.15146  21406372.0554                   21406369.3054
  -1106505.92247   -850889.42245  22733454.6954                   22733453.0124
 -12432694.23448  -9672187.08446  22182784.7814                   22182784.7194
 -22184315.06247 -17270545.98245  22515582.0944                   22515578.6644
  -8917783.82847  -6936345.43145  22533198.2584                   22533197.0514
   7327879.85246   5718231.13643  24593893.3364                   24593891.5824
 11  8 22  3  0  0.0000000  0 10G18G12G26G29G05G15G25G02G30G21
  10612685.76646   8280833.19143  24442473.3284                   24442472.8954
 -13416487.31247 -10439177.29145  23066474.7114                   23066472.9224
  -7994506.73047  -6218288.42145  22016622.1334                   22016619.9104
 -13634151.35248 -10613854.77846  21166035.6094                   21166033.7544
 -20492715.48448 -15952554.97746  21413272.4454                   21413269.9804
  -1230621.69947   -947602.98845  22709836.6884                   22709834.6724
 -12412450.37948  -9656412.66546  22186636.8984                   22186637.4344
 -22169972.24247 -17259369.74545  22518311.9384                   22518307.6054
  -8887199.27047  -6912513.31645  22539018.7424                   22539016.9064
   7238730.07446   5648763.90043  24576927.8834                   24576926.0944
 11  8 22  3  0 30.0000000  0 10G18G12G26G29G05G15G25G02G30G21
  10493209.06346   8187734.58643  24419737.3524                   24419737.1374
 -13357911.76247 -10393534.05045  23077621.1024                   23077619.7234
  -8094788.07847  -6296429.69545  21997539.0704                   21997537.2814
 -13729365.12548 -10688047.29646  21147917.2424                   21147915.1684
 -20456169.68748 -15924077.73246  21420226.8594                   21420224.3874
  -1354564.77347  -1044181.95045  22686251.0554                   22686249.0314
 -12391805.71547  -9640325.92646  22190565.1254                   22190566.2344
 -22155531.10247 -17248116.93745  22521059.6724                   22521055.5164
  -8856273.89547  -6888415.62645  22544903.6644                   22544901.9574
   7149554.63446   5579276.60444  24559958.9384                   24559957.1684
 11  8 22  3  1  0.0000000  0 10G18G12G26G29G05G15G25G02G30G21
  10373917.98846   8094780.67343  24397037.3204                   24397036.4304
 -13299211.70347 -10347793.75745  23088791.6564                   23088789.7584
  -8194624.14547  -6374223.99645  21978541.0314                   21978539.0904
 -13824272.90247 -10762001.37546  21129856.7974                   21129854.8524
 -20419341.42648 -15895380.38246  21427235.3524                   21427232.7774
  -1478329.35547  -1140621.83745  22662699.5084                   22662697.6764
 -12370760.28948  -9623926.92346  22194570.3054                   22194570.9304
 -22140988.68447 -17236785.21545  22523826.6724                   22523822.9734
  -8825008.20347  -6864052.77245  22550853.0004                   22550852.0824
   7060355.85546   5509771.08143  24542984.6094                   24542983.7734
 11  8 22  3  1 30.0000000  0 10G18G12G26G29G05G15G25G02G30G21
  10254814.28946   8001972.75043  24374372.0314                   24374372.0204
 -13240389.18747 -10301958.07745  23099985.0704                   23099983.8594
  -8294010.99247  -6451668.26945  21959628.5784                   21959626.4734
 -13918871.94148 -10835714.89246  21111855.3524                   21111852.8754
 -20382232.21148 -15866464.10746  21434296.6174                   21434294.1254
  -1601911.60947  -1236919.65245  22639182.0864                   22639180.3834
 -12349316.08248  -9607217.17546  22198651.3054                   22198651.8674
 -22126343.85947 -17225373.67745  22526613.9694                   22526610.0044
  -8793404.41847  -6839426.47145  22556867.2814                   22556866.1644
   6971134.10546   5440247.67443  24526005.2424                   24526004.6374
 11  8 22  3  2  0.0000000  0 10G18G12G26G29G05G15G25G02G30G21
  10135901.34446   7909313.49243  24351743.8204                   24351743.1804
 -13181445.16047 -10256027.66945  23111201.9064                   23111199.7154
  -8392943.17247  -6528758.25245  21940802.0084                   21940800.1724
 -14013157.37148 -10909184.03146  21093913.5004                   21093911.3954
 -20344842.61348 -15837329.36246  21441411.7974                   21441409.2664
  -1725306.46147  -1333071.43745  22615700.7194                   22615698.7704
 -12327473.62548  -9590197.09846  22202807.5084                   22202808.2114
 -22111593.98447 -17213880.27745  22529420.8284                   22529416.6914
  -8761463.55547  -6814537.51045  22562945.2814                   22562944.2464
   6881890.47746   5370707.34843  24509023.4144                   24509021.7774
 11  8 22  3  2 30.0000000  0 10G18G12G26G29G05G15G25G02G30G21
  10017172.36746   7816797.57043  24329150.0474                   24329149.5314
 -13122390.65647 -10210011.19445  23122439.3444                   23122437.4884
  -8491425.28147  -6605497.53445  21922061.5944                   21922059.8204
 -14107134.99647 -10982413.32246  21076030.0314                   21076027.6174
 -20307182.88348 -15807984.10146  21448578.2504                   21448575.6844
  -1848518.27347  -1429080.58445  22592254.3834                   22592252.8834
 -12305243.54747  -9572874.98146  22207037.9224                   22207038.4884
 -22096746.81647 -17202311.07845  22532246.7194                   22532242.2934
  -8729196.60947  -6789394.46545  22569085.3524                   22569084.1954
   6792617.02346   5301143.71043  24492035.2424                   24492034.0314
 11  8 22  3  3  0.0000000  0 10G18G12G26G29G05G15G25G02G30G21
   9898633.26646   7724429.53443  24306592.1414                   24306592.3984
 -13063223.64547 -10163907.05445  23133698.7194                   23133696.5354
  -8589449.24247  -6681879.79045  21903408.0234                   21903406.1094
 -14200797.78548 -11055397.30746  21058206.5004                   21058204.4384
 -20269250.79348 -15778426.63346  21455796.4844                   21455793.8204
  -1971539.52347  -1524941.22945  22568844.1884                   22568842.3834
 -12282623.93447  -9555249.32246  22211342.1884                   22211342.9774
 -22081797.19147 -17190662.02545  22535090.7584                   22535086.5744
  -8696602.09847  -6763996.18345  22575288.3594                   22575286.9654
   6703317.84446   5231560.01743  24475042.2424                   24475040.4384
 11  8 22  3  3 30.0000000  0 10G18G12G26G29G05G15G25G02G30G21
   9780284.64846   7632210.02543  24284071.4224                   24284071.2664
 -13003948.15647 -10117718.38545  23144978.1484                   23144976.8054
  -8687012.55947  -6757903.13445  21884842.5394                   21884840.2154
 -14294144.20347 -11128134.75846  21040443.3054                   21040441.0204
 -20231049.62148 -15748659.49346  21463065.8204                   21463063.3754
  -2094367.95347  -1620651.62945  22545470.4534                   22545468.9694
 -12259618.11347  -9537322.72846  22215720.0704                   22215720.7544
 -22066745.03547 -17178933.09045  22537955.7344                   22537951.6094
  -8663683.59847  -6738345.42845  22581552.1954                   22581551.0664
   6613991.73846   5161955.39343  24458043.9774                   24458042.2194
 11  8 22  3  4  0.0000000  0 10G18G12G26G29G05G15G25G02G30G21
   9662129.42646   7540141.14743  24261587.2344                   24261587.1684
 -12944565.50447 -10071446.21245  23156278.6094                   23156276.4924
  -8784109.99647  -6833563.45945  21866365.1094                   21866363.9304
 -14387169.66848 -11200622.12246  21022741.0554                   21022738.9804
 -20192580.26248 -15718683.37546  21470386.3834                   21470383.6454
  -2216998.69547  -1716207.99245  22522134.7034                   22522132.9964
 -12236227.13348  -9519096.01546  22220171.4774                   22220172.0004
 -22051588.40247 -17167122.77545  22540839.9304                   22540835.4184
  -8630442.61347  -6712443.40345  22587877.4224                   22587876.5824
   6524639.80146   5092330.57443  24441040.4844                   24441039.0634
 11  8 22  3  4 30.0000000  0 10G18G12G26G29G05G15G25G02G30G21
   9544167.15246   7448222.61243  24239138.9304                   24239139.2274
 -12885079.78547 -10025093.71845  23167598.2114                   23167597.2424
  -8880739.82847  -6908859.38745  21847977.3054                   21847975.2424
 -14479873.39847 -11272858.77246  21005099.9694                   21005097.8674
 -20153846.41048 -15688501.15146  21477757.0084                   21477754.8754
  -2339429.84047  -1811608.82545  22498837.0554                   22498835.3094
 -12212455.01648  -9500572.31046  22224695.4614                   22224695.6564
 -22036328.23047 -17155231.74045  22543743.7114                   22543739.7664
  -8596883.43747  -6686293.43045  22594263.6414                   22594262.6024
   6435260.41446   5022684.41043  24424032.0944                   24424030.8674
 11  8 22  3  5  0.0000000  0 10G18G12G26G29G05G15G25G02G30G21
   9426401.70746   7356457.44543  24216728.6484                   24216729.3874
 -12825491.50047  -9978661.32244  23178937.5234                   23178935.7854
  -8976895.93747  -6983786.20645  21829679.4304                   21829677.3484
 -14572250.27048 -11344840.74646  20987521.3594                   20987518.8444
 -20114847.39848 -15658112.32746  21485178.5164                   21485175.7304
  -2461655.29347  -1906849.37845  22475578.2894                   22475576.3754
 -12188301.77347  -9481751.62946  22229291.1254                   22229292.4224
 -22020961.55547 -17143257.74245  22546667.9304                   22546663.4224
  -8563006.52047  -6659895.87545  22600710.5084                   22600709.6684
   6345856.31646   4953019.03343  24407019.7274                   24407017.3984
 11  8 22  3  5 30.0000000  0 10G18G12G26G29G05G15G25G02G30G21
   9308831.35946   7264844.27943  24194356.3674                   24194356.2854
 -12765807.21547  -9932154.12045  23190295.2894                   23190294.0824
  -9072578.21147  -7058343.79745  21811471.3674                   21811469.8714
 -14664301.21147 -11416568.73546  20970004.6174                   20970002.2774
 -20075589.09848 -15627521.44146  21492649.0234                   21492646.4654
  -2583675.21947  -2001929.78245  22452358.2894                   22452356.8444
 -12163773.24248  -9462638.51046  22233958.9454                   22233959.5984
 -22005490.61747 -17131202.49745  22549611.8754                   22549607.2704
  -8528818.01247  -6633255.52245  22607216.5234                   22607214.9774
   6256423.52747   4883331.26643  24390000.7034                   24389999.8204
 11  8 22  3  6  0.0000000  0 10G18G12G26G29G05G15G25G02G30G21
   9191456.91046   7173383.76443  24172020.7114                   24172019.7894
 -12706029.71547  -9885574.25745  23201670.5864                   23201668.4494
  -9167783.40647  -7132529.62945  21793354.5864                   21793352.8054
 -14756023.69948 -11488040.78846  20952550.2504                   20952548.7074
 -20036073.98848 -15596730.45746  21500168.7584                   21500165.7384
  -2705486.62547  -2096847.70845  22429178.6414                   22429176.7774
 -12138872.29348  -9443235.19646  22238697.6954                   22238697.9494
 -21989915.41847 -17119066.00645  22552575.6174                   22552571.0704
  -8494321.14547  -6606374.87045  22613781.2344                   22613779.7344
   6166961.60947   4813620.73644  24372977.1174                   24372975.1214
 11  8 22  3  6 30.0000000  0 10G18G12G26G29G05G15G25G02G30G21
   9074280.02046   7082077.22243  24149722.2814                   24149721.2114
 -12646161.43747  -9838923.70445  23213062.6954                   23213061.6254
  -9262508.07847  -7206341.03245  21775328.8594                   21775327.1604
 -14847415.00447 -11559254.77946  20935159.1644                   20935157.3364
 -19996304.25048 -15565741.06546  21507736.5554                   21507733.6804
  -2827086.16447  -2191600.53145  22406039.3674                   22406037.0824
 -12113601.34447  -9423543.56546  22243506.5634                   22243506.5004
 -21974235.12147 -17106847.62245  22555559.8284                   22555555.4384
  -8459518.74247  -6579256.15845  22620403.6484                   22620402.3914
   6077470.64147   4743887.67544  24355947.1954                   24355944.8754
 11  8 22  3  7  0.0000000  0 10G18G12G26G29G05G15G25G02G30G21
   8957301.95346   6990925.66543  24127462.1644                   24127462.3054
 -12586205.59047  -9792204.88145  23224472.8524                   23224470.8794
  -9356748.84847  -7279775.35845  21757395.1954                   21757393.8554
 -14938472.55548 -11630208.69046  20917831.5554                   20917829.3874
 -19956282.21548 -15534555.06546  21515352.4454                   21515349.7384
  -2948470.50047  -2286185.68445  22382940.1024                   22382938.0784
 -12087963.25448  -9403565.83746  22248385.3754                   22248385.6374
 -21958448.93047 -17094546.71245  22558563.7974                   22558559.5944
  -8424413.79747  -6551901.68245  22627084.0944                   22627083.3134
   5987950.14546   4674131.58543  24338911.9304                   24338909.6374
 11  8 22  3  7 30.0000000  0 10G18G12G26G29G05G15G25G02G30G21
   8840520.46547   6899927.24143  24105239.3134                   24105238.1334
 -12526168.01647  -9745422.38145  23235897.1094                   23235895.4844
  -9450505.40247  -7352832.40145  21739554.3594                   21739552.2154
 -15029197.45748 -11700903.39646  20900566.7584                   20900565.0164
 -19916013.23048 -15503176.64846  21523015.1024                   21523012.8284
  -3069639.27347  -2380602.84945  22359882.2034                   22359880.5314
 -12061963.60247  -9383306.38446  22253332.8674                   22253333.6174
 -21942559.62547 -17082165.43745  22561587.4774                   22561583.4494
  -8389012.39847  -6524316.19645  22633820.9064                   22633819.6024
   5898396.82846   4604349.89944  24321870.6094                   24321867.5864
 11  8 22  3  8  0.0000000  0 10G18G12G26G29G05G15G25G02G30G21
   8723941.41447   6809086.63543  24083054.8914                   24083054.4884
 -12466047.19547  -9698575.01145  23247337.9224                   23247336.4534
  -9543770.22347  -7425506.24645  21721806.3284                   21721804.4534
 -15119582.91048 -11771333.59346  20883367.5234                   20883365.1214
 -19875495.11748 -15471604.10846  21530725.5864                   21530723.2114
  -3190584.96547  -2474846.20745  22336867.4144                   22336865.5594
 -12035600.68047  -9362763.87146  22258349.0394                   22258350.3204
 -21926562.07447 -17069699.86345  22564631.2194                   22564626.7154
  -8353313.10547  -6496498.60345  22640613.8054                   22640612.2814
   5808814.95346   4534545.99243  24304823.4304                   24304820.9804
 11  8 22  3  8 30.0000000  0 10G18G12G26G29G05G15G25G02G30G21
   8607565.04747   6718403.87943  24060909.5314                   24060908.0204
 -12405846.78147  -9651665.61545  23258793.8594                   23258792.0984
  -9636540.58647  -7497794.81945  21704152.9454                   21704151.2544
 -15209626.57447 -11841497.46946  20866232.7734                   20866230.2894
 -19834731.04348 -15439839.89746  21538482.6024                   21538480.0354
  -3311305.12547  -2568913.81445  22313895.0554                   22313892.8134
 -12008877.94947  -9341940.96946  22263434.5234                   22263435.3444
 -21910456.46547 -17057150.06545  22567695.9844                   22567691.9264
  -8317319.71947  -6468451.84245  22647463.1254                   22647462.0234
   5719203.25846   4464718.77944  24287770.7894                   24287767.8754
 11  8 22  3  9  0.0000000  0 10G18G12G26G29G05G15G25G02G30G21
   8491390.16046   6627878.16343  24038802.2424                   24038800.8554
 -12345572.75047  -9604698.84645  23270262.9224                   23270262.1294
  -9728816.13347  -7569697.81045  21686593.3364                   21686591.4024
 -15299328.84848 -11911395.31446  20849162.7734                   20849160.5634
 -19793726.37148 -15407888.22146  21546285.9844                   21546283.0274
  -3431799.22347  -2662805.27545  22290965.4534                   22290963.6024
 -11981801.03947  -9320842.08446  22268587.0634                   22268587.4614
 -21894245.08247 -17044517.82045  22570781.3674                   22570776.8834
  -8281038.14147  -6440180.49645  22654367.6644                   22654366.1134
   5629558.79746   4394866.05543  24270711.9694                   24270709.3014
 11  8 22  3  9 30.0000000  0 10G18G12G26G29G05G15G25G02G30G21
   8375419.02046   6537511.23743  24016733.2504                   24016732.1884
 -12285226.12247  -9557675.47845  23281746.9064                   23281744.7464
  -9820592.19147  -7641211.56645  21669129.0864                   21669127.0704
 -15388685.95347 -11981024.19646  20832158.7274                   20832156.6644
 -19752481.80948 -15375749.60546  21554134.4694                   21554131.8324
  -3552062.71547  -2756517.04345  22268080.4454                   22268078.3484
 -11954371.21547  -9299468.19946  22273807.0084                   22273807.3954
 -21877926.02047 -17031801.69545  22573886.8284                   22573882.4024
  -8244470.00047  -6411685.87045  22661325.8054                   22661324.8134
   5539882.60546   4324988.62543  24253647.6644                   24253644.0944
 11  8 22  3 10  0.0000000  0 10G18G12G26G29G05G15G25G02G30G21
   8259654.93046   6447305.61343  23994704.1414                   23994703.1254
 -12224807.99647  -9510596.46344  23293243.7114                   23293242.2774
  -9911863.55947  -7712332.09045  21651760.7034                   21651758.7384
 -15477693.71148 -12050380.85746  20815221.0944                   20815218.8364
 -19710997.55948 -15343424.24146  21562028.7034                   21562026.1564
  -3672090.28947  -2850044.98745  22245239.3524                   22245237.9734
 -11926589.19547  -9277819.87946  22279093.9614                   22279093.9184
 -21861496.65647 -17018999.57245  22577012.4774                   22577008.7814
  -8207616.26247  -6382968.68045  22668339.0554                   22668337.6914
   5450176.38346   4255087.72743  24236576.3444                   24236573.8324
 11  8 22  3 10 30.0000000  0 10G18G12G26G29G05G15G25G02G30G21
   8144099.37546   6357262.49543  23972713.7114                   23972713.5784
 -12164320.82046  -9463463.61844  23304753.8204                   23304752.7894
 -10002626.48447  -7783056.42045  21634489.1644                   21634487.3204
 -15566348.75848 -12119462.68346  20798350.3914                   20798348.3794
 -19669275.31648 -15310913.41346  21569967.8524                   21569965.4574
  -3791878.43047  -2943386.33145  22222444.7894                   22222442.8714
 -11898457.13747  -9255898.80946  22284446.8054                   22284447.7734
 -21844955.50047 -17006110.38745  22580160.1954                   22580156.4454
  -8170479.40647  -6354030.87045  22675405.7814                   22675405.0434
   5360440.43046   4185163.67143  24219500.0554                   24219496.8674
 11  8 22  3 11  0.0000000  0 10G18G12G26G29G05G15G25G02G30G21
   8028750.96146   6267380.84143  23950763.4384                   23950763.3594
 -12103770.05946  -9416281.19744  23316276.2814                   23316274.7934
 -10092880.44947  -7853384.15445  21617314.3834                   21617312.2384
 -15654651.44947 -12188269.95946  20781546.9534                   20781544.8834
 -19627320.35948 -15278221.25246  21577951.7034                   21577949.1564
  -3911426.16447  -3036540.37845  22199695.3914                   22199693.7894
 -11869980.55547  -9233709.26746  22289865.8134                   22289866.0704
 -21828305.28547 -16993136.19145  22583329.5234                   22583324.7234
  -8133065.18447  -6324876.95745  22682525.6094                   22682524.2934
   5270671.75046   4115214.12043  24202417.7734                   24202415.1254
 11  8 22  3 11 30.0000000  0 10G18G12G26G29G05G15G25G02G30G21
   7913610.55546   6177661.23443  23928853.5314                   23928852.7234
 -12043159.24246  -9369052.01644  23327810.2814                   23327808.4924
 -10182622.85947  -7923313.27045  21600236.9144                   21600234.5634
 -15742600.17248 -12256801.39246  20764811.0084                   20764809.0944
 -19585135.64548 -15245350.06546  21585979.6094                   21585977.1724
  -4030731.28947  -3129505.36145  22176992.3054                   22176990.9494
 -11841162.87547  -9211253.95346  22295349.9534                   22295351.0234
 -21811545.86747 -16980076.90744  22586517.8524                   22586514.1254
  -8095377.42647  -6295509.87345  22689697.9614                   22689696.5944
   5180869.53546   4045238.51843  24185328.5864                   24185325.8674
 11  8 22  3 12  0.0000000  0 10G18G12G26G29G05G15G25G02G30G21
   7798679.25446   6088104.54243  23906982.6804                   23906981.7154
 -11982490.23446  -9321777.47344  23339355.6724                   23339354.0634
 -10271850.14847  -7992840.98545  21583257.4384                   21583254.9924
 -15830191.71948 -12325054.51846  20748142.8754                   20748140.3364
 -19542722.73048 -15212301.04346  21594050.1724                   21594047.4224
  -4149789.80947  -3222278.19046  22154336.3054                   22154334.4184
 -11812006.24247  -9188534.51145  22300897.8594                   22300898.8984
 -21794675.90647 -16966931.49945  22589728.7894                   22589724.0824
  -8057418.50447  -6265931.51645  22696920.7814                   22696919.7424
   5091034.25046   3975237.01843  24168233.4774                   24168231.4774
 11  8 22  3 12 30.0000000  0 10G18G12G26G29G05G15G25G02G30G21
   7683958.66047   5998712.09043  23885151.9614                   23885150.4614
 -11921766.15646  -9274460.03344  23350910.5944                   23350909.4384
 -10360558.46147  -8061964.31945  21566376.5394                   21566374.8554
 -15917423.60548 -12393027.39747  20731543.2034                   20731540.9264
 -19500083.67248 -15179075.81746  21602164.0084                   21602161.3484
  -4268598.30547  -3314856.20346  22131727.6334                   22131726.1844
 -11782513.12947  -9165552.86845  22306510.5234                   22306510.9144
 -21777694.72347 -16953699.40045  22592959.7814                   22592956.0434
  -8019191.20347  -6236144.01845  22704195.2424                   22704193.7774
   5001165.64846   3905209.59243  24151132.1954                   24151128.9654
 11  8 22  3 13  0.0000000  0 10G18G12G26G29G05G15G25G02G30G21
   7569449.35946   5909484.23143  23863360.9224                   23863360.9574
 -11860990.24246  -9227102.18044  23362475.7584                   23362475.2734
 -10448745.84447  -8130681.71645  21549594.8284                   21549593.4184
 -16004293.63348 -12460718.29446  20715012.4384                   20715010.4264
 -19457221.22748 -15145676.50846  21610320.6564                   21610317.8484
  -4387154.16847  -3407237.32046  22109167.0634                   22109165.5554
 -11752686.93747  -9142311.69545  22312186.2034                   22312186.8324
 -21760602.25047 -16940380.58845  22596212.3054                   22596208.5204
  -7980699.14847  -6206150.22145  22711520.3984                   22711519.2664
   4911263.09046   3835155.82243  24134024.2424                   24134022.0904
 11  8 22  3 13 30.0000000  0 10G18G12G26G29G05G15G25G02G30G21
   7455150.89847   5820420.70844  23841610.6484                   23841610.5004
 -11800167.19546  -9179707.61845  23374050.6804                   23374049.2464
 -10536410.21547  -8198991.57745  21532913.3444                   21532911.2734
 -16090801.22348 -12528126.78946  20698550.4614                   20698548.4384
 -19414139.28548 -15112106.18246  21618518.9304                   21618516.0124
  -4505455.52047  -3499420.15845  22086654.7814                   22086653.0354
 -11722531.98847  -9118814.34145  22317924.5164                   22317925.6524
 -21743399.31247 -16926975.72745  22599486.7814                   22599482.3444
  -7941946.94547  -6175953.70044  22718894.3444                   22718893.1094
   4821324.69546   3765074.04043  24116909.2664                   24116906.6334
 11  8 22  3 14  0.0000000  0 10G18G12G26G29G05G15G25G02G30G21
   7341066.38747   5731523.78843  23819901.1024                   23819900.1604
 -11739297.57047  -9132276.75144  23385633.7664                   23385632.0704
 -10623546.74247  -8266890.13745  21516331.6254                   21516330.0004
 -16176941.84048 -12595249.32947  20682158.3444                   20682156.2074
 -19370838.38748 -15078365.23746  21626758.6804                   21626755.9884
  -4623497.35247  -3591400.74646  22064192.9844                   22064190.7624
 -11692049.16847  -9095061.50545  22323724.8444                   22323725.5204
 -21726083.44547 -16913482.85644  22602781.1414                   22602776.8674
  -7902935.74247  -6145555.37445  22726317.9304                   22726316.6684
   4731352.44946   3694965.82643  24099788.2814                   24099785.1454
 11  8 22  3 14 30.0000000  0 10G18G12G26G29G05G15G25G02G30G21
   7227195.98446   5642793.79243  23798232.0084                   23798230.6454
 -11678385.02347  -9084812.42044  23397225.2894                   23397223.2464
 -10710153.17647  -8334375.63845  21499851.0314                   21499848.9964
 -16262713.88748 -12662084.66546  20665836.7814                   20665834.0944
 -19327321.37548 -15044455.88446  21635039.9534                   21635037.0904
  -4741277.07447  -3683177.11346  22041779.7734                   22041778.1374
 -11661242.03147  -9071055.96145  22329587.5234                   22329588.4694
 -21708654.88347 -16899902.15945  22606098.0634                   22606094.1294
  -7863669.40247  -6114958.26945  22733789.9614                   22733789.4774
   4641344.96546   3624830.17643  24082660.5554                   24082658.0474
